[[{"header":{"parameterUnit":"m.s-1","parameterCategory":1,"la1":30.6,"la2":29.2853,"lo1":-89.7004,"lo2":-87.6739,"dy":0.0162,"dx":0.0183,"nx":112,"ny":82,"refTime":"2025-04-24T18:00:00:Z","depth":0,"parameterNumber":2,"parameterNumberName":"U-component_of_WINDS"},"data":[0.0,0.0,0.0,0.0,0.0,0.0,0.0,0.0,0.0,0.0,0.0,0.0,0.0,0.0,0.0,0.0,0.0,0.0,0.0,0.0,0.0,0.0,0.0,0.0,0.0,0.0,0.0,0.0,0.0,0.0,0.0,0.0,0.0,0.0,0.0,0.0,0.0,0.0,0.0,0.0,0.0,0.0,0.0,0.0,0.0,0.0,0.0,0.0,0.0,0.0,0.0,0.0,0.0,0.0,0.0,0.0,0.0,0.0,0.0,0.0,0.0,0.0,0.0,0.0,0.0,0.0,0.0,0.0,0.0,0.0,0.0,0.0,0.0,0.0,0.0,0.0,0.0,0.0,0.0,0.0,0.0,0.0,0.0,0.0,0.0,0.0,0.0,0.0,0.0,0.0,-5.5698,-5.6417,-5.9367,-6.1305,-6.1299,-6.05,-5.7975,-5.3219,0.0,0.0,0.0,0.0,0.0,0.0,0.0,0.0,0.0,0.0,0.0,0.0,0.0,0.0,0.0,0.0,0.0,0.0,0.0,0.0,0.0,0.0,0.0,0.0,0.0,0.0,0.0,0.0,0.0,0.0,0.0,0.0,0.0,0.0,0.0,0.0,0.0,0.0,0.0,0.0,0.0,0.0,0.0,0.0,0.0,0.0,0.0,0.0,0.0,0.0,0.0,0.0,0.0,0.0,0.0,0.0,0.0,0.0,0.0,0.0,0.0,0.0,0.0,0.0,0.0,0.0,0.0,0.0,0.0,0.0,0.0,0.0,0.0,0.0,0.0,0.0,0.0,0.0,0.0,0.0,0.0,0.0,0.0,0.0,0.0,0.0,0.0,0.0,0.0,0.0,0.0,0.0,0.0,0.0,0.0,0.0,0.0,0.0,0.0,0.0,0.0,0.0,0.0,0.0,-5.5375,-5.958,-6.0793,-6.1306,-6.1291,-6.0492,-5.8025,-5.3358,0.0,0.0,0.0,0.0,0.0,0.0,0.0,0.0,0.0,0.0,0.0,0.0,0.0,0.0,0.0,0.0,0.0,0.0,0.0,0.0,0.0,0.0,0.0,0.0,0.0,0.0,0.0,0.0,0.0,0.0,0.0,0.0,0.0,0.0,0.0,0.0,0.0,0.0,0.0,0.0,0.0,0.0,0.0,0.0,0.0,0.0,0.0,0.0,0.0,0.0,0.0,0.0,0.0,0.0,0.0,0.0,0.0,0.0,0.0,0.0,0.0,0.0,0.0,0.0,0.0,0.0,0.0,0.0,0.0,0.0,0.0,0.0,0.0,0.0,0.0,0.0,0.0,0.0,0.0,0.0,0.0,0.0,0.0,0.0,0.0,0.0,0.0,0.0,0.0,0.0,0.0,0.0,0.0,0.0,0.0,0.0,0.0,0.0,0.0,0.0,0.0,0.0,0.0,-5.3731,-5.5504,-6.0284,-6.0991,-6.1186,-6.1297,-6.0503,-5.8299,-5.4327,-5.2663,0.0,0.0,0.0,0.0,0.0,0.0,0.0,0.0,0.0,0.0,0.0,0.0,0.0,0.0,0.0,0.0,0.0,0.0,0.0,0.0,0.0,0.0,0.0,0.0,0.0,0.0,0.0,0.0,0.0,0.0,0.0,0.0,0.0,0.0,0.0,0.0,0.0,0.0,0.0,0.0,0.0,0.0,0.0,0.0,0.0,0.0,0.0,0.0,0.0,0.0,0.0,0.0,0.0,0.0,0.0,0.0,0.0,0.0,0.0,0.0,0.0,0.0,0.0,0.0,0.0,0.0,0.0,0.0,0.0,0.0,0.0,0.0,0.0,0.0,0.0,0.0,0.0,0.0,0.0,0.0,0.0,0.0,0.0,0.0,0.0,0.0,0.0,0.0,0.0,0.0,0.0,0.0,0.0,0.0,0.0,0.0,0.0,0.0,0.0,0.0,0.0,0.0,-5.5185,-5.676,-6.0411,-6.0925,-6.1089,-6.1271,-6.0312,-5.8254,-5.4847,-5.2918,0.0,0.0,0.0,0.0,0.0,0.0,0.0,0.0,0.0,0.0,0.0,0.0,0.0,0.0,0.0,0.0,0.0,0.0,0.0,0.0,0.0,0.0,0.0,0.0,0.0,0.0,0.0,0.0,0.0,0.0,0.0,0.0,0.0,0.0,0.0,0.0,0.0,0.0,0.0,0.0,0.0,0.0,0.0,0.0,0.0,0.0,0.0,0.0,0.0,0.0,0.0,0.0,0.0,0.0,0.0,0.0,0.0,0.0,0.0,0.0,0.0,0.0,0.0,0.0,0.0,0.0,0.0,0.0,0.0,0.0,0.0,0.0,0.0,0.0,0.0,0.0,0.0,0.0,0.0,0.0,0.0,0.0,0.0,0.0,0.0,0.0,0.0,0.0,0.0,0.0,0.0,0.0,0.0,0.0,0.0,0.0,0.0,0.0,0.0,0.0,0.0,0.0,-5.663,-5.9953,-6.0707,-6.0925,-6.1089,-6.1271,-5.9768,-5.7399,-5.4082,-5.2064,0.0,0.0,0.0,0.0,0.0,0.0,0.0,0.0,0.0,0.0,0.0,0.0,0.0,0.0,0.0,0.0,0.0,0.0,0.0,0.0,0.0,0.0,0.0,0.0,0.0,0.0,0.0,0.0,0.0,0.0,0.0,0.0,0.0,0.0,0.0,0.0,0.0,0.0,0.0,0.0,0.0,0.0,0.0,0.0,0.0,0.0,0.0,0.0,0.0,0.0,0.0,0.0,0.0,0.0,0.0,0.0,0.0,0.0,0.0,0.0,0.0,0.0,0.0,0.0,0.0,0.0,0.0,0.0,0.0,0.0,0.0,0.0,0.0,0.0,0.0,0.0,0.0,0.0,0.0,0.0,0.0,0.0,0.0,0.0,0.0,0.0,0.0,0.0,0.0,0.0,0.0,0.0,0.0,0.0,0.0,0.0,0.0,0.0,0.0,0.0,0.0,0.0,-5.5359,-5.817,0.0,-6.0673,-6.0732,-6.0387,-5.9834,-5.7848,-5.3924,0.0,0.0,0.0,0.0,0.0,0.0,0.0,0.0,0.0,0.0,0.0,0.0,0.0,0.0,0.0,0.0,0.0,0.0,0.0,0.0,0.0,0.0,0.0,0.0,0.0,0.0,0.0,0.0,0.0,0.0,0.0,0.0,0.0,0.0,0.0,0.0,0.0,0.0,0.0,0.0,0.0,0.0,0.0,0.0,0.0,0.0,0.0,0.0,0.0,0.0,0.0,0.0,0.0,0.0,0.0,0.0,0.0,0.0,0.0,0.0,0.0,0.0,0.0,0.0,0.0,0.0,0.0,0.0,0.0,0.0,0.0,0.0,0.0,0.0,0.0,0.0,0.0,0.0,0.0,0.0,0.0,0.0,0.0,0.0,0.0,0.0,0.0,0.0,0.0,0.0,0.0,0.0,0.0,0.0,0.0,0.0,0.0,0.0,0.0,0.0,0.0,0.0,-5.1628,-5.4625,-5.7277,0.0,-5.9952,-6.0115,-5.9439,-5.8954,-5.7021,-5.3093,0.0,0.0,0.0,0.0,0.0,0.0,0.0,0.0,0.0,0.0,0.0,0.0,0.0,0.0,0.0,0.0,0.0,0.0,0.0,0.0,0.0,0.0,0.0,0.0,0.0,0.0,0.0,0.0,0.0,0.0,0.0,0.0,0.0,0.0,0.0,0.0,0.0,0.0,0.0,0.0,0.0,0.0,0.0,0.0,0.0,0.0,0.0,0.0,0.0,0.0,0.0,0.0,0.0,0.0,0.0,0.0,0.0,0.0,0.0,0.0,0.0,0.0,0.0,0.0,0.0,0.0,0.0,0.0,0.0,0.0,0.0,0.0,0.0,0.0,0.0,0.0,0.0,0.0,0.0,0.0,0.0,0.0,0.0,0.0,0.0,0.0,0.0,0.0,0.0,0.0,0.0,0.0,0.0,0.0,0.0,0.0,0.0,0.0,0.0,0.0,0.0,0.0,-5.0241,-5.4871,-5.8024,-5.7634,-5.8725,-5.9209,-5.8549,-5.6895,-5.4556,0.0,0.0,0.0,0.0,0.0,0.0,0.0,0.0,0.0,0.0,0.0,0.0,0.0,0.0,0.0,0.0,0.0,0.0,0.0,0.0,0.0,0.0,0.0,0.0,0.0,0.0,0.0,0.0,0.0,0.0,0.0,0.0,0.0,0.0,0.0,0.0,0.0,0.0,0.0,0.0,0.0,0.0,0.0,0.0,0.0,0.0,0.0,0.0,0.0,0.0,0.0,0.0,0.0,0.0,0.0,0.0,0.0,0.0,0.0,0.0,0.0,0.0,0.0,0.0,0.0,0.0,0.0,0.0,0.0,0.0,0.0,0.0,0.0,0.0,0.0,0.0,0.0,0.0,0.0,0.0,0.0,0.0,0.0,0.0,0.0,0.0,0.0,0.0,0.0,0.0,0.0,0.0,0.0,0.0,0.0,0.0,0.0,0.0,0.0,0.0,0.0,0.0,0.0,-4.9769,-5.3926,-5.6925,-5.7084,-5.7739,-5.7977,-5.7474,-5.648,-5.4231,-5.0318,0.0,0.0,0.0,0.0,0.0,0.0,0.0,0.0,0.0,0.0,0.0,0.0,0.0,0.0,0.0,0.0,0.0,0.0,0.0,0.0,0.0,0.0,0.0,0.0,0.0,0.0,0.0,0.0,0.0,0.0,0.0,0.0,0.0,0.0,0.0,0.0,0.0,0.0,0.0,0.0,0.0,0.0,0.0,0.0,0.0,0.0,0.0,0.0,0.0,0.0,0.0,0.0,0.0,0.0,0.0,0.0,0.0,0.0,0.0,0.0,0.0,0.0,0.0,0.0,0.0,0.0,0.0,0.0,0.0,0.0,0.0,0.0,0.0,0.0,0.0,0.0,0.0,0.0,0.0,0.0,0.0,0.0,0.0,0.0,0.0,0.0,0.0,0.0,0.0,0.0,0.0,0.0,0.0,0.0,0.0,0.0,0.0,0.0,0.0,0.0,0.0,0.0,-4.8622,-5.2826,-5.5791,-5.5669,-5.6543,-5.6727,-5.5799,-5.5489,-5.3552,-4.9342,0.0,0.0,0.0,0.0,0.0,0.0,0.0,0.0,0.0,0.0,0.0,0.0,0.0,0.0,0.0,0.0,0.0,0.0,0.0,0.0,0.0,0.0,0.0,0.0,0.0,0.0,0.0,0.0,0.0,0.0,0.0,0.0,0.0,0.0,0.0,0.0,0.0,0.0,0.0,0.0,0.0,0.0,0.0,0.0,0.0,0.0,0.0,0.0,0.0,0.0,0.0,0.0,0.0,0.0,0.0,0.0,0.0,0.0,0.0,0.0,0.0,0.0,0.0,0.0,0.0,0.0,0.0,0.0,0.0,0.0,0.0,0.0,0.0,0.0,0.0,0.0,0.0,0.0,0.0,0.0,0.0,0.0,0.0,0.0,0.0,0.0,0.0,0.0,0.0,0.0,0.0,0.0,0.0,0.0,0.0,0.0,0.0,0.0,0.0,0.0,0.0,0.0,-4.7261,-5.1602,-5.4447,-5.3777,-5.5035,-5.5306,-5.3758,-5.395,-5.2443,-4.843,0.0,0.0,0.0,0.0,0.0,0.0,0.0,0.0,0.0,0.0,0.0,0.0,0.0,0.0,0.0,0.0,0.0,0.0,0.0,0.0,0.0,0.0,0.0,0.0,0.0,0.0,0.0,0.0,0.0,0.0,0.0,0.0,0.0,0.0,0.0,0.0,0.0,0.0,0.0,0.0,0.0,0.0,0.0,0.0,0.0,0.0,0.0,0.0,0.0,0.0,0.0,0.0,0.0,0.0,0.0,0.0,0.0,0.0,0.0,0.0,-5.4189,0.0,0.0,0.0,0.0,0.0,0.0,0.0,0.0,0.0,0.0,0.0,0.0,0.0,0.0,0.0,0.0,0.0,0.0,0.0,0.0,0.0,0.0,0.0,0.0,0.0,0.0,0.0,0.0,0.0,0.0,0.0,0.0,0.0,0.0,0.0,0.0,0.0,0.0,0.0,0.0,0.0,-4.7868,-5.0185,-5.2024,-5.2771,-5.261,-5.2427,-5.2389,-5.1907,-5.0364,-4.746,-4.697,0.0,0.0,0.0,0.0,0.0,0.0,0.0,0.0,0.0,0.0,0.0,0.0,0.0,0.0,0.0,0.0,0.0,0.0,0.0,0.0,0.0,0.0,0.0,0.0,0.0,0.0,0.0,0.0,0.0,0.0,0.0,0.0,0.0,0.0,0.0,0.0,0.0,0.0,0.0,0.0,0.0,0.0,0.0,0.0,0.0,0.0,0.0,0.0,0.0,0.0,0.0,0.0,0.0,0.0,0.0,0.0,0.0,0.0,0.0,0.0,-5.4289,0.0,0.0,0.0,0.0,0.0,0.0,0.0,0.0,0.0,0.0,0.0,0.0,0.0,0.0,0.0,0.0,0.0,0.0,0.0,0.0,0.0,0.0,0.0,0.0,0.0,0.0,0.0,0.0,0.0,0.0,0.0,0.0,0.0,0.0,0.0,0.0,0.0,0.0,0.0,0.0,-4.7004,-4.9297,-5.1051,-5.1674,-5.1527,-5.1309,-5.1094,-5.0903,-4.9877,-4.7697,-4.6657,0.0,0.0,0.0,0.0,0.0,0.0,0.0,0.0,0.0,0.0,0.0,0.0,0.0,0.0,0.0,0.0,0.0,0.0,0.0,0.0,0.0,0.0,0.0,0.0,0.0,0.0,0.0,0.0,0.0,0.0,0.0,0.0,0.0,0.0,0.0,0.0,0.0,0.0,0.0,0.0,0.0,0.0,0.0,0.0,0.0,0.0,0.0,0.0,0.0,0.0,0.0,0.0,0.0,-5.6284,-5.6472,-5.6452,-5.6393,-5.6838,-5.7591,-5.6164,-5.6167,-5.7041,-5.5055,0.0,0.0,0.0,0.0,0.0,0.0,0.0,0.0,0.0,0.0,0.0,0.0,0.0,0.0,0.0,0.0,0.0,0.0,0.0,0.0,0.0,0.0,0.0,0.0,-5.0656,-5.1118,0.0,0.0,0.0,0.0,0.0,0.0,0.0,0.0,0.0,0.0,0.0,0.0,-4.6213,-4.8691,-5.0417,-5.0563,-5.075,-5.0579,-4.9856,-5.0137,-4.9686,-4.8116,-4.6826,-4.5855,0.0,0.0,0.0,0.0,0.0,0.0,0.0,0.0,0.0,0.0,0.0,0.0,0.0,0.0,0.0,0.0,0.0,0.0,0.0,0.0,0.0,0.0,0.0,0.0,0.0,0.0,0.0,0.0,0.0,0.0,0.0,0.0,-5.3524,-5.3942,0.0,0.0,0.0,0.0,0.0,0.0,0.0,0.0,0.0,0.0,0.0,0.0,0.0,-5.3955,-5.4377,-5.588,-5.6684,-5.6749,-5.8629,-5.9526,-5.9502,-5.9151,-5.9473,-6.0242,-5.9276,0.0,-5.7188,-5.6864,0.0,0.0,0.0,0.0,0.0,0.0,0.0,0.0,0.0,0.0,0.0,0.0,0.0,0.0,0.0,0.0,0.0,0.0,0.0,0.0,0.0,0.0,-5.2692,-5.2645,-5.2794,-5.2686,0.0,-4.9842,-4.8013,-4.6859,-4.6075,0.0,0.0,0.0,0.0,0.0,0.0,0.0,-4.7738,-4.8361,-4.893,-4.9684,-4.9117,-4.8659,-4.8548,-4.8586,-4.8218,-4.7316,-4.737,-4.6778,-4.5268,-4.4265,0.0,0.0,0.0,0.0,0.0,0.0,0.0,0.0,0.0,0.0,0.0,0.0,0.0,0.0,0.0,0.0,0.0,0.0,0.0,0.0,0.0,0.0,0.0,0.0,0.0,0.0,0.0,0.0,0.0,-5.1305,-5.2783,-5.3836,-5.3701,-5.3116,0.0,0.0,0.0,0.0,0.0,0.0,0.0,0.0,0.0,-5.4982,-5.4894,-5.5442,-5.6762,-5.7529,-5.8033,-5.8335,-5.9271,-5.9836,-6.0099,-5.9909,-5.992,-6.0089,-6.0185,-5.9309,-5.7785,-5.7284,-5.6463,-5.5326,0.0,0.0,0.0,0.0,-5.2635,-5.2692,-5.3203,-5.3407,0.0,-5.1689,0.0,0.0,0.0,0.0,0.0,0.0,0.0,0.0,0.0,0.0,0.0,-5.3075,-5.3185,-5.3093,-5.2747,-5.1761,-5.0376,0.0,-4.75,-4.6247,-4.3698,0.0,0.0,0.0,0.0,-4.608,-4.7462,-4.8012,-4.8453,-4.882,-4.8526,-4.8306,-4.8306,-4.8306,-4.8159,-4.7791,-4.7518,-4.7141,-4.6634,-4.4899,-4.3833,0.0,0.0,0.0,0.0,0.0,0.0,0.0,0.0,0.0,0.0,0.0,0.0,0.0,0.0,0.0,0.0,0.0,0.0,0.0,0.0,0.0,0.0,0.0,0.0,0.0,0.0,0.0,0.0,-5.0901,-5.2243,-5.3441,-5.3632,-5.321,0.0,0.0,0.0,0.0,0.0,0.0,-5.3794,-5.3812,-5.4546,-5.6143,-5.6198,-5.6952,-5.8508,-5.8526,-5.8694,-5.9047,-5.9158,-5.9389,-5.9741,-5.9996,-5.9819,-5.9355,-6.013,-5.9646,-5.8261,-5.7596,-5.7058,-5.6472,-5.4357,-5.3395,-5.3241,-5.3453,-5.353,-5.3645,-5.4511,-5.4799,-5.4603,-5.3308,0.0,-5.1839,-5.0361,0.0,0.0,0.0,0.0,-5.04,-5.1206,-5.1867,-5.2454,-5.3078,-5.3185,-5.3185,-5.3185,-5.2873,-5.195,0.0,-4.9096,-4.7881,-4.4795,0.0,0.0,0.0,0.0,-4.6507,-4.7296,-4.792,-4.8306,-4.8306,-4.8306,-4.8306,-4.8306,-4.8122,-4.8067,-4.8306,-4.7535,-4.7242,-4.7542,-4.5656,-4.4707,-4.4897,0.0,0.0,0.0,0.0,0.0,0.0,0.0,0.0,0.0,0.0,0.0,0.0,0.0,0.0,0.0,0.0,0.0,0.0,0.0,0.0,0.0,0.0,0.0,0.0,0.0,0.0,0.0,0.0,0.0,-5.2555,-5.2969,0.0,0.0,0.0,0.0,-5.3014,-5.3148,-5.3867,-5.539,-5.5464,-5.6216,-5.7831,-5.7868,-5.7928,-5.8024,-5.8042,-5.8047,-5.807,-5.8526,-5.8755,-5.8796,-5.9693,-5.9641,-5.8868,-5.9362,-5.9088,-5.83,-5.8261,-5.7261,-5.5684,-5.478,-5.3933,-5.3299,-5.4126,-5.4434,-5.4549,-5.5357,-5.5645,-5.5429,-5.4142,-5.2399,-5.0869,-5.1211,-5.0705,0.0,0.0,-5.1261,-5.205,-5.2876,-5.3115,-5.3148,-5.3185,-5.3185,-5.3185,-5.3185,-5.2013,-5.0875,0.0,-5.0697,-4.987,-4.7353,0.0,-4.693,-4.6893,-4.6966,-4.7333,-4.8141,-4.8269,-4.8306,-4.8306,-4.8306,-4.8306,-4.8306,-4.759,-4.748,-4.8251,-4.7535,-4.7113,-4.7132,-4.6583,-4.5568,-4.4087,-4.3123,0.0,0.0,0.0,0.0,0.0,0.0,0.0,0.0,0.0,0.0,0.0,0.0,0.0,0.0,0.0,0.0,0.0,0.0,0.0,0.0,0.0,0.0,0.0,0.0,0.0,0.0,0.0,0.0,-5.2424,-5.3361,0.0,-5.2624,-5.3656,-5.4291,-5.4059,-5.5441,-5.6547,-5.7097,-5.7134,-5.7409,-5.7978,-5.7997,-5.7997,-5.7997,-5.7997,-5.7997,-5.7997,-5.8168,-5.8397,-5.8696,-5.8503,-5.811,-5.7595,-5.8066,-5.7363,-5.5917,-5.674,-5.6858,-5.6445,-5.5588,-5.5068,-5.4857,-5.5164,-5.5261,-5.5299,-5.5588,-5.5703,-5.553,-5.4562,-5.3378,-5.2343,-5.2502,-5.235,-5.2125,-5.2312,-5.2564,-5.2839,-5.3133,-5.3185,-5.3057,-5.2546,-5.2435,-5.2289,-5.1775,-5.1206,-5.0655,-5.0123,-4.9572,-4.8581,-4.6673,-4.7205,-4.7516,-4.6489,-4.7223,-4.7994,-4.8269,-4.8306,-4.8104,-4.7571,-4.7516,-4.7314,-4.6801,-4.6489,-4.6452,-4.6746,-4.6489,-4.6342,-4.6342,-4.5659,-4.5144,-4.4786,-4.3436,-4.1855,0.0,0.0,0.0,0.0,0.0,0.0,0.0,0.0,0.0,0.0,0.0,0.0,0.0,0.0,0.0,0.0,0.0,0.0,0.0,0.0,0.0,0.0,0.0,0.0,0.0,0.0,-5.2822,-5.2035,-5.3268,-5.3742,-5.2678,-5.4247,-5.533,-5.5303,-5.6752,-5.7726,-5.7997,-5.7997,-5.7997,-5.7997,-5.7997,-5.7997,-5.7997,-5.7997,-5.7997,-5.7997,-5.7997,-5.8017,-5.8055,-5.7664,-5.7061,-5.6282,-5.6758,-5.6031,-5.4572,-5.5416,-5.5919,-5.6103,-5.5665,-5.5501,-5.5501,-5.5501,-5.5501,-5.5462,-5.5194,-5.4891,-5.4526,-5.3714,-5.2977,-5.2399,-5.2399,-5.2582,-5.2747,-5.2472,-5.2601,-5.2729,-5.2472,-5.2399,-5.227,-5.172,-5.1591,-5.1444,-5.093,-5.0582,-5.0233,-4.9702,-4.9132,-4.8306,-4.6948,-4.737,-4.7443,-4.6104,-4.6819,-4.7388,-4.7131,-4.7333,-4.7297,-4.6746,-4.6691,-4.6489,-4.5957,-4.5388,-4.5314,-4.5865,-4.5388,-4.5204,-4.548,-4.4727,-4.4131,-4.3818,-4.259,-4.1531,-4.0667,0.0,0.0,0.0,0.0,0.0,0.0,0.0,0.0,0.0,0.0,0.0,0.0,0.0,0.0,0.0,0.0,0.0,0.0,0.0,0.0,0.0,0.0,0.0,-5.1219,-5.1877,-5.208,-5.1369,-5.2604,-5.3494,-5.351,-5.4173,-5.5238,-5.6739,-5.6887,-5.7209,-5.7973,-5.7997,-5.7997,-5.7997,-5.7997,-5.7997,-5.7997,-5.7997,-5.7997,-5.7997,-5.796,-5.7556,-5.6826,-5.7221,-5.6514,-5.5006,-5.5454,-5.5201,-5.4471,-5.4471,-5.4487,-5.4519,-5.4919,-5.5075,-5.5075,-5.5075,-5.5056,-5.4922,-5.4129,-5.3275,-5.2416,-5.1651,-5.1139,-5.0802,-5.0802,-5.1334,-5.1793,-5.1022,-5.1353,-5.1775,-5.1004,-5.0802,-5.0802,-5.0765,-5.0765,-5.0765,-5.0729,-5.0105,-4.9555,-4.9555,-4.9537,-4.9262,-4.8416,-4.7608,-4.6819,-4.6012,-4.5902,0.0,-4.4838,-4.5424,-4.5883,-4.581,-4.5792,-4.5792,-4.5737,-4.4306,-4.4104,-4.57,-4.4342,-4.3829,-4.4635,-4.3901,-4.2763,-4.1205,-4.0619,-4.0875,-4.1977,0.0,0.0,0.0,0.0,0.0,0.0,0.0,0.0,0.0,0.0,0.0,0.0,0.0,0.0,0.0,0.0,0.0,0.0,0.0,0.0,0.0,-5.0896,-5.2012,-5.2012,-5.2672,-5.3095,-5.2909,-5.3247,-5.3517,-5.3494,-5.4175,-5.4999,-5.5948,-5.6571,-5.7209,-5.7973,-5.7997,-5.7997,-5.7997,-5.7997,-5.7997,-5.7997,-5.7997,-5.7997,-5.7997,-5.7409,-5.7024,-5.6767,-5.573,-5.5002,-5.4562,-5.4391,-5.4038,-5.3583,-5.3869,-5.3995,-5.4031,-5.4484,-5.4655,-5.4655,-5.4655,-5.4258,-5.361,-5.2807,-5.2156,-5.1689,-5.1465,-5.1139,-5.0802,-5.0802,-5.0949,-5.1077,-5.0857,-5.0967,-5.1077,-5.0857,-5.0802,-5.0655,-5.0068,-4.9941,-4.9776,-4.9132,-4.882,-4.8655,-4.8655,-4.8196,-4.77,-4.7461,-4.7241,-4.6819,-4.6012,-4.5902,0.0,-4.5608,-4.5755,-4.5334,-4.3813,-4.3648,-4.3224,-4.2221,-4.1717,-4.2071,-4.3482,-4.3156,-4.3196,-4.3792,-4.3608,-4.3277,-4.2837,-4.1752,-4.1324,0.0,0.0,0.0,0.0,0.0,0.0,0.0,0.0,0.0,0.0,0.0,0.0,0.0,0.0,0.0,0.0,0.0,0.0,0.0,0.0,0.0,0.0,-5.1826,-5.2807,-5.2807,-5.3213,-5.3501,-5.3501,-5.3501,-5.3501,-5.3501,-5.3881,-5.4437,-5.5173,-5.5966,-5.6747,-5.7516,-5.7839,-5.7997,-5.7997,-5.7997,-5.7997,-5.7997,-5.7997,-5.7831,-5.7483,-5.7024,-5.6455,-5.5757,-5.484,-5.4216,0.0,-5.3647,-5.3422,-5.3227,-5.3444,-5.3644,0.0,0.0,0.0,0.0,0.0,-5.3276,-5.2558,-5.1579,-5.0972,-5.0602,-5.0231,-4.9934,-4.9756,-4.9756,-5.0013,-5.0215,-4.9866,-5.0013,-5.0196,-4.9848,-4.9756,-4.9627,-4.9169,-4.9058,-4.8912,-4.8416,-4.8049,-4.7791,-4.7791,-4.7168,0.0,-4.614,-4.6085,-4.581,-4.5021,-4.4892,-4.4764,-4.4433,-4.4474,-4.4087,-4.2897,-4.2519,-4.2045,-4.1215,-4.0858,0.0,0.0,0.0,-4.1957,-4.2283,-4.2178,0.0,0.0,0.0,0.0,0.0,0.0,0.0,0.0,-4.1479,-4.1261,0.0,0.0,0.0,0.0,0.0,0.0,0.0,0.0,0.0,0.0,0.0,0.0,0.0,0.0,0.0,0.0,-5.2553,-5.3501,-5.3501,-5.3501,-5.3501,-5.3501,-5.3501,-5.3501,-5.3501,-5.3501,-5.3799,-5.4527,-5.5291,-5.6049,-5.6861,0.0,0.0,0.0,0.0,-5.7997,-5.7997,-5.7905,-5.7519,-5.6804,-5.662,-5.5794,-5.4399,-5.4308,-5.3885,-5.3185,-5.3185,-5.3185,-5.3185,-5.3093,-5.3219,-5.3479,-5.3702,-5.374,-5.3553,-5.2698,-5.21,-5.1562,-5.0378,0.0,0.0,-4.8545,-4.8306,-4.8306,-4.8306,-4.8838,-4.9279,-4.8526,-4.8857,-4.928,-4.8508,-4.8306,-4.8306,-4.8306,-4.8306,-4.8288,-4.8196,-4.759,-4.7076,-4.6984,-4.6324,-4.5535,-4.4837,-4.4691,-4.4433,-4.3608,-4.3515,-4.3239,-4.2525,-4.2577,-4.2638,-4.249,0.0,0.0,-4.1476,-4.0817,-4.0785,-4.1633,-4.1092,-4.0739,-4.0739,-4.051,-4.076,-4.152,-4.1356,-4.2016,-4.3515,-4.3515,-4.3515,-4.344,-4.1064,-4.0595,0.0,0.0,0.0,0.0,0.0,0.0,0.0,0.0,0.0,0.0,0.0,0.0,0.0,0.0,0.0,-5.1881,-5.2892,-5.3501,-5.3501,-5.3501,-5.3501,-5.3501,-5.3501,-5.3501,-5.3501,-5.3501,-5.3799,-5.4527,-5.5291,-5.6049,-5.6861,-5.7589,-5.7997,-5.7997,-5.7997,-5.7997,-5.7997,-5.7373,-5.695,-5.6785,0.0,0.0,-5.4381,-5.3739,-5.3353,-5.3185,-5.3185,-5.3185,-5.3148,-5.2509,-5.1891,-5.1535,-5.3162,-5.3404,-5.2697,-5.156,-5.07,-4.9942,-4.899,-4.8603,-4.8526,-4.8361,-4.8306,-4.8306,-4.8306,-4.8416,0.0,-4.8361,-4.8416,-4.8508,-4.8343,-4.8306,-4.8306,-4.8306,-4.8306,-4.8122,-4.7461,-4.7204,-4.6911,-4.6269,-4.548,-4.4892,-4.4728,-4.4691,-4.4433,-4.3608,-4.3515,-4.3441,-4.3277,-4.2941,-4.2286,-4.1187,-4.0555,-3.9997,-3.9593,-3.9385,-3.9804,-4.0989,-4.1372,-4.1559,-4.1559,-4.1523,-4.179,-4.2439,-4.2409,-4.2759,-4.3515,-4.3515,-4.3515,-4.3496,-4.2969,-4.2873,0.0,0.0,0.0,0.0,0.0,0.0,0.0,0.0,0.0,0.0,0.0,-4.6188,-4.7882,0.0,-5.0523,-5.1873,-5.2892,-5.3501,-5.3501,-5.3501,-5.3501,-5.3501,-5.3501,-5.3501,-5.3501,-5.3501,-5.3634,-5.4027,-5.4743,-5.5495,-5.6259,-5.7022,-5.7613,-5.7997,-5.7611,-5.7409,-5.7409,-5.6602,-5.5996,-5.5592,-5.4785,-5.4197,-5.3794,-5.339,-5.3185,-5.3185,-5.3185,-5.2968,-5.2548,-5.1947,-5.1471,-5.1194,-5.2196,-5.2215,-5.1581,-5.0572,-4.9959,-4.9482,-4.86,-4.8306,-4.8306,-4.8306,-4.8306,-4.8306,-4.8306,-4.8306,-4.8306,-4.8306,-4.8306,-4.8306,-4.8306,-4.8306,-4.8306,-4.8306,-4.7975,-4.759,-4.7186,-4.647,-4.5773,-4.5388,-4.4654,-4.4103,-4.4103,-4.4103,-4.3956,-4.3552,-4.3515,-4.3515,-4.3515,-4.2771,-4.1981,-4.1321,-4.0457,-3.9846,-3.9579,-3.9554,-3.9814,-4.0456,-4.0791,-4.0938,-4.0938,-4.0852,-4.1078,-4.1631,-4.1947,-4.2359,-4.2892,-4.3313,-4.3515,-4.3515,-4.3515,-4.3515,0.0,0.0,0.0,0.0,0.0,0.0,0.0,-4.0443,-4.121,-4.2697,-4.3811,-4.5237,-4.7561,-4.8686,-4.986,-5.1625,-5.2627,-5.3264,-5.3467,-5.3501,-5.3501,-5.3501,-5.3501,-5.3501,-5.3501,-5.3501,-5.3501,-5.3501,-5.4186,-5.4922,-5.5649,-5.6304,-5.6998,-5.7735,-5.6987,-5.6565,-5.6565,-5.5757,-5.5042,-5.4399,-5.4234,-5.383,-5.3185,-5.3185,-5.3185,-5.3185,-5.3041,-5.2417,-5.1503,-5.1195,-5.0951,-5.0802,-5.0802,-5.0601,-5.027,-4.9794,-4.954,-4.936,-4.866,-4.8421,-4.8421,-4.8421,-4.8364,-4.8306,-4.8306,-4.8306,-4.8306,-4.8306,-4.8306,-4.8306,-4.8306,-4.8196,-4.8086,-4.8086,-4.7443,-4.6819,-4.6672,-4.5608,-4.4636,-4.4507,-4.3938,-4.3515,-4.3515,-4.3515,-4.3515,-4.3515,-4.3515,-4.3515,-4.3515,-4.2503,-4.181,-4.181,-4.0767,-4.0096,-4.0096,-4.0096,-4.0096,-4.0096,-3.9977,-3.996,-4.0096,-3.9903,-4.0062,-4.0577,-4.1344,-4.1923,-4.2304,-4.3112,-4.3515,-4.3515,-4.3515,-4.3515,-4.0044,-3.8652,-3.8313,-3.9704,-3.9563,-3.9738,0.0,-4.2173,-4.2116,-4.4574,-4.5176,-4.5991,-4.826,-4.8783,-4.9544,-5.1561,-5.1993,-5.24,-5.3382,-5.3501,-5.3501,-5.3501,-5.3501,-5.3501,-5.3501,-5.3501,-5.3501,-5.3501,-5.4186,-5.4922,-5.5649,-5.5784,-5.6182,-5.6909,-5.6143,-5.5721,-5.5721,-5.4932,-5.4491,-5.4399,-5.3683,-5.3277,-5.3185,-5.3185,-5.3185,-5.317,-5.2435,-5.1261,-4.9849,-4.9816,-4.9339,-4.8659,-4.8659,-4.862,-4.8655,-4.9353,-4.9326,-4.8959,-4.8866,-4.8829,-4.8829,-4.8829,-4.8586,-4.8306,-4.8306,-4.8306,-4.8306,-4.8306,-4.8306,-4.8306,-4.8306,-4.7755,-4.7223,-4.7223,-4.6636,-4.5847,-4.5131,-4.4819,-4.4488,-4.3754,-4.3552,-4.3515,-4.3515,-4.3515,-4.3515,-4.3515,-4.3515,-4.3515,-4.3515,-4.2503,-4.181,-4.181,-4.0767,-4.0096,-4.0096,-4.0096,-4.0096,-4.0096,-3.9503,-3.9436,-4.0079,-3.9903,-4.0062,-4.0577,-4.1898,-4.2486,-4.2304,-4.3112,-4.3515,-4.3515,-4.3515,-4.3515,-4.0016,-3.8611,-3.7705,-3.6685,-3.7518,-3.8687,-3.896,-4.0101,-4.147,-4.2897,-4.4349,-4.5705,-4.6652,-4.7924,-4.9094,-4.9938,-5.1101,-5.2082,-5.2522,-5.311,-5.3501,-5.3501,-5.3501,-5.3501,-5.3501,-5.3501,-5.3501,-5.3501,-5.3341,-5.3797,-5.4994,-5.4235,-5.4304,-5.5479,-5.4316,-5.3857,-5.4272,-5.3449,-5.3261,-5.3702,-5.3371,-5.3185,-5.3185,-5.3185,-5.2949,-5.2454,-5.1646,-5.0637,-4.9555,-4.904,-4.8636,-4.8306,-4.8306,-4.8306,-4.8343,-4.871,-4.8864,-4.8897,-4.8897,-4.8897,-4.8897,-4.8897,-4.864,-4.8306,-4.8306,-4.8306,-4.8306,-4.8306,-4.7957,-4.759,-4.759,-4.6984,-4.6323,-4.602,-4.5552,-4.5022,-4.438,-4.4108,-4.3901,-4.357,-4.3515,-4.3515,-4.3515,-4.3515,-4.3245,-4.245,-4.301,-4.3515,-4.3515,-4.2503,-4.1552,-4.0885,-4.001,-3.9469,-3.9469,-3.9056,-3.8819,-3.8819,-3.8531,-3.8497,-3.8802,-3.8591,-3.8715,-3.9254,-4.0141,-4.0707,-4.091,-4.1717,-4.2103,-4.2121,-4.258,-4.2543,-3.9155,-3.7873,-3.6568,-3.4227,-3.5544,-3.7148,-3.5944,-3.7833,-4.0113,-4.085,-4.2793,-4.4595,-4.5252,-4.6768,-4.805,-4.8702,-5.0304,-5.1578,-5.1849,-5.2818,-5.3501,-5.3501,-5.3501,-5.3501,-5.3501,-5.3501,-5.3501,-5.3501,-5.2959,-5.3116,-5.4246,-5.306,-5.2852,-5.3928,-5.2653,-5.2197,-5.27,-5.2288,-5.2358,-5.2915,-5.3103,-5.3185,-5.3185,-5.2968,-5.2435,-5.161,-5.082,-4.9994,-4.9206,-4.8563,-4.8306,-4.8306,-4.8306,-4.8306,-4.8306,-4.8306,-4.8604,-4.9043,-4.8947,-4.898,-4.9043,-4.8947,-4.864,-4.8306,-4.8306,-4.8306,-4.8306,-4.8306,-4.7718,-4.7057,-4.6924,-4.6231,-4.5443,-4.4912,-4.4544,-4.4271,-4.3868,-4.3634,-4.3515,-4.3515,-4.3515,-4.3444,-4.3303,-4.3268,-4.2887,-4.175,-4.223,-4.2723,-4.2741,-4.2042,-4.1086,-3.9932,-3.9334,-3.892,-3.87,-3.821,-3.7905,-3.7905,-3.7719,-3.774,-3.8074,-3.7871,-3.7965,-3.8478,-3.9247,-3.9735,-3.99,-4.0726,-4.1095,-4.1113,-4.1699,-4.1645,-3.6348,-3.4785,-3.338,-3.3119,-3.3787,-3.465,-3.5186,-3.6507,-3.7935,-3.9191,-4.0639,-4.2461,-4.4918,-4.5448,-4.6211,-4.844,-4.9734,-5.0779,-5.176,-5.2818,-5.3501,-5.3501,-5.3501,-5.3501,0.0,-5.3501,-5.3501,-5.3501,-5.3484,-5.3491,-5.3519,-5.2753,-5.2323,-5.236,-5.1572,-5.1147,-5.1173,-5.1783,-5.2112,-5.2136,-5.2853,-5.3185,-5.3167,-5.238,-5.1591,-5.0784,-4.9996,-4.9132,-4.8343,-4.8324,-4.8306,-4.8306,-4.8306,-4.8306,-4.8306,-4.8306,-4.8796,-4.9431,-4.9046,-4.9155,-4.9416,-4.9046,-4.864,-4.8306,-4.8306,-4.8306,-4.8306,-4.8306,-4.7718,-4.6981,-4.6454,-4.5527,-4.4601,-4.4058,-4.3724,-4.3534,-4.3534,-4.3516,-4.3515,-4.3515,-4.3515,-4.3321,-4.2826,-4.2713,-4.2519,-4.1881,-4.1218,-4.0778,-4.0763,-4.0863,-4.0451,-3.9163,-3.9005,-3.87,-3.799,-3.7922,-3.7905,-3.7905,-3.7212,-3.7371,-3.8528,-3.8447,-3.8572,-3.8959,-4.0333,-4.0655,-3.99,-4.0726,-4.1095,-4.1095,-4.1132,-4.1113,-3.4635,-3.3467,-3.2648,-3.1464,-3.2374,-3.3596,-3.3813,-3.5715,-3.7613,-3.804,-3.9677,-4.1544,-4.319,-4.426,-4.5361,-4.6873,-4.8399,-4.9734,-5.0741,-5.1776,-5.2714,-5.3433,-5.3501,0.0,0.0,0.0,0.0,-5.3501,-5.2553,-5.2194,-5.2671,-5.1066,-5.0334,-5.0811,-5.0088,-4.9907,-5.038,-5.0591,-5.1172,-5.2112,-5.2853,-5.3185,-5.3167,-5.2362,-5.1555,-5.0765,-4.9939,-4.9095,-4.8306,-4.8306,-4.8306,-4.8306,-4.8306,-4.8306,-4.8306,-4.8306,-4.864,-4.9075,-4.8947,-4.8996,-4.9075,-4.8947,-4.864,-4.8306,-4.8306,-4.8306,-4.8196,-4.7645,-4.6911,-4.614,-4.5424,-4.4565,-4.3777,-4.3243,-4.3306,-4.3285,-4.2542,-4.2959,-4.3392,-4.3032,-4.2976,-4.292,-4.2731,-4.2362,-4.1739,-4.0631,-4.0591,-4.0365,-3.9497,-3.9417,-3.9141,-3.835,-3.7821,-3.7455,-3.7178,-3.6688,-3.636,-3.636,-3.6146,-3.6365,-3.7119,-3.7085,-3.7447,-3.8256,-3.8734,-3.9006,-3.9093,-3.9386,-3.9515,-3.9517,-4.0065,-4.0029,-3.4641,-3.3787,-3.315,-3.1435,-3.2066,-3.2964,-3.2416,-3.4615,-3.6703,-3.6703,-3.8545,-4.0455,-4.1666,-4.3022,-4.4247,-4.5182,-4.7069,-4.8816,-4.9898,-5.0913,-5.2049,-5.3349,-5.3501,-5.3501,0.0,0.0,0.0,-5.3501,-5.2587,-5.1995,-5.1911,-5.0574,-4.9763,-4.9712,-4.9255,-4.9212,-4.9652,-4.9879,-5.0716,-5.2112,-5.2853,-5.3059,-5.2747,-5.194,-5.1132,-5.0325,-4.9499,-4.882,-4.8306,-4.8306,-4.8306,-4.8306,-4.8306,-4.8306,-4.8306,-4.8306,-4.8458,-4.8692,-4.8692,-4.8779,-4.888,-4.8727,-4.8513,-4.8306,-4.8306,-4.8104,-4.7755,-4.7241,-4.6305,-4.5315,-4.4601,-4.3961,-4.3356,-4.2826,-4.2958,-4.2995,-4.2284,-4.2523,-4.2791,-4.2442,-4.2167,-4.191,-4.1711,-4.0961,-4.0016,-3.8889,-3.9063,-3.9086,-3.8498,-3.8413,-3.8168,-3.7564,-3.7083,-3.6694,-3.64,-3.591,-3.56,-3.56,-3.56,-3.5941,-3.6664,-3.6498,-3.6962,-3.8167,-3.7997,-3.8167,-3.8707,-3.8707,-3.8707,-3.8707,-3.9239,-3.9184,-3.6141,-3.5563,-3.4782,-3.3052,-3.2947,-3.2866,-3.1506,-3.335,-3.5442,-3.5474,-3.73,-3.9332,-4.0654,-4.1882,-4.2968,-4.3574,-4.6003,-4.8168,-4.9222,-5.0261,-5.1499,-5.323,-5.3467,0.0,0.0,0.0,0.0,-5.3501,0.0,-5.2756,-5.1302,-5.1117,-5.0456,-4.9052,-4.9001,-4.9001,-4.9001,-4.9664,-5.0672,-5.2,-5.2733,-5.2687,-5.1917,-5.1094,-5.0306,-4.9555,-4.8673,-4.8306,-4.8306,-4.8306,-4.8306,-4.8306,-4.8306,-4.8306,-4.8306,-4.8306,-4.8306,-4.8306,-4.8306,-4.855,-4.8813,-4.8421,-4.8306,-4.8306,-4.8306,-4.7736,-4.7094,-4.7058,-4.5902,-4.4565,-4.4025,-4.3688,-4.3356,-4.2826,-4.2711,-4.2674,-4.2616,-4.2183,-4.1789,-4.175,-4.117,-4.0454,-3.981,-3.8664,-3.7601,-3.6914,-3.6761,-3.6975,-3.7702,-3.7787,-3.7516,-3.6812,-3.6745,-3.6417,-3.565,-3.56,-3.56,-3.56,-3.5622,-3.6101,-3.7171,-3.6684,-3.7133,-3.8658,-3.815,-3.815,-3.8707,-3.8707,-3.8707,-3.8707,-3.8707,-3.8707,-3.6366,-3.6742,-3.7321,-3.6178,-3.5664,-3.5287,-3.4913,-3.5956,-3.7056,-3.7512,-3.8654,-4.005,-4.1667,-4.2745,-4.3704,-4.4704,-4.6289,0.0,-4.8789,-4.9878,-5.096,-5.2172,-5.3025,-5.3501,-5.3501,-5.3501,0.0,0.0,-5.2452,-5.1623,-5.1202,-5.0168,-4.939,-4.9018,-4.9001,-4.9001,-4.9001,-4.9664,-5.0185,-5.0537,-5.1173,-5.1384,-5.1167,-5.0307,-4.9794,-4.9555,-4.8673,-4.8306,-4.8306,-4.8306,-4.8306,-4.8306,-4.8306,-4.8306,-4.8306,-4.8306,-4.8306,-4.8306,-4.8306,-4.8364,-4.8439,-4.8326,-4.8306,-4.8306,-4.8306,-4.7736,-4.6984,-4.6379,-4.548,-4.4526,-4.3797,-4.3556,-4.3356,-4.2826,-4.2711,-4.246,-4.1556,-4.1599,-4.1664,-4.1223,-4.0523,-3.9666,-3.8566,-3.7668,-3.7032,-3.6829,-3.6282,-3.5955,-3.6157,-3.6174,-3.6107,-3.5943,-3.591,-3.5802,-3.5616,-3.56,-3.56,-3.56,-3.5985,-3.6501,-3.7154,-3.6684,-3.7133,-3.8658,-3.7826,-3.7808,-3.8707,-3.8707,-3.8707,-3.8707,-3.8707,-3.8707,-3.7605,-3.8614,-3.9834,-3.8916,-3.8731,-3.8415,-3.7084,-3.7903,-3.8936,-3.8951,-3.996,-4.109,-4.211,-4.3339,-4.4172,-4.4135,-4.5667,-4.7214,-4.8229,-4.926,-5.0462,-5.1763,-5.2835,0.0,-5.3501,-5.3179,-5.2976,0.0,-5.2181,-5.1555,-5.1202,-5.0118,-4.9323,-4.9018,-4.9001,-4.9001,-4.9001,-4.9337,-4.953,-4.9513,-4.9852,-4.9988,-4.9875,-4.9392,-4.9096,-4.9003,0.0,-4.8306,-4.8306,-4.8306,-4.8306,-4.8306,-4.8306,-4.8306,-4.8306,-4.8306,-4.8306,-4.8306,-4.8306,-4.8306,-4.8306,-4.8306,-4.8306,-4.8233,-4.7865,-4.7204,-4.6416,-4.5608,-4.48,-4.4066,-4.3608,-4.3515,-4.3356,-4.2826,-4.25,-4.2059,-4.111,-4.099,-4.077,-3.9782,-3.9249,-3.8516,-3.7123,-3.6552,-3.6265,-3.6265,-3.5893,-3.56,-3.56,-3.56,-3.56,-3.56,-3.56,-3.56,-3.56,-3.56,-3.56,-3.56,-3.5876,-3.6395,-3.7171,-3.6684,-3.7133,-3.8658,-3.7912,-3.7912,-3.8707,-3.8707,-3.8707,-3.8707,-3.8707,-3.8707,-3.9173,-4.0713,-4.2304,-4.1549,-4.2024,-4.1937,-3.9132,-3.9888,-4.101,-4.0411,-4.1369,-4.2397,-4.2619,-4.4102,-4.4832,-4.3372,-4.5033,-4.6796,-4.7635,-4.8779,-5.007,-5.1532,-5.2765,-5.3467,-5.3348,-5.2706,-5.2266,-5.2164,-5.2063,-5.1742,-5.1099,-5.0355,-4.9661,-4.9018,-4.9001,-4.8951,-4.8849,-4.8786,-4.8715,-4.8622,-4.8617,-4.849,-4.8335,-4.8313,-4.8203,-4.8037,-4.8152,0.0,-4.8191,-4.8267,-4.8306,-4.8306,-4.8306,-4.8306,-4.8306,-4.8306,-4.8306,-4.8306,-4.8306,-4.8306,-4.8306,-4.8306,-4.8306,-4.8159,-4.7333,-4.6526,-4.5736,-4.4947,-4.4121,-4.3515,-4.3515,-4.3444,-4.325,-4.2713,-4.2121,-4.1512,-4.0903,-4.0356,-3.9554,-3.8176,-3.7821,-3.7313,-3.5853,-3.56,-3.56,-3.56,-3.56,-3.56,-3.56,-3.56,-3.56,-3.56,-3.56,-3.56,-3.56,-3.56,-3.56,-3.56,-3.5667,-3.6143,-3.7171,-3.6744,-3.7209,-3.8658,-3.8183,-3.8167,-3.8707,-3.8707,-3.8707,-3.8707,-3.8707,-3.8707,-3.976,-4.199,-4.4427,-4.4834,-4.5258,-4.5262,-4.4124,-4.3793,-4.36,-4.3385,-4.3578,-4.4128,-4.5269,-4.6224,-4.6661,-4.6069,-4.6797,-4.7441,-4.7395,-4.9019,-5.033,-5.0627,-5.2329,-5.3247,-5.257,-5.2384,0.0,0.0,-5.0828,-5.0422,-5.0287,-4.9593,-4.9137,-4.9001,-4.9001,-4.8714,-4.8091,-4.8073,-4.7772,-4.7172,-4.7047,-4.6986,-4.6933,-4.683,-4.6765,-4.6756,-4.732,0.0,-4.7593,-4.8094,-4.8306,-4.8306,-4.8306,-4.8306,-4.8306,-4.8306,-4.8306,-4.8306,-4.8306,-4.8306,-4.8306,-4.8306,-4.8306,-4.8159,-4.7333,-4.6526,-4.5736,-4.4947,-4.4121,-4.3515,-4.3515,-4.3178,-4.2693,-4.2101,-4.149,-4.092,-4.036,-3.9696,-3.892,-3.8075,-3.7398,-3.6688,-3.5752,-3.56,-3.56,-3.56,-3.56,-3.56,-3.56,-3.56,-3.56,-3.56,-3.56,-3.56,-3.56,-3.56,-3.56,-3.56,-3.6028,-3.6542,-3.7173,-3.7097,-3.7578,-3.8692,-3.8183,-3.8167,-3.8707,-3.8707,-3.8707,-3.8707,-3.8707,-3.8707,-4.0702,-4.312,-4.5678,-4.6371,-4.7391,-4.7972,-4.6689,-4.6158,-4.5824,-4.5371,-4.5341,-4.5555,-4.6248,-4.7241,-4.7587,-4.6539,-4.7123,-4.7846,-4.8267,-4.9513,-5.0589,-5.1117,-5.2191,-5.2723,-5.2334,-5.1606,-5.0997,-5.0659,-4.9932,-4.9695,-5.0067,-4.9407,-4.9001,-4.9001,-4.9001,-4.8663,-4.7889,-4.753,-4.6972,-4.621,-4.5766,-4.5738,-4.6031,-4.6295,-4.6594,-4.6932,-4.7259,0.0,-4.7385,-4.7324,-4.7512,-4.7818,-4.7818,-4.8017,-4.8306,-4.8306,-4.8306,-4.8306,-4.8306,-4.8306,-4.8306,-4.8306,-4.8306,-4.8086,-4.6856,-4.6214,-4.5645,-4.4415,-4.3791,-4.3515,-4.3515,-4.3303,-4.2902,-4.2021,-4.1127,-4.0314,-3.9655,-3.9242,-3.8667,-3.7533,-3.7049,-3.6535,-3.5735,-3.56,-3.56,-3.56,-3.56,-3.56,-3.56,-3.56,-3.56,-3.56,-3.56,-3.56,-3.56,-3.5871,-3.5898,-3.5622,-3.6097,-3.6519,-3.6764,-3.6783,-3.7248,-3.8267,-3.8013,-3.8167,-3.8707,-3.8707,-3.8707,-3.8707,-3.8707,-3.8707,-4.1423,-4.3845,-4.637,-4.7028,-4.8751,-4.9886,-4.8171,-4.7899,-4.7757,-4.6856,-4.6572,-4.6583,-4.6774,-4.7571,-4.7835,-4.6604,-4.7104,-4.8056,-4.9164,-4.9973,-5.0843,-5.1796,-5.2132,0.0,-5.208,-5.0862,0.0,-4.9864,-4.9323,0.0,-4.9813,-4.9306,-4.8934,-4.8781,-4.8765,-4.8342,-4.7432,-4.6853,-4.6264,-4.5643,-4.5075,-4.5052,-4.552,-4.6119,-4.6618,-4.7017,-4.7128,0.0,0.0,-4.6618,-4.671,-4.7194,-4.7342,-4.7695,-4.8114,-4.8267,-4.8306,-4.8306,-4.8306,-4.8306,-4.8269,-4.8104,-4.8049,-4.7774,-4.6342,-4.5773,-4.5333,-4.39,-4.3515,-4.3515,-4.3515,-4.3321,-4.2847,-4.1707,-4.0623,-3.9706,-3.9123,-3.8734,-3.82,-3.7032,-3.666,-3.6332,-3.5701,-3.56,-3.56,-3.56,-3.56,-3.56,-3.56,-3.56,-3.56,-3.56,-3.56,-3.5644,-3.5761,-3.6161,-3.6224,-3.5805,-3.6161,-3.6395,-3.6395,-3.6395,-3.6825,-3.7737,-3.7842,-3.8099,-3.853,-3.8643,-3.8707,-3.8707,-3.8707,-3.8707,-4.1402,-4.3845,-4.637,-4.7028,-4.9132,-5.0601,-4.9028,-4.915,-4.921,-4.7863,-4.7054,-4.6824,-4.7631,-4.7325,-4.7038,-4.7342,-4.7453,-4.7944,-4.9144,-5.0132,-5.1056,-5.1803,0.0,0.0,-5.1386,-5.0574,-4.9813,-4.9154,-4.9035,0.0,-4.9103,-4.9035,-4.8697,-4.8007,-4.799,-4.7344,-4.5923,-4.5838,-4.5721,-4.5528,-4.5442,-4.5433,-4.552,-4.6119,-4.6119,-4.5699,-4.624,0.0,0.0,-4.643,-4.6454,-4.6548,-4.7172,-4.7428,-4.7551,-4.8094,-4.8306,-4.8306,-4.8306,-4.8306,-4.8196,-4.7443,-4.7204,-4.7039,-4.6177,-4.5388,-4.4635,-4.3736,-4.3515,-4.3515,-4.3515,-4.2734,-4.1664,-4.0538,-3.9662,-3.9073,-3.9005,-3.7963,-3.6965,-3.6829,-3.6214,-3.5684,-3.5616,-3.56,-3.56,-3.56,-3.56,-3.56,-3.56,-3.56,-3.56,-3.56,-3.56,-3.5805,-3.6287,-3.6354,-3.6374,-3.6312,-3.6374,-3.6395,-3.6395,-3.6395,-3.6664,-3.7248,-3.7685,-3.7911,-3.798,-3.8465,-3.8707,-3.8707,-3.8707,-3.8707,-4.2279,-4.4365,-4.637,-4.7028,-4.8819,-5.0189,-4.952,-4.9212,-4.8802,-4.7829,-4.7091,-4.6603,-4.6564,-4.6701,-4.6853,-4.7044,0.0,0.0,-4.9556,-5.0378,-5.1144,-5.2048,-5.1832,-5.1539,0.0,0.0,-4.9323,-4.9018,-4.9001,0.0,-4.9001,-4.9001,-4.8663,-4.7906,-4.7889,-4.7179,-4.572,-4.6071,-4.5998,-4.5494,-4.5865,-4.6039,-4.6046,-4.6728,-4.6864,-4.6659,-4.6887,0.0,0.0,-4.6014,-4.584,-4.5865,-4.6161,-4.6728,-4.7428,-4.7656,-4.7977,-4.8306,-4.8306,-4.7994,-4.7516,-4.7204,-4.6434,-4.559,-4.5278,-4.4947,-4.4544,-4.3718,-4.3515,-4.3515,-4.3515,-4.2639,-4.1703,-4.1218,-4.0044,-3.887,-3.843,-3.754,-3.666,-3.618,-3.5802,-3.56,-3.56,-3.56,-3.56,-3.56,-3.56,-3.56,-3.56,-3.56,-3.56,-3.56,-3.56,-3.5827,-3.6354,-3.6704,-3.6744,-3.6416,-3.6704,-3.6583,-3.5941,-3.592,-3.6182,-3.6704,-3.7229,-3.7614,-3.7893,-3.8449,-3.8707,-3.8707,-3.8707,-3.8707,-4.268,-4.4588,-4.6317,-4.6774,-4.8277,-4.957,-4.943,-4.9001,-4.8465,-4.7968,-4.7153,-4.6421,-4.6037,-4.6237,-4.6464,0.0,0.0,-4.8143,-4.9567,-5.0242,-5.0926,-5.1879,0.0,-5.0879,0.0,-4.9746,-4.9001,-4.9001,0.0,0.0,-4.9001,-4.8798,-4.8342,-4.7614,-4.7581,-4.687,-4.5382,-4.5969,-4.6092,-4.5783,-4.6383,-4.6687,-4.671,-4.7385,-4.7572,-4.7385,-4.7194,0.0,0.0,-4.5563,-4.5232,-4.5258,-4.5433,-4.6161,-4.7128,-4.7342,-4.7777,-4.8269,-4.8031,-4.7571,-4.7021,-4.6544,-4.5608,-4.4672,-4.4415,-4.436,-4.4232,-4.3644,-4.3515,-4.3462,-4.3303,-4.2542,-4.1768,-4.1578,-4.0072,-3.8531,-3.8024,-3.7127,-3.6282,-3.5701,-3.56,-3.56,-3.56,-3.56,-3.56,-3.56,-3.56,-3.56,-3.56,-3.56,-3.56,-3.56,-3.5739,-3.6054,-3.6583,-3.6981,-3.7057,-3.6664,-3.6981,-3.6706,-3.5627,-3.56,-3.5854,-3.6374,-3.6941,-3.7433,-3.7893,-3.8449,-3.8707,-3.8707,-3.8707,-3.8707,-4.233,-4.4326,-4.6208,-4.6208,-4.7569,-4.8874,-4.8743,-4.8638,-4.8594,-4.851,-4.7372,-4.6438,-4.6569,-4.6127,-4.572,-4.572,-4.6925,0.0,-4.8917,-4.9644,-5.0388,0.0,-5.0557,-5.0101,-5.0101,-4.9441,-4.9001,-4.9001,0.0,0.0,-4.9001,-4.8325,-4.7581,-4.6819,-4.6802,-4.6092,-4.4632,-4.5222,-4.5808,-4.6407,-4.7066,-4.7385,-4.7406,-4.8015,-4.7957,0.0,0.0,0.0,0.0,-4.5115,-4.4598,-4.4682,-4.5284,-4.5865,-4.6501,-4.715,-4.7777,-4.8196,-4.7388,-4.7113,-4.6837,-4.5241,-4.4709,-4.4562,-4.3754,-4.3497,-4.3515,-4.3515,-4.3515,-4.3375,-4.2845,-4.2262,-4.1643,-4.1064,-3.9367,-3.7922,-3.7905,-3.6698,-3.56,-3.56,-3.56,-3.56,-3.56,-3.56,-3.56,-3.56,-3.56,-3.56,-3.56,-3.56,-3.56,-3.56,-3.6075,-3.662,-3.7152,-3.7209,-3.7209,-3.7173,-3.7209,-3.6706,-3.5627,-3.56,-3.5854,-3.6374,-3.6941,-3.7433,-3.7893,-3.8449,-3.8707,-3.8707,-3.8707,-3.8707,-4.3329,-4.4582,-4.5636,-4.5636,-4.6494,-4.7314,-4.7283,-4.7536,-4.7637,-4.7153,-4.6725,-4.6286,-4.5909,-4.5357,-4.5263,-4.6278,-4.6836,0.0,0.0,0.0,0.0,-5.1183,-5.0997,-5.0659,0.0,0.0,-4.9001,-4.9001,0.0,0.0,-4.9001,-4.8308,-4.7564,-4.6802,-4.6312,-4.5568,-4.4615,-4.5205,-4.5597,-4.5808,-4.6887,-4.7172,-4.6733,-4.7385,-4.7324,0.0,0.0,0.0,0.0,-4.5355,-4.4971,-4.4626,-4.4814,-4.5511,-4.643,-4.6641,-4.7024,-4.7443,-4.7186,-4.6379,-4.537,-4.4856,-4.4342,-4.3828,-4.3588,-4.3515,-4.3515,-4.3515,-4.3515,-4.3462,-4.3286,-4.2846,-4.2362,-4.2183,-4.0944,-3.9709,-3.9301,-3.8028,-3.6869,-3.6491,-3.5994,-3.56,-3.56,-3.56,-3.56,-3.56,-3.56,-3.56,-3.56,-3.56,-3.56,-3.56,-3.5761,-3.6207,-3.7116,-3.7488,-3.7542,-3.721,-3.7209,-3.6706,-3.5627,-3.56,-3.5854,-3.6374,-3.6941,-3.7433,-3.7893,-3.8449,-3.8707,-3.8707,-3.8707,-3.8707,-4.3922,-4.4685,-4.5399,-4.5399,-4.5812,-4.6323,-4.654,-4.6632,-4.6635,-4.6454,-4.6216,-4.594,-4.5571,-4.522,-4.5213,-4.5855,-4.6667,0.0,0.0,0.0,-5.0896,-5.1183,0.0,0.0,0.0,-4.9424,-4.9001,0.0,0.0,0.0,-4.9001,-4.8054,-4.7276,-4.6802,-4.6075,-4.5348,-4.4615,-4.5205,-4.5511,-4.5494,-4.6524,-4.6801,-4.6413,-4.6824,-4.6778,0.0,0.0,0.0,0.0,-4.5597,-4.5267,-4.4944,-4.5178,-4.5558,-4.5988,-4.6219,-4.6449,-4.6599,-4.6305,-4.5535,-4.4636,-4.436,-4.3901,-4.3515,-4.3515,-4.3515,-4.3515,-4.3515,-4.3357,-4.3196,-4.3196,-4.2771,-4.2362,-4.2362,-4.112,-3.9824,-3.9472,-3.8052,-3.6757,-3.6424,-3.5943,-3.56,-3.56,-3.56,-3.56,-3.56,-3.56,-3.56,-3.56,-3.56,-3.56,-3.56,-3.5783,-3.6165,-3.6843,-3.7173,-3.7193,-3.6921,-3.6902,-3.6501,-3.5644,-3.56,-3.5963,-3.6684,-3.7038,-3.7524,-3.82,-3.8546,-3.8707,-3.8707,-3.8707,-3.8707,0.0,-4.4749,-4.5346,-4.5346,-4.5481,-4.5756,-4.6328,-4.5961,0.0,-4.6216,-4.589,-4.5528,-4.558,-4.5614,-4.5432,-4.4852,-4.6481,-4.753,0.0,-4.8622,-5.0362,0.0,-5.048,0.0,-5.0021,-4.9393,-4.9001,0.0,0.0,0.0,-4.8934,-4.7564,-4.6769,-4.6718,-4.6007,-4.528,-4.4615,-4.5169,-4.5433,-4.5433,-4.6063,-4.6312,-4.6264,-4.6312,-4.6312,0.0,0.0,0.0,0.0,-4.5783,-4.5545,-4.5605,-4.6115,-4.5899,-4.5336,-4.5868,-4.5956,-4.57,-4.493,-4.4636,-4.4488,-4.3736,-4.3515,-4.3515,-4.3515,-4.3515,-4.3479,-4.3444,-4.3069,-4.2692,-4.2635,-4.2203,-4.181,-4.181,-4.0284,-3.8829,-3.8786,-3.7185,-3.5735,-3.5707,-3.5633,-3.56,-3.56,-3.56,-3.56,-3.56,-3.56,-3.56,-3.56,-3.56,-3.56,-3.56,-3.6049,-3.6333,-3.6333,-3.6416,-3.6437,-3.6395,-3.6395,-3.6161,-3.5622,-3.56,-3.6097,-3.7116,-3.721,-3.7738,-3.8707,-3.8707,-3.8707,-3.8707,-3.8707,-3.8707,-4.5173,0.0,-4.4803,-4.4803,-4.4828,-4.4897,0.0,-4.5272,-4.5545,-4.5681,-4.5597,-4.5684,-4.6256,-4.5528,-4.5162,-4.6109,-4.6718,-4.7385,-4.8267,-4.9676,0.0,-4.9879,-4.9824,-4.9574,-4.9094,-4.9013,-4.9001,0.0,0.0,-4.8765,-4.8176,-4.7293,-4.6532,-4.5974,-4.5229,-4.4784,-4.4615,-4.4748,-4.4814,-4.4814,-4.5407,-4.5459,-4.5052,-4.5511,-4.5459,0.0,0.0,0.0,-4.5732,-4.6063,-4.6192,-4.6139,-4.5664,-4.5672,-4.585,-4.4938,-4.4746,-4.4912,-4.4286,-4.3944,-4.3736,-4.3552,-4.3515,-4.3515,-4.3515,-4.3515,-4.341,-4.2995,-4.2807,-4.2596,-4.2142,-4.1916,-4.181,-4.181,-4.1004,-4.0109,-3.9651,-3.8273,-3.702,-3.6599,-3.6028,-3.56,-3.56,-3.56,-3.56,-3.56,-3.56,-3.56,-3.56,-3.56,-3.56,-3.56,-3.5717,-3.5805,-3.5805,-3.6542,-3.6843,-3.6416,-3.6395,-3.6161,-3.5622,-3.56,-3.592,-3.658,-3.7342,-3.8048,-3.8707,-3.8707,-3.8707,-3.8707,-3.8707,-3.8707,-4.4483,-4.4795,-4.5094,-4.5094,-4.5094,-4.5094,-4.5094,-4.508,-4.5089,-4.5089,-4.5089,-4.5083,-4.5111,-4.4752,-4.4593,-4.4977,-4.5824,0.0,0.0,0.0,-4.9106,-4.939,-4.9316,-4.9218,0.0,0.0,0.0,0.0,0.0,-4.868,-4.7922,-4.7192,-4.6464,-4.572,-4.4976,-4.4615,-4.4615,-4.4615,-4.4615,-4.4598,-4.4934,-4.4906,-4.4598,-4.4934,-4.4906,0.0,0.0,0.0,-4.5965,-4.6594,-4.665,-4.6271,-4.5864,-4.5301,-4.4636,-4.4241,-4.3793,-4.3417,-4.3796,-4.3629,-4.3219,-4.3219,-4.3174,-4.3124,-4.3124,-4.3124,-4.3069,-4.2788,-4.2302,-4.181,-4.1468,-4.138,-4.138,-4.138,-4.0564,-3.9697,-3.9368,-3.7922,-3.6605,-3.6299,-3.591,-3.56,-3.56,-3.56,-3.56,-3.56,-3.56,-3.56,-3.56,-3.56,-3.56,-3.56,-3.56,-3.56,-3.56,-3.6122,-3.6336,-3.6054,-3.6032,-3.5898,-3.5622,-3.56,-3.5968,-3.6744,-3.7506,-3.8167,-3.8707,-3.8707,-3.8707,-3.8707,-3.8707,-3.8707,-4.3155,-4.4324,-4.5526,-4.5219,-4.5324,-4.545,-4.5361,-4.4941,-4.4615,-4.4615,-4.4468,-4.4234,-4.3723,-4.3877,-4.3925,-4.3407,-4.4918,0.0,-4.8015,-4.7612,-4.7583,-4.8663,-4.867,0.0,-4.9143,0.0,0.0,0.0,0.0,-4.8528,-4.7753,-4.7039,-4.6295,-4.5568,-4.4925,-4.4615,-4.4615,-4.4615,-4.4615,-4.4615,-4.4615,-4.4615,-4.4615,-4.4615,-4.4615,-4.4654,0.0,0.0,-4.6436,-4.709,-4.6951,-4.6316,-4.6039,-4.4755,-4.3101,-4.3456,-4.2838,-4.1966,-4.3231,-4.3337,-4.2864,-4.2758,-4.2718,-4.2711,-4.2711,-4.2635,-4.2559,-4.2559,-4.175,-4.088,-4.0803,-4.078,-4.078,-4.078,-3.9732,-3.8701,-3.8597,-3.7108,-3.5735,-3.5616,-3.56,-3.56,-3.56,-3.56,-3.56,-3.56,-3.56,-3.56,-3.56,-3.56,-3.56,-3.56,-3.56,-3.56,-3.56,-3.56,-3.56,-3.56,-3.56,-3.56,-3.56,-3.56,-3.6101,-3.7173,-3.7596,-3.8082,-3.8707,-3.8707,-3.8707,-3.8707,-3.8707,-3.8707,-4.238,-4.3762,-4.4783,-4.3008,-4.356,-4.4351,-4.38,-4.4147,-4.4615,-4.4615,-4.4006,-4.3836,-4.4887,-4.4042,-4.3537,-4.4603,-4.6039,-4.7215,0.0,0.0,-4.786,-4.6132,0.0,-4.7822,-4.6818,0.0,0.0,0.0,0.0,-4.7767,-4.7005,-4.6278,-4.5534,-4.4801,-4.4666,-4.4615,-4.4615,-4.4615,-4.4615,-4.4615,-4.4615,-4.4615,-4.4615,-4.4615,-4.4615,0.0,0.0,-4.6312,-4.6448,-4.693,-4.7072,-4.6778,-4.4968,-4.4045,-4.3576,-4.1968,-4.155,-4.1828,-4.2055,-4.2479,-4.2815,-4.2161,-4.231,-4.2711,-4.2711,-4.2342,-4.1937,-4.1937,-4.1446,-4.0803,-4.0343,-4.0229,-4.0229,-4.0229,-3.9583,-3.8785,-3.815,-3.7265,-3.64,-3.5718,-3.56,-3.56,-3.56,-3.56,-3.56,-3.56,-3.56,-3.56,-3.56,-3.56,-3.56,-3.56,-3.56,-3.56,-3.56,-3.56,-3.56,-3.56,-3.56,-3.56,-3.56,-3.56,-3.6101,-3.7173,-3.7267,-3.7773,-3.8707,-3.8707,-3.8707,-3.8707,-3.8707,-3.8707,-4.1409,-4.2109,-4.2466,-4.1403,-4.3189,-4.5062,-4.4415,-4.4266,-4.4173,-4.3809,-4.3418,-4.3202,-4.3388,-4.3076,-4.3345,-4.4946,0.0,-4.6348,-4.6889,-4.6924,-4.6516,0.0,0.0,-4.6792,0.0,0.0,0.0,0.0,0.0,0.0,-4.6261,-4.5889,-4.5348,-4.4632,-4.4615,-4.4615,-4.4615,-4.4615,-4.4615,-4.4615,-4.4615,-4.4615,-4.4615,-4.4615,-4.435,-4.4044,0.0,-4.5987,-4.5396,-4.6601,-4.6458,-4.5353,-4.3957,-4.2949,-4.2119,-4.0935,-4.114,-4.202,-4.1605,-4.1708,-4.1933,-4.1587,-4.159,-4.1746,-4.1746,-4.1534,-4.1313,-4.1313,-4.0897,-4.0417,-4.0171,-4.0096,-4.0096,-4.0096,-3.9225,-3.8311,-3.7973,-3.6992,-3.6045,-3.5667,-3.56,-3.56,-3.56,-3.56,-3.56,-3.56,-3.56,-3.56,-3.56,-3.56,-3.56,-3.56,-3.56,-3.56,-3.56,-3.56,-3.56,-3.56,-3.56,-3.56,-3.56,-3.5876,-3.6416,-3.7173,-3.7451,-3.7947,-3.8707,-3.8707,-3.8707,-3.8707,-3.8707,-3.8707,-4.0312,-4.0504,-4.053,-4.004,-4.234,-4.4747,-4.4767,-4.4238,-4.3706,-4.3481,-4.3283,-4.2879,-4.2078,-4.2438,-4.3289,-4.4618,-4.5095,-4.5484,-4.6007,-4.5618,-4.5229,-4.508,-4.5425,-4.5899,0.0,0.0,0.0,0.0,0.0,0.0,-4.5771,-4.5551,-4.5179,-4.4632,-4.4615,-4.4615,-4.4615,-4.4615,-4.4615,-4.4615,-4.4615,-4.4615,-4.4598,-4.4412,-4.3978,-4.3474,-4.5018,-4.5089,-4.4247,-4.5582,-4.5233,-4.3758,-4.2869,-4.1775,-4.0655,-4.0237,-4.0925,-4.1931,-4.1204,-4.1068,-4.117,-4.1001,-4.0927,-4.0903,-4.0903,-4.0903,-4.0903,-4.0903,-4.0504,-4.0096,-4.0096,-4.0096,-4.0096,-4.0096,-3.9106,-3.8108,-3.7939,-3.6857,-3.5842,-3.5633,-3.56,-3.56,-3.56,-3.56,-3.56,-3.56,-3.56,-3.56,-3.56,-3.56,-3.56,-3.56,-3.56,-3.56,-3.56,-3.56,-3.56,-3.56,-3.56,-3.56,-3.56,-3.6118,-3.6643,-3.7173,-3.7667,-3.8167,-3.8707,-3.8707,-3.8707,-3.8707,-3.8707,-3.8707,-3.896,-3.9665,-4.0096,-3.8861,-3.981,-4.1553,-4.3293,-4.3359,-4.3403,-4.4546,-4.4134,-4.335,-4.2726,-4.3001,-4.3364,-4.3449,-4.4496,-4.5319,-4.5364,0.0,-4.5065,-4.4466,-4.5175,0.0,0.0,0.0,0.0,0.0,0.0,0.0,-4.572,-4.5043,-4.4649,-4.4615,-4.4615,-4.4615,-4.4615,-4.4615,-4.4615,-4.4615,-4.4615,-4.4615,-4.4581,-4.3826,-4.3443,-4.3396,-4.3509,-4.3478,-4.3381,-4.331,-4.3215,-4.2943,-4.159,-4.0683,-4.0146,-4.0121,-4.0595,-4.117,-4.0434,-4.0629,-4.1085,-4.0417,-4.0524,-4.0903,-4.0903,-4.0903,-4.0903,-4.0903,-4.0504,-4.0096,-4.0096,-4.0096,-4.0096,-4.0096,-3.9503,-3.8717,-3.8058,-3.728,-3.6485,-3.5735,-3.56,-3.56,-3.56,-3.56,-3.56,-3.56,-3.56,-3.56,-3.56,-3.56,-3.56,-3.56,-3.56,-3.56,-3.56,-3.56,-3.56,-3.56,-3.56,-3.56,-3.56,-3.6118,-3.6643,-3.7173,-3.7667,-3.8167,-3.8707,-3.8707,-3.8707,-3.8707,-3.8707,-3.8707,-3.8072,-3.8604,-3.9125,-3.905,-3.945,-4.0309,-4.1849,-4.277,-4.3131,-4.2815,-4.3076,0.0,0.0,0.0,-4.3823,-4.3364,-4.4436,-4.5289,-4.5289,-4.5289,-4.505,-4.4392,0.0,0.0,0.0,0.0,0.0,0.0,0.0,0.0,-4.4998,-4.4767,-4.4615,-4.4615,-4.4615,-4.4615,-4.4615,-4.4615,-4.4615,-4.4615,-4.4615,-4.4615,-4.4581,-4.3775,-4.3166,-4.2746,-4.3131,-4.2785,-4.203,-4.271,-4.2559,-4.1771,-4.0788,-4.0473,-4.0601,-4.0601,-4.1011,-4.1528,-4.1255,-4.1336,-4.1459,-4.0806,-4.0733,-4.085,-4.0504,-4.0417,-4.0417,-4.0417,-4.0254,-4.0096,-4.0096,-4.0096,-4.0096,-4.0096,-3.9174,-3.8244,-3.7973,-3.6941,-3.596,-3.565,-3.56,-3.56,-3.56,-3.56,-3.56,-3.56,-3.56,-3.56,-3.56,-3.56,-3.56,-3.56,-3.56,-3.56,-3.56,-3.56,-3.56,-3.56,-3.56,-3.56,-3.56,-3.6457,-3.6981,-3.7209,-3.7981,-3.8515,-3.8707,-3.8707,-3.8707,-3.8707,-3.8707,-3.8707,-3.7686,-3.7852,-3.8242,-3.8931,-3.926,-3.9768,-4.1085,-4.2087,-4.2671,-4.2372,-4.2686,-4.2761,-4.1901,0.0,0.0,0.0,-4.4122,-4.484,-4.4421,-4.4362,-4.4122,-4.3464,0.0,0.0,0.0,0.0,0.0,0.0,0.0,0.0,0.0,-4.4615,-4.4615,-4.4615,-4.4615,-4.4615,-4.4615,-4.4615,-4.4615,-4.4615,-4.4615,-4.4615,-4.4564,-4.3521,-4.2777,-4.2279,-4.2286,-4.1731,-4.0909,-4.1723,-4.1598,-4.0823,-4.0491,-4.0473,-4.0679,-4.1041,-4.1335,-4.1534,-4.1729,-4.181,-4.1686,-4.111,-4.0903,-4.0803,-4.0262,-4.0096,-4.0096,-4.0096,-4.0096,-4.0096,-4.0096,-4.0096,-4.0096,-4.0096,-3.8971,-3.7905,-3.7905,-3.6681,-3.56,-3.56,-3.56,-3.56,-3.56,-3.56,-3.56,-3.56,-3.56,-3.56,-3.56,-3.56,-3.56,-3.56,-3.56,-3.56,-3.56,-3.56,-3.56,-3.56,-3.56,-3.56,-3.56,-3.6643,-3.7209,-3.7209,-3.8185,-3.8707,-3.8707,-3.8707,-3.8707,-3.8707,-3.8707,-3.8707,-3.781,-3.7517,-3.7584,-3.8227,-3.8916,-3.9783,-4.1085,-4.1399,-4.1953,-4.3873,-4.3269,-4.2396,-4.2342,-4.2841,0.0,-4.2447,-4.3434,-4.3823,-4.2575,-4.2396,-4.2156,0.0,0.0,0.0,0.0,0.0,0.0,0.0,0.0,0.0,0.0,-4.4615,-4.4615,-4.4615,-4.4615,-4.4615,-4.4615,-4.4615,-4.4615,-4.4615,-4.4615,-4.4615,-4.4564,-4.2997,-4.2286,-4.2202,-4.0756,-4.0096,-4.0096,-4.0096,-4.0096,-4.0146,-4.0679,-4.0577,-4.0254,-4.1375,-4.1424,-4.0995,-4.1599,-4.1793,-4.1707,-4.111,-4.0903,-4.0803,-4.0262,-4.0096,-4.0096,-4.0096,-4.0096,-4.0096,-4.0096,-4.0096,-4.0096,-4.0096,-3.8954,-3.7905,-3.7889,-3.6664,-3.56,-3.56,-3.56,-3.56,-3.56,-3.56,-3.56,-3.56,-3.56,-3.56,-3.56,-3.56,-3.56,-3.56,-3.56,-3.56,-3.56,-3.56,-3.56,-3.56,-3.56,-3.56,-3.56,-3.6643,-3.7209,-3.7209,-3.8185,-3.8707,-3.8707,-3.8707,-3.8707,-3.8707,-3.8707,-3.8707,-3.6464,-3.7098,-3.7962,-3.7361,-3.9025,-4.0807,-4.0817,-4.1824,0.0,0.0,-4.2053,-4.0778,-3.9605,-3.988,0.0,-3.9921,-4.0562,-4.1263,-4.1637,-4.1707,0.0,0.0,0.0,0.0,0.0,0.0,0.0,0.0,0.0,0.0,0.0,-4.4615,-4.4615,-4.4615,-4.4615,-4.4615,-4.4615,-4.4615,-4.4615,-4.4615,-4.4615,-4.4615,-4.4564,-4.2997,-4.2286,-4.2202,-4.0756,-4.0096,-4.0096,-4.0096,-4.0417,-4.084,-4.0466,-4.0832,-4.1495,-4.125,-4.1599,-4.2142,-4.1895,-4.208,-4.2244,-4.1228,-4.0903,-4.0803,-4.0262,-4.0096,-4.0096,-4.0096,-4.0096,-4.0096,-4.0096,-4.0096,-3.9977,-3.9445,-3.8599,-3.777,-3.7229,-3.6332,-3.56,-3.56,-3.56,-3.56,-3.56,-3.56,-3.56,-3.56,-3.56,-3.56,-3.56,-3.56,-3.56,-3.56,-3.56,-3.56,-3.56,-3.56,-3.56,-3.56,-3.56,-3.56,-3.56,-3.6643,-3.7209,-3.7209,-3.8185,-3.8707,-3.8707,-3.8707,-3.8707,-3.8707,-3.8707,-3.8707,-3.6803,-3.6959,-3.722,-3.7501,-3.8803,-4.0065,-4.0289,-4.1507,0.0,0.0,-4.101,-3.9646,-3.863,-3.856,0.0,-3.8566,-3.8885,-3.9296,-3.9658,-3.9746,0.0,0.0,0.0,0.0,0.0,0.0,0.0,0.0,0.0,0.0,0.0,-4.4615,-4.4615,-4.4615,-4.4615,-4.4615,-4.4615,-4.4615,-4.4615,-4.4615,-4.4265,-4.4282,-4.4564,-4.2997,-4.2134,-4.1796,-4.062,-4.0096,-4.013,-4.0434,-4.0798,-4.1213,-4.1307,-4.1671,-4.2188,-4.2137,-4.2273,-4.2434,-4.2292,-4.2287,-4.2183,-4.1206,-4.0903,-4.0803,-4.0262,-4.0096,-4.0096,-4.0096,-4.0096,-4.0096,-4.0096,-4.0096,-3.991,-3.9174,-3.8447,-3.7702,-3.6965,-3.6163,-3.56,-3.56,-3.56,-3.56,-3.56,-3.56,-3.56,-3.56,-3.56,-3.56,-3.56,-3.56,-3.56,-3.56,-3.56,-3.56,-3.56,-3.56,-3.56,-3.56,-3.56,-3.56,-3.56,-3.6437,-3.6981,-3.7209,-3.7981,-3.8481,-3.8707,-3.8707,-3.8707,-3.8707,-3.8707,-3.8707,-3.8046,-3.7003,-3.603,-3.8129,-3.8292,-3.8238,-3.9524,-4.0533,-4.1223,-4.128,0.0,-3.875,-3.8622,-3.817,-3.7827,-3.7855,-3.7883,-3.7689,-3.7177,0.0,0.0,0.0,0.0,0.0,0.0,0.0,0.0,0.0,0.0,0.0,0.0,-4.4502,-4.4581,-4.4496,-4.4564,-4.4615,-4.4615,-4.4615,-4.4564,0.0,-4.3826,-4.3792,-4.4242,-4.2828,-4.1796,-4.1068,-4.0375,-4.0096,-4.0146,-4.0815,-4.1187,-4.1408,-4.2498,-4.2714,-4.2513,-4.3341,-4.2981,-4.2163,-4.2517,-4.2247,-4.1621,-4.1018,-4.0827,-4.075,-4.0254,-4.0096,-4.0096,-4.0096,-4.0096,-4.0096,-4.0096,-4.0096,-3.991,-3.9174,-3.8447,-3.7702,-3.6965,-3.6163,-3.56,-3.56,-3.56,-3.56,-3.56,-3.56,-3.56,-3.56,-3.56,-3.56,-3.56,-3.56,-3.56,-3.56,-3.56,-3.56,-3.56,-3.56,-3.56,-3.56,-3.56,-3.56,-3.56,-3.6118,-3.6643,-3.7173,-3.7667,-3.8167,-3.8707,-3.8707,-3.8707,-3.8707,-3.8707,-3.8707,-3.6664,-3.6782,-3.7127,-3.6807,-3.7378,-3.8251,-3.9023,-3.8681,-3.8337,-3.8751,-3.788,-3.6737,-3.578,-3.5197,-3.4947,-3.539,-3.5435,-3.5669,0.0,0.0,0.0,0.0,0.0,0.0,0.0,0.0,0.0,0.0,0.0,0.0,-4.1901,-4.3614,-4.4299,-4.369,-4.4265,-4.4615,-4.4615,-4.4615,-4.4265,0.0,-4.4113,-4.3487,-4.1914,-4.1593,-4.1018,-4.0333,-4.018,-4.0096,-4.0113,-4.0282,-4.1027,-4.1991,-4.1112,-4.174,-4.299,-4.1486,-4.1415,-4.1974,-4.1033,-4.0864,-4.0995,-4.0449,-4.0262,-4.0237,-4.0146,-4.0096,-4.0096,-4.0096,-4.0096,-4.0096,-4.0096,-4.0096,-3.991,-3.9174,-3.8447,-3.7702,-3.6965,-3.6163,-3.56,-3.56,-3.56,-3.56,-3.56,-3.56,-3.56,-3.56,-3.56,-3.56,-3.56,-3.56,-3.56,-3.56,-3.56,-3.56,-3.56,-3.56,-3.56,-3.56,-3.56,-3.56,-3.56,-3.6118,-3.6643,-3.7173,-3.7667,-3.8167,-3.8707,-3.8707,-3.8707,-3.8707,-3.8707,-3.8707,-3.7575,-3.693,-3.6089,-3.5859,-3.6154,-3.6567,-3.6863,-3.6292,-3.5838,-3.6361,-3.5838,-3.5069,-3.4413,-3.3872,-3.3611,-3.3878,-3.3679,0.0,0.0,0.0,0.0,0.0,0.0,0.0,0.0,0.0,0.0,0.0,0.0,-3.9934,-4.1132,-4.2349,-4.2937,-4.2868,-4.3267,-4.3515,-4.3515,-4.3515,-4.347,-4.3392,-4.3115,-4.2151,-4.0663,-4.0663,-4.0646,-4.0595,-4.0265,-4.0096,-4.013,-4.0485,-4.1068,-4.1728,-4.1331,-4.1847,-4.2726,-4.1576,-4.1367,-4.156,-4.0875,-4.0568,-4.0473,-4.0179,-4.0096,-4.0096,-4.0096,-4.0096,-4.0096,-4.0096,-4.0096,-4.0096,-4.0096,-4.0096,-4.0011,-3.9622,-3.8684,-3.7702,-3.6965,-3.6163,-3.56,-3.56,-3.56,-3.56,-3.56,-3.56,-3.56,-3.56,-3.56,-3.56,-3.56,-3.56,-3.56,-3.56,-3.56,-3.56,-3.56,-3.56,-3.56,-3.56,-3.56,-3.56,-3.56,-3.6118,-3.6643,-3.7173,-3.7433,-3.7947,-3.8707,-3.8707,-3.8707,-3.8707,-3.8707,-3.8707,-3.8537,-3.6912,-3.4934,-3.5731,-3.5557,0.0,-3.4888,-3.4464,-3.4205,-3.4406,-3.4073,-3.374,-3.3607,-3.3227,-3.2887,-3.266,-3.2314,0.0,0.0,0.0,0.0,0.0,0.0,0.0,0.0,0.0,0.0,0.0,0.0,-3.8555,-4.0521,-4.1,-4.1477,-4.21,-4.2219,-4.2354,-4.2489,-4.2489,-4.2726,-4.3172,-4.1711,-4.0815,-4.0485,-4.035,-4.0544,-4.0984,-4.0367,-4.0096,-4.0146,-4.0747,-4.1085,-4.1255,-4.1728,-4.2066,-4.2252,-4.1999,-4.161,-4.1187,-4.1052,-4.0595,-4.0096,-4.0096,-4.0096,-4.0096,-4.0096,-4.0096,-4.0096,-4.0096,-4.0096,-4.0096,-4.0096,-4.0096,-4.0096,-4.0096,-3.9056,-3.7922,-3.732,-3.6569,-3.5955,-3.5819,-3.5684,-3.56,-3.56,-3.56,-3.56,-3.56,-3.56,-3.56,-3.56,-3.56,-3.56,-3.56,-3.56,-3.56,-3.56,-3.56,-3.56,-3.56,-3.56,-3.56,-3.56,-3.6118,-3.6643,-3.7173,-3.7267,-3.7791,-3.8707,-3.8707,-3.8707,-3.8707,-3.8707,-3.8707,-3.652,-3.5899,-3.5994,-3.7272,-3.7531,-3.713,0.0,0.0,-3.492,0.0,-3.3244,-3.3015,-3.2457,-3.2314,-3.1978,-3.0946,0.0,0.0,0.0,0.0,0.0,0.0,0.0,0.0,0.0,0.0,0.0,0.0,-3.6965,-3.787,-3.8242,-4.0128,-4.1261,-4.1347,-4.1965,-4.2608,-4.3267,-4.324,-4.298,-4.2422,-4.0959,-4.0874,-4.1965,-4.1339,-4.0747,-4.0248,-4.0146,-4.0096,-4.0113,-4.0214,-4.0612,-4.1153,-4.062,-4.1153,-4.2134,-4.0874,-4.073,-4.1119,-4.0485,-4.018,-4.0096,-4.0096,-4.0096,-4.0096,-4.0096,-4.0096,-4.0096,-4.0096,-4.0096,-4.0096,-4.0096,-4.0096,-4.0096,-4.0096,-3.9469,-3.8819,-3.8717,-3.8125,-3.7415,-3.6755,-3.6079,-3.56,-3.56,-3.56,-3.56,-3.56,-3.56,-3.56,-3.56,-3.56,-3.56,-3.56,-3.56,-3.56,-3.56,-3.56,-3.56,-3.56,-3.56,-3.56,-3.56,-3.6118,-3.6643,-3.7173,-3.7596,-3.8117,-3.8707,-3.8707,-3.8707,-3.8707,-3.8707,-3.8707,-3.77,-3.718,-3.722,0.0,-3.7569,-3.6741,-3.6035,-3.59,-3.5546,-3.4285,-3.3723,-3.3013,-3.1544,-3.102,-3.0459,-2.9311,0.0,0.0,0.0,0.0,0.0,0.0,0.0,0.0,0.0,0.0,0.0,0.0,-3.6086,-3.6675,-3.7115,-3.8515,-3.9481,-3.9911,-4.0667,-4.1204,-4.1542,-4.1542,-4.139,-4.1077,-4.0815,-4.0832,-4.1077,-4.0713,-4.0874,-4.1314,-4.0882,-4.0713,-4.0679,-4.0282,-4.0299,-4.0544,-4.0231,-4.0502,-4.0993,-4.035,-4.0316,-4.0527,-4.0214,-4.0096,-4.0096,-4.0096,-4.0096,-4.0096,-4.0096,-4.0096,-4.0096,-4.0096,-4.0096,-4.0096,-4.0096,-4.0096,-4.0096,-4.0096,-3.9859,-3.9622,-3.9622,-3.8379,-3.7178,-3.6863,-3.6502,-3.6265,-3.6265,-3.591,-3.56,-3.56,-3.56,-3.56,-3.56,-3.56,-3.56,-3.56,-3.56,-3.56,-3.56,-3.56,-3.56,-3.56,-3.56,-3.56,-3.56,-3.6399,-3.696,-3.7209,-3.7667,-3.8167,-3.8707,-3.8707,-3.8707,-3.8707,-3.8707,-3.8707,-3.852,0.0,-3.7925,-3.8578,-3.8083,-3.7318,0.0,0.0,-3.6588,0.0,-3.4299,-3.3006,-3.1148,-3.0104,-2.9085,-2.7662,0.0,0.0,0.0,0.0,0.0,0.0,0.0,0.0,0.0,0.0,0.0,0.0,-3.5359,-3.5799,-3.6554,-3.7352,-3.8149,-3.8881,-3.9688,-4.0197,-4.0383,-4.0383,-4.0383,-4.0383,-4.0747,-4.0629,-4.0113,-4.0299,-4.0993,-4.1965,-4.1238,-4.1035,-4.1136,-4.0417,-4.0096,-4.0096,-4.0096,-4.0096,-4.0096,-4.0096,-4.0096,-4.0096,-4.0096,-4.0096,-4.0096,-4.0096,-4.0096,-4.0096,-4.0096,-4.0096,-4.0096,-4.0096,-4.0096,-4.0096,-4.0096,-4.0096,-4.0096,-4.0096,-4.0096,-4.0096,-4.0096,-3.8657,-3.7371,-3.7371,-3.7218,-3.7032,-3.6829,-3.6299,-3.5836,-3.5633,-3.56,-3.56,-3.56,-3.56,-3.56,-3.56,-3.56,-3.56,-3.56,-3.56,-3.56,-3.56,-3.56,-3.56,-3.56,-3.6643,-3.7209,-3.7209,-3.779,-3.83,-3.8707,-3.8707,-3.8707,-3.8707,-3.8707,-3.8707,-3.7398,-3.7415,0.0,-3.9349,-4.0214,-4.035,0.0,0.0,-3.8407,-3.6523,-3.4482,-3.2673,-3.1466,-2.9972,-2.8201,0.0,0.0,0.0,0.0,0.0,0.0,0.0,0.0,0.0,0.0,0.0,0.0,0.0,-3.4953,-3.5799,-3.6554,-3.7352,-3.8149,-3.8881,-3.9688,-4.0451,-4.1136,-4.1136,-4.1136,-4.1136,-4.046,-4.0146,-4.013,-4.0815,-4.1187,-4.1221,-4.0485,-4.0544,-4.1136,-4.0417,-4.0096,-4.0096,-4.0096,-4.0096,-4.0096,-4.0096,-4.0096,-4.0096,-4.0096,-4.0096,-4.0096,-4.0096,-4.0096,-4.0096,-4.0096,-4.0096,-4.0096,-4.0096,-4.0096,-4.0096,-4.0096,-4.0096,-4.0096,-4.0096,-4.0096,-4.0096,-4.0096,-3.9469,-3.8886,-3.8886,-3.8311,-3.7618,-3.6931,-3.6778,-3.6468,-3.5701,-3.56,-3.56,-3.56,-3.56,-3.56,-3.56,-3.56,-3.56,-3.56,-3.56,-3.56,-3.56,-3.56,-3.56,-3.56,-3.6643,-3.7209,-3.7209,-3.8152,-3.8658,-3.8707,-3.8707,-3.8707,-3.8707,-3.8707,-3.8707,-3.8937,0.0,0.0,-3.9956,-4.0529,-4.0577,-4.0319,-4.064,-4.043,-3.8587,-3.6913,-3.4871,-3.1936,-2.918,-2.6854,0.0,0.0,0.0,0.0,0.0,0.0,0.0,0.0,0.0,0.0,0.0,0.0,0.0,0.0,-3.5619,-3.5894,-3.6631,-3.7381,-3.8177,-3.8924,-3.9702,-4.0476,-4.0476,-4.0476,-4.0476,-4.0231,-4.0096,-4.0113,-4.0383,-4.0747,-4.117,-4.0434,-4.051,-4.1136,-4.0417,-4.0096,-4.0096,-4.0096,-4.0096,-4.0096,-4.0096,-4.0096,-4.0096,-4.0096,-4.0096,-4.0096,-4.0096,-4.0096,-4.0096,-4.0096,-4.0096,-4.0096,-4.0096,-4.0096,-4.0096,-4.0096,-4.0096,-4.0096,-4.0096,-4.0096,-4.0096,-4.0096,-3.9893,-3.9571,-3.9089,-3.8785,-3.8362,-3.7635,-3.7094,-3.6541,-3.5718,-3.56,-3.56,-3.56,-3.56,-3.56,-3.56,-3.56,-3.56,-3.56,-3.56,-3.56,-3.56,-3.56,-3.56,-3.56,-3.6643,-3.7209,-3.7209,-3.8185,-3.8707,-3.8707,-3.8707,-3.8512,-3.82,-3.8546,-3.853,-3.9277,0.0,0.0,0.0,-4.0459,-4.0535,-4.1675,0.0,-4.1368,-4.0357,-3.8846,-3.6768,-3.3661,-3.0266,-2.7238,0.0,0.0,0.0,0.0,0.0,0.0,0.0,0.0,0.0,0.0,0.0,0.0,0.0,0.0,0.0,-3.5472,-3.6196,-3.7068,-3.8149,-3.8897,-3.9558,-4.0096,-4.0096,-4.0096,-4.0096,-4.0096,-4.0096,-4.0096,-4.0096,-4.0383,-4.0798,-4.0316,-4.051,-4.1136,-4.0417,-4.0096,-4.0096,-4.0096,-4.0096,-4.0096,-4.0096,-4.0096,-4.0096,-4.0096,-4.0096,-4.0096,-4.0096,-4.0096,-4.0096,-4.0096,-4.0096,-4.0096,-4.0096,-4.0096,-4.0096,-4.0096,-4.0096,-4.0096,-4.0096,-4.0096,-4.0096,-4.0096,-4.0096,-3.996,-3.9469,-3.9385,-3.9056,-3.8075,-3.7483,-3.6806,-3.5752,-3.56,-3.56,-3.56,-3.56,-3.56,-3.56,-3.56,-3.56,-3.56,-3.56,-3.56,-3.56,-3.56,-3.56,-3.56,-3.6643,-3.7209,-3.7209,-3.8185,-3.8707,-3.8707,-3.853,-3.8251,-3.7893,-3.8267,-3.835,0.0,0.0,0.0,0.0,0.0,0.0,-4.3262,0.0,-4.121,-4.1717,-4.0107,-3.8099,-3.6595,-3.3269,-2.953,0.0,0.0,0.0,0.0,0.0,0.0,0.0,0.0,0.0,0.0,0.0,0.0,0.0,-3.3449,-3.4428,-3.5439,-3.6196,-3.7306,-3.8827,-3.9636,-4.007,-4.0096,-4.0096,-4.0096,-4.0096,-4.0096,-4.0096,-4.0096,-4.0096,-4.0096,-4.0096,-4.0096,-4.0493,-4.1119,-4.0417,-4.0096,-4.0096,-4.0096,-4.0096,-4.0096,-4.0096,-4.0096,-4.0096,-4.0096,-4.0096,-4.0096,-4.0096,-4.0096,-4.0096,-4.0096,-4.0096,-4.0096,-4.0096,-4.0096,-4.0096,-4.0096,-4.0096,-4.0096,-4.0096,-4.0096,-4.0096,-4.0096,-4.0096,-4.0096,-4.0096,-4.0096,-3.9639,-3.8159,-3.7905,-3.7381,-3.5819,-3.56,-3.56,-3.56,-3.56,-3.56,-3.56,-3.56,-3.56,-3.56,-3.56,-3.56,-3.56,-3.56,-3.56,-3.5605,-3.6643,-3.7209,-3.721,-3.8185,-3.8707,-3.8707,-3.8167,-3.7876,-3.7876,-3.7876,-3.8167,-3.875,0.0,0.0,0.0,0.0,0.0,0.0,0.0,-4.2371,-4.2558,-4.1332,-3.9913,-3.8845,-3.5401,-3.2152,0.0,0.0,0.0,0.0,0.0,0.0,0.0,0.0,0.0,0.0,0.0,0.0,0.0,-3.3449,-3.4428,-3.5439,-3.6196,-3.7054,-3.8076,-3.8843,-3.9516,-4.0096,-4.0096,-4.0096,-4.0096,-4.0096,-4.0096,-4.0096,-4.0096,-4.0096,-4.0096,-4.0096,-4.0231,-4.04,-4.018,-4.0096,-4.0096,-4.0096,-4.0096,-4.0096,-4.0096,-4.0096,-4.0096,-4.0096,-4.0096,-4.0096,-4.0096,-4.0096,-4.0096,-4.0096,-4.0096,-4.0096,-4.0096,-4.0096,-4.0096,-4.0096,-4.0096,-4.0096,-4.0096,-4.0096,-4.0096,-4.0096,-4.0096,-4.0096,-4.0096,-4.0096,-3.9639,-3.8159,-3.7905,-3.7381,-3.5819,-3.56,-3.56,-3.56,-3.56,-3.56,-3.56,-3.56,-3.56,-3.56,-3.56,-3.56,-3.56,-3.56,-3.5783,-3.6161,-3.6843,-3.736,-3.7702,-3.835,-3.8707,-3.8707,-3.8167,-3.772,-3.7396,-3.7396,-3.7861,0.0,0.0,0.0,0.0,0.0,0.0,-4.1781,-4.2311,0.0,0.0,-4.3219,-4.183,-4.0428,-3.763,-3.5028,0.0,0.0,0.0,0.0,0.0,0.0,0.0,0.0,0.0,0.0,-2.8929,-3.0505,-3.1924,-3.289,-3.4041,-3.5439,-3.6196,-3.6813,-3.7263,-3.8342,-3.9139,-3.9584,-3.9927,-4.0096,-4.0096,-4.0096,-4.0096,-4.0096,-4.0096,-4.0096,-4.0096,-4.0096,-4.0096,-4.0096,-4.0096,-4.0096,-4.0096,-4.0096,-4.0096,-4.0096,-4.0096,-4.0096,-4.0096,-4.0096,-4.0096,-4.0096,-4.0096,-4.0096,-4.0096,-4.0096,-4.0096,-4.0096,-4.0096,-4.0096,-4.0096,-4.0096,-4.0096,-4.0096,-4.0096,-4.0096,-4.0096,-4.0096,-4.0096,-4.0096,-4.0096,-3.9859,-3.9259,-3.8108,-3.7652,-3.7026,-3.5785,-3.56,-3.56,-3.56,-3.56,-3.56,-3.56,-3.56,-3.56,-3.56,-3.56,-3.56,-3.56,-3.56,-3.5739,-3.6054,-3.6803,-3.7323,-3.7596,-3.8334,-3.8499,-3.8066,-3.7755,-3.747,-3.7209,-3.7209,-3.7738,0.0,0.0,0.0,0.0,0.0,0.0,-4.3117,-4.2769,-4.2376,0.0,-4.4635,-4.3127,-4.1373,-3.9538,0.0,0.0,0.0,0.0,0.0,0.0,0.0,0.0,0.0,0.0,-2.6224,-2.74,-2.889,-3.0856,-3.2092,-3.3581,-3.5392,-3.6117,-3.6523,-3.6615,-3.793,-3.8745,-3.8908,-3.961,-4.002,-4.0096,-4.0096,-4.0096,-4.0096,-4.0096,-4.0096,-4.0096,-4.0096,-4.0096,-4.0096,-4.0096,-4.0096,-4.0096,-4.0096,-4.0096,-4.0096,-4.0096,-4.0096,-4.0096,-4.0096,-4.0096,-4.0096,-4.0096,-4.0096,-4.0096,-4.0096,-4.0096,-4.0096,-4.0096,-4.0096,-4.0096,-4.0096,-4.0096,-4.0096,-4.0096,-4.0096,-4.0096,-4.0096,-4.0096,-4.0079,-3.9994,-3.9453,-3.8734,-3.7922,-3.7229,-3.6541,-3.5718,-3.56,-3.56,-3.56,-3.56,-3.56,-3.56,-3.56,-3.56,-3.56,-3.56,-3.56,-3.56,-3.56,-3.5622,-3.5689,-3.6586,-3.7154,-3.7284,-3.8201,-3.8168,-3.7097,-3.7154,-3.7209,-3.7209,-3.7209,-3.7738,0.0,0.0,0.0,0.0,0.0,0.0,-3.9682,-4.0067,-4.0624,0.0,-4.1506,-4.102,-4.1272,-3.9334,0.0,0.0,0.0,0.0,0.0,0.0,0.0,0.0,0.0,0.0,-2.5126,-2.693,-2.8564,-2.9745,-3.2239,-3.4259,-3.5439,-3.5651,-3.5975,-3.6584,-3.6888,-3.7642,-3.8881,-3.9059,-3.9463,-4.0096,-4.0096,-4.0096,-4.0096,-4.0096,-4.0096,-4.0096,-4.0096,-4.0096,-4.0096,-4.0096,-4.0096,-4.0096,-4.0096,-4.0096,-4.0096,-4.0096,-4.0096,-4.0096,-4.0096,-4.0096,-4.0096,-4.0096,-4.0096,-4.0096,-4.0096,-4.0096,-4.0096,-4.0096,-4.0096,-4.0096,-4.0096,-4.0096,-4.0096,-4.0096,-4.0096,-4.0096,-4.0096,-4.0096,-3.9926,-3.9326,-3.9089,-3.8565,-3.7252,-3.6897,-3.6541,-3.5718,-3.56,-3.56,-3.56,-3.56,-3.56,-3.56,-3.56,-3.56,-3.56,-3.56,-3.56,-3.56,-3.56,-3.5788,-3.6224,-3.6437,-3.6943,-3.7737,-3.8382,-3.7999,-3.656,-3.6999,-3.7209,-3.7209,-3.7209,-3.7738,0.0,0.0,0.0,-3.9229,0.0,0.0,0.0,-4.0212,-4.0836,-4.2047,-4.1751,-4.1288,-4.1395,0.0,0.0,0.0,0.0,0.0,0.0,0.0,0.0,0.0,0.0,0.0,-2.7304,-2.8291,-2.9427,-3.0676,-3.2573,-3.3998,-3.4706,-3.5246,-3.5668,-3.6023,-3.6415,-3.6978,-3.7758,-3.8509,-3.9113,-3.9516,-3.9901,-4.0096,-4.0096,-4.0096,-4.0096,-4.0096,-4.0096,-4.0096,-4.0096,-4.0096,-4.0096,-4.0096,-4.0096,-4.0096,-4.0096,-4.0096,-4.0096,-4.0096,-4.0096,-4.0096,-4.0096,-4.0096,-4.0096,-4.0096,-4.0096,-4.0096,-4.0096,-4.0096,-4.0096,-4.0096,-4.0096,-4.0096,-4.0096,-4.0096,-4.0096,-4.0011,-3.9639,-3.9554,-3.9233,-3.8132,-3.7912,-3.7675,-3.6931,-3.6451,-3.6062,-3.565,-3.56,-3.56,-3.56,-3.56,-3.56,-3.56,-3.56,-3.56,-3.56,-3.56,-3.56,-3.56,-3.56,-3.5717,-3.6006,-3.6266,-3.6865,-3.7876,-3.7929,-3.756,-3.6803,-3.7076,-3.7209,-3.7209,-3.7209,-3.7738,0.0,0.0,0.0,0.0,0.0,-3.9264,0.0,0.0,0.0,-4.2304,0.0,0.0,0.0,0.0,0.0,0.0,0.0,0.0,0.0,0.0,0.0,0.0,0.0,0.0,0.0,-2.9511,-3.0208,-3.203,-3.2729,-3.3407,-3.4126,-3.5027,-3.5504,-3.5504,-3.6086,-3.6477,-3.6615,-3.7844,-3.8536,-3.869,-3.9489,-3.9876,-3.9859,-4.002,-4.0096,-4.0096,-4.0096,-4.0096,-4.0096,-4.0096,-4.0096,-4.0096,-4.0096,-4.0096,-4.0096,-4.0096,-4.0096,-4.0096,-4.0096,-4.0096,-4.0096,-4.0096,-4.0096,-4.0096,-4.0096,-4.0096,-4.0096,-4.0096,-4.0096,-4.0096,-4.0096,-4.0096,-4.0096,-4.0096,-4.0096,-3.991,-3.9157,-3.8988,-3.8599,-3.7286,-3.7015,-3.6931,-3.6626,-3.6163,-3.5819,-3.5819,-3.5938,-3.5988,-3.5836,-3.5819,-3.5769,-3.5616,-3.56,-3.56,-3.56,-3.56,-3.56,-3.56,-3.56,-3.56,-3.56,-3.6118,-3.6726,-3.7434,-3.7378,-3.7192,-3.6884,-3.7192,-3.7285,-3.7209,-3.7285,-3.7826,0.0,0.0,0.0,0.0,-3.8823,0.0,0.0,0.0,-3.9019,-3.9221,0.0,0.0,0.0,0.0,0.0,0.0,0.0,0.0,0.0,0.0,0.0,0.0,0.0,0.0,0.0,-2.8505,-2.9533,-3.2489,-3.2236,-3.2814,-3.4708,-3.5244,-3.5504,-3.5504,-3.5587,-3.5943,-3.6569,-3.6783,-3.7233,-3.7921,-3.8663,-3.9032,-3.9059,-3.9782,-4.0096,-4.0096,-4.0096,-4.0096,-4.0096,-4.0096,-4.0096,-4.0096,-4.0096,-4.0096,-4.0096,-4.0096,-4.0096,-4.0096,-4.0096,-4.0096,-4.0096,-4.0096,-4.0096,-4.0096,-4.0096,-4.0096,-4.0096,-4.0096,-4.0096,-4.0096,-4.0096,-4.0096,-4.0096,-4.0096,-4.0096,-3.991,-3.9157,-3.8988,-3.8751,-3.7939,-3.7787,-3.7347,-3.5955,-3.6248,-3.666,-3.666,-3.7212,-3.7398,-3.6761,-3.666,-3.6383,-3.5667,-3.56,-3.56,-3.56,-3.56,-3.56,-3.56,-3.56,-3.56,-3.56,-3.6118,-3.6228,-3.5859,-3.7137,-3.7155,-3.5766,-3.7137,-3.7614,-3.7209,-3.7632,-3.815,0.0,0.0,0.0,0.0,0.0,0.0,-3.8133,0.0,-3.8316,0.0,0.0,0.0,0.0,0.0,0.0,0.0,0.0,0.0,0.0,0.0,0.0,0.0,0.0,0.0,0.0,0.0,0.0,0.0,-3.2753,-3.3026,-3.4531,-3.5329,-3.5844,-3.6088,-3.6073,-3.6027,-3.5943,-3.6384,-3.6752,-3.7114,-3.7905,-3.8497,-3.8908,-3.9262,-3.9662,-4.0096,-4.0096,-4.0096,-4.0096,-4.0096,-4.0096,-4.0096,-4.0096,-4.0096,-4.0096,-4.0096,-4.0096,-4.0096,-4.0096,-4.0096,-4.0096,-4.0096,-3.9782,-3.9489,-3.9952,-3.9782,-3.9489,-3.9969,-4.0096,-4.0096,-4.0096,-4.0096,-4.0096,-4.0096,-3.9774,-3.9242,-3.8514,-3.8362,-3.8142,-3.7398,-3.7601,-3.7702,-3.7036,-3.7212,-3.7432,-3.7432,-3.733,-3.7168,-3.6846,-3.6383,-3.5977,-3.5633,-3.56,-3.56,-3.56,-3.56,-3.56,-3.56,-3.56,-3.56,-3.56,-3.5827,-3.5985,-3.6054,-3.6381,-3.6402,-3.6071,-3.7039,-3.7396,-3.721,-3.7685,-3.8183,-4.0646,0.0,0.0,0.0,0.0,0.0,0.0,0.0,0.0,0.0,0.0,0.0,0.0,0.0,0.0,0.0,0.0,0.0,0.0,0.0,0.0,0.0,0.0,0.0,0.0,0.0,0.0,0.0,0.0,-3.3973,-3.4999,-3.5712,-3.6265,-3.6746,-3.6402,-3.6073,-3.5774,-3.6114,-3.6306,-3.6306,-3.7308,-3.8092,-3.8608,-3.9032,-3.9542,-4.0096,-4.0096,-4.0096,-4.0096,-4.0096,-4.0096,-4.0096,-4.0096,-4.0096,-4.0096,-4.0096,-4.0096,-4.0096,-4.0096,-4.0096,-4.0096,-4.0096,-3.9688,-3.9342,-3.9927,-3.9688,-3.9342,-3.9927,-4.0096,-4.0096,-4.0096,-4.0096,-4.0096,-4.0096,-3.9554,-3.8802,-3.8075,-3.7905,-3.7736,-3.7195,-3.7702,-3.8278,-3.8464,-3.8345,-3.821,-3.821,-3.7905,-3.7557,-3.7168,-3.6603,-3.6056,-3.565,-3.56,-3.56,-3.56,-3.56,-3.56,-3.56,-3.56,-3.56,-3.56,-3.56,-3.5766,-3.6182,-3.5941,-3.6028,-3.6395,-3.7058,-3.7396,-3.7396,-3.7894,-3.8316,0.0,0.0,0.0,-3.8471,0.0,0.0,0.0,0.0,-3.7573,0.0,0.0,0.0,0.0,0.0,0.0,0.0,0.0,0.0,0.0,0.0,0.0,0.0,0.0,0.0,0.0,0.0,0.0,0.0,0.0,0.0,-3.6669,-3.6586,-3.6742,-3.736,-3.6193,-3.5833,-3.6447,-3.5851,-3.5537,-3.5554,-3.7055,-3.7806,-3.7908,-3.9385,-4.007,-4.0096,-4.0096,-4.0096,-4.0096,-4.0096,-4.0096,-4.0096,-4.0096,-4.0096,-4.0096,-4.0096,-4.0096,-4.0096,-4.0096,-4.0096,-4.0096,-4.0096,-4.007,-4.007,-4.0096,-4.007,-4.007,-4.0096,-4.0096,-4.0096,-4.0096,-4.0096,-4.0096,-4.0096,-3.9554,-3.8802,-3.8075,-3.7905,-3.7905,-3.7872,-3.8464,-3.9174,-3.991,-3.9453,-3.8954,-3.8954,-3.9554,-3.9486,-3.8058,-3.7855,-3.7239,-3.5752,-3.56,-3.56,-3.56,-3.56,-3.56,-3.56,-3.56,-3.56,-3.56,-3.56,-3.5622,-3.5622,-3.6118,-3.6374,-3.6395,-3.7397,-3.7876,-3.7894,-3.8433,-3.8673,0.0,0.0,-4.139,-3.9174,0.0,0.0,0.0,0.0,0.0,0.0,0.0,0.0,0.0,0.0,0.0,0.0,0.0,0.0,0.0,0.0,0.0,0.0,0.0,0.0,0.0,0.0,0.0,0.0,-3.6911,0.0,0.0,-3.7725,-3.7584,-3.8063,-3.7644,-3.7105,-3.6492,-3.6267,-3.5938,-3.5504,-3.6022,-3.6799,-3.7822,-3.8346,-3.9146,-4.0096,-4.0096,-4.0096,-4.0096,-4.0096,-4.0096,-4.0096,-4.0096,-4.0096,-4.0096,-4.0096,-4.0096,-4.0096,-4.0096,-4.0096,-4.0096,-4.0096,-3.9756,-3.9411,-3.9927,-3.9731,-3.9411,-3.9952,-4.0096,-4.0096,-4.0096,-4.0096,-4.0096,-4.0096,-3.9554,-3.892,-3.8684,-3.8633,-3.8633,-3.8633,-3.9208,-3.9808,-4.0062,-3.9461,-3.9096,-3.9648,-3.9512,-3.9174,-3.8684,-3.821,-3.7702,-3.7195,-3.6688,-3.6383,-3.6383,-3.591,-3.56,-3.56,-3.56,-3.56,-3.56,-3.56,-3.56,-3.56,-3.5783,-3.6049,-3.6395,-3.7097,-3.7596,-3.7911,-3.8449,-3.8707,-3.9817,-4.0313,0.0,-3.8982,-3.8564,0.0,-3.7781,0.0,0.0,0.0,0.0,0.0,0.0,0.0,0.0,0.0,0.0,0.0,0.0,-3.845,0.0,0.0,0.0,0.0,0.0,0.0,-3.963,-4.0498,0.0,0.0,0.0,0.0,-3.8252,-3.873,-3.8287,-3.7764,-3.7165,-3.6926,-3.6492,-3.5848,-3.6129,-3.6801,-3.7822,-3.8064,-3.8887,-4.0096,-4.0096,-4.0096,-4.0096,-4.0096,-4.0096,-4.007,-3.9782,-3.985,-4.0096,-4.0096,-4.0096,-4.0096,-4.0096,-4.0096,-4.0096,-4.0096,-3.9756,-3.9437,-3.9952,-3.9756,-3.942,-3.9952,-4.0096,-4.0096,-4.0096,-4.0096,-4.0096,-4.0096,-3.932,-3.8564,-3.8564,-3.837,-3.8174,-3.8174,-3.8797,-3.9279,-3.9279,-3.8843,-3.8772,-3.9558,-3.9054,-3.8472,-3.8223,-3.7775,-3.7469,-3.7484,-3.704,-3.6867,-3.7178,-3.6721,-3.6315,-3.6045,-3.6028,-3.591,-3.5616,-3.56,-3.56,-3.56,-3.56,-3.5963,-3.6684,-3.7038,-3.7542,-3.82,-3.8546,-3.8707]},{"header":{"parameterUnit":"m.s-1","parameterCategory":1,"la1":30.6,"la2":29.2853,"lo1":-89.7004,"lo2":-87.6739,"dy":0.0162,"dx":0.0183,"nx":112,"ny":82,"refTime":"2025-04-24T18:00:00:Z","depth":0,"parameterNumber":3,"parameterNumberName":"V-component_of_WINDS"},"data":[0.0,0.0,0.0,0.0,0.0,0.0,0.0,0.0,0.0,0.0,0.0,0.0,0.0,0.0,0.0,0.0,0.0,0.0,0.0,0.0,0.0,0.0,0.0,0.0,0.0,0.0,0.0,0.0,0.0,0.0,0.0,0.0,0.0,0.0,0.0,0.0,0.0,0.0,0.0,0.0,0.0,0.0,0.0,0.0,0.0,0.0,0.0,0.0,0.0,0.0,0.0,0.0,0.0,0.0,0.0,0.0,0.0,0.0,0.0,0.0,0.0,0.0,0.0,0.0,0.0,0.0,0.0,0.0,0.0,0.0,0.0,0.0,0.0,0.0,0.0,0.0,0.0,0.0,0.0,0.0,0.0,0.0,0.0,0.0,0.0,0.0,0.0,0.0,0.0,0.0,1.3308,1.0265,0.7224,0.4152,0.107,-0.284,-0.5966,-0.8072,0.0,0.0,0.0,0.0,0.0,0.0,0.0,0.0,0.0,0.0,0.0,0.0,0.0,0.0,0.0,0.0,0.0,0.0,0.0,0.0,0.0,0.0,0.0,0.0,0.0,0.0,0.0,0.0,0.0,0.0,0.0,0.0,0.0,0.0,0.0,0.0,0.0,0.0,0.0,0.0,0.0,0.0,0.0,0.0,0.0,0.0,0.0,0.0,0.0,0.0,0.0,0.0,0.0,0.0,0.0,0.0,0.0,0.0,0.0,0.0,0.0,0.0,0.0,0.0,0.0,0.0,0.0,0.0,0.0,0.0,0.0,0.0,0.0,0.0,0.0,0.0,0.0,0.0,0.0,0.0,0.0,0.0,0.0,0.0,0.0,0.0,0.0,0.0,0.0,0.0,0.0,0.0,0.0,0.0,0.0,0.0,0.0,0.0,0.0,0.0,0.0,0.0,0.0,0.0,1.2975,1.0774,0.7464,0.5162,0.4622,-0.1386,-0.5459,-0.6315,0.0,0.0,0.0,0.0,0.0,0.0,0.0,0.0,0.0,0.0,0.0,0.0,0.0,0.0,0.0,0.0,0.0,0.0,0.0,0.0,0.0,0.0,0.0,0.0,0.0,0.0,0.0,0.0,0.0,0.0,0.0,0.0,0.0,0.0,0.0,0.0,0.0,0.0,0.0,0.0,0.0,0.0,0.0,0.0,0.0,0.0,0.0,0.0,0.0,0.0,0.0,0.0,0.0,0.0,0.0,0.0,0.0,0.0,0.0,0.0,0.0,0.0,0.0,0.0,0.0,0.0,0.0,0.0,0.0,0.0,0.0,0.0,0.0,0.0,0.0,0.0,0.0,0.0,0.0,0.0,0.0,0.0,0.0,0.0,0.0,0.0,0.0,0.0,0.0,0.0,0.0,0.0,0.0,0.0,0.0,0.0,0.0,0.0,0.0,0.0,0.0,0.0,0.0,1.2714,1.2051,1.0833,0.8368,0.6431,0.5498,0.0726,-0.3055,-0.4932,-0.7284,0.0,0.0,0.0,0.0,0.0,0.0,0.0,0.0,0.0,0.0,0.0,0.0,0.0,0.0,0.0,0.0,0.0,0.0,0.0,0.0,0.0,0.0,0.0,0.0,0.0,0.0,0.0,0.0,0.0,0.0,0.0,0.0,0.0,0.0,0.0,0.0,0.0,0.0,0.0,0.0,0.0,0.0,0.0,0.0,0.0,0.0,0.0,0.0,0.0,0.0,0.0,0.0,0.0,0.0,0.0,0.0,0.0,0.0,0.0,0.0,0.0,0.0,0.0,0.0,0.0,0.0,0.0,0.0,0.0,0.0,0.0,0.0,0.0,0.0,0.0,0.0,0.0,0.0,0.0,0.0,0.0,0.0,0.0,0.0,0.0,0.0,0.0,0.0,0.0,0.0,0.0,0.0,0.0,0.0,0.0,0.0,0.0,0.0,0.0,0.0,0.0,0.0,1.2931,1.1677,1.0788,0.9105,0.7298,0.5563,0.2172,-0.0953,-0.3535,-0.5504,0.0,0.0,0.0,0.0,0.0,0.0,0.0,0.0,0.0,0.0,0.0,0.0,0.0,0.0,0.0,0.0,0.0,0.0,0.0,0.0,0.0,0.0,0.0,0.0,0.0,0.0,0.0,0.0,0.0,0.0,0.0,0.0,0.0,0.0,0.0,0.0,0.0,0.0,0.0,0.0,0.0,0.0,0.0,0.0,0.0,0.0,0.0,0.0,0.0,0.0,0.0,0.0,0.0,0.0,0.0,0.0,0.0,0.0,0.0,0.0,0.0,0.0,0.0,0.0,0.0,0.0,0.0,0.0,0.0,0.0,0.0,0.0,0.0,0.0,0.0,0.0,0.0,0.0,0.0,0.0,0.0,0.0,0.0,0.0,0.0,0.0,0.0,0.0,0.0,0.0,0.0,0.0,0.0,0.0,0.0,0.0,0.0,0.0,0.0,0.0,0.0,0.0,1.3269,1.2538,1.0909,0.9105,0.7298,0.5563,0.2087,-0.0626,-0.2066,-0.5013,0.0,0.0,0.0,0.0,0.0,0.0,0.0,0.0,0.0,0.0,0.0,0.0,0.0,0.0,0.0,0.0,0.0,0.0,0.0,0.0,0.0,0.0,0.0,0.0,0.0,0.0,0.0,0.0,0.0,0.0,0.0,0.0,0.0,0.0,0.0,0.0,0.0,0.0,0.0,0.0,0.0,0.0,0.0,0.0,0.0,0.0,0.0,0.0,0.0,0.0,0.0,0.0,0.0,0.0,0.0,0.0,0.0,0.0,0.0,0.0,0.0,0.0,0.0,0.0,0.0,0.0,0.0,0.0,0.0,0.0,0.0,0.0,0.0,0.0,0.0,0.0,0.0,0.0,0.0,0.0,0.0,0.0,0.0,0.0,0.0,0.0,0.0,0.0,0.0,0.0,0.0,0.0,0.0,0.0,0.0,0.0,0.0,0.0,0.0,0.0,0.0,0.0,1.4575,1.363,0.0,1.0767,0.8941,0.708,0.4709,0.221,-0.0471,0.0,0.0,0.0,0.0,0.0,0.0,0.0,0.0,0.0,0.0,0.0,0.0,0.0,0.0,0.0,0.0,0.0,0.0,0.0,0.0,0.0,0.0,0.0,0.0,0.0,0.0,0.0,0.0,0.0,0.0,0.0,0.0,0.0,0.0,0.0,0.0,0.0,0.0,0.0,0.0,0.0,0.0,0.0,0.0,0.0,0.0,0.0,0.0,0.0,0.0,0.0,0.0,0.0,0.0,0.0,0.0,0.0,0.0,0.0,0.0,0.0,0.0,0.0,0.0,0.0,0.0,0.0,0.0,0.0,0.0,0.0,0.0,0.0,0.0,0.0,0.0,0.0,0.0,0.0,0.0,0.0,0.0,0.0,0.0,0.0,0.0,0.0,0.0,0.0,0.0,0.0,0.0,0.0,0.0,0.0,0.0,0.0,0.0,0.0,0.0,0.0,0.0,1.5908,1.5341,1.4413,0.0,1.1653,0.9858,0.7891,0.6717,0.4613,0.1158,0.0,0.0,0.0,0.0,0.0,0.0,0.0,0.0,0.0,0.0,0.0,0.0,0.0,0.0,0.0,0.0,0.0,0.0,0.0,0.0,0.0,0.0,0.0,0.0,0.0,0.0,0.0,0.0,0.0,0.0,0.0,0.0,0.0,0.0,0.0,0.0,0.0,0.0,0.0,0.0,0.0,0.0,0.0,0.0,0.0,0.0,0.0,0.0,0.0,0.0,0.0,0.0,0.0,0.0,0.0,0.0,0.0,0.0,0.0,0.0,0.0,0.0,0.0,0.0,0.0,0.0,0.0,0.0,0.0,0.0,0.0,0.0,0.0,0.0,0.0,0.0,0.0,0.0,0.0,0.0,0.0,0.0,0.0,0.0,0.0,0.0,0.0,0.0,0.0,0.0,0.0,0.0,0.0,0.0,0.0,0.0,0.0,0.0,0.0,0.0,0.0,0.0,1.53,1.5475,1.4804,1.2909,1.1415,0.9709,0.7773,0.7617,0.6156,0.0,0.0,0.0,0.0,0.0,0.0,0.0,0.0,0.0,0.0,0.0,0.0,0.0,0.0,0.0,0.0,0.0,0.0,0.0,0.0,0.0,0.0,0.0,0.0,0.0,0.0,0.0,0.0,0.0,0.0,0.0,0.0,0.0,0.0,0.0,0.0,0.0,0.0,0.0,0.0,0.0,0.0,0.0,0.0,0.0,0.0,0.0,0.0,0.0,0.0,0.0,0.0,0.0,0.0,0.0,0.0,0.0,0.0,0.0,0.0,0.0,0.0,0.0,0.0,0.0,0.0,0.0,0.0,0.0,0.0,0.0,0.0,0.0,0.0,0.0,0.0,0.0,0.0,0.0,0.0,0.0,0.0,0.0,0.0,0.0,0.0,0.0,0.0,0.0,0.0,0.0,0.0,0.0,0.0,0.0,0.0,0.0,0.0,0.0,0.0,0.0,0.0,0.0,1.6955,1.7067,1.6323,1.4696,1.3065,1.127,0.9425,0.8189,0.6899,0.5566,0.0,0.0,0.0,0.0,0.0,0.0,0.0,0.0,0.0,0.0,0.0,0.0,0.0,0.0,0.0,0.0,0.0,0.0,0.0,0.0,0.0,0.0,0.0,0.0,0.0,0.0,0.0,0.0,0.0,0.0,0.0,0.0,0.0,0.0,0.0,0.0,0.0,0.0,0.0,0.0,0.0,0.0,0.0,0.0,0.0,0.0,0.0,0.0,0.0,0.0,0.0,0.0,0.0,0.0,0.0,0.0,0.0,0.0,0.0,0.0,0.0,0.0,0.0,0.0,0.0,0.0,0.0,0.0,0.0,0.0,0.0,0.0,0.0,0.0,0.0,0.0,0.0,0.0,0.0,0.0,0.0,0.0,0.0,0.0,0.0,0.0,0.0,0.0,0.0,0.0,0.0,0.0,0.0,0.0,0.0,0.0,0.0,0.0,0.0,0.0,0.0,0.0,1.7338,1.7547,1.7057,1.6094,1.3967,1.2122,1.0909,0.9223,0.7824,0.677,0.0,0.0,0.0,0.0,0.0,0.0,0.0,0.0,0.0,0.0,0.0,0.0,0.0,0.0,0.0,0.0,0.0,0.0,0.0,0.0,0.0,0.0,0.0,0.0,0.0,0.0,0.0,0.0,0.0,0.0,0.0,0.0,0.0,0.0,0.0,0.0,0.0,0.0,0.0,0.0,0.0,0.0,0.0,0.0,0.0,0.0,0.0,0.0,0.0,0.0,0.0,0.0,0.0,0.0,0.0,0.0,0.0,0.0,0.0,0.0,0.0,0.0,0.0,0.0,0.0,0.0,0.0,0.0,0.0,0.0,0.0,0.0,0.0,0.0,0.0,0.0,0.0,0.0,0.0,0.0,0.0,0.0,0.0,0.0,0.0,0.0,0.0,0.0,0.0,0.0,0.0,0.0,0.0,0.0,0.0,0.0,0.0,0.0,0.0,0.0,0.0,0.0,1.691,1.7266,1.7232,1.6956,1.4425,1.2578,1.2164,1.0793,0.9188,0.7346,0.0,0.0,0.0,0.0,0.0,0.0,0.0,0.0,0.0,0.0,0.0,0.0,0.0,0.0,0.0,0.0,0.0,0.0,0.0,0.0,0.0,0.0,0.0,0.0,0.0,0.0,0.0,0.0,0.0,0.0,0.0,0.0,0.0,0.0,0.0,0.0,0.0,0.0,0.0,0.0,0.0,0.0,0.0,0.0,0.0,0.0,0.0,0.0,0.0,0.0,0.0,0.0,0.0,0.0,0.0,0.0,0.0,0.0,0.0,0.0,0.7074,0.0,0.0,0.0,0.0,0.0,0.0,0.0,0.0,0.0,0.0,0.0,0.0,0.0,0.0,0.0,0.0,0.0,0.0,0.0,0.0,0.0,0.0,0.0,0.0,0.0,0.0,0.0,0.0,0.0,0.0,0.0,0.0,0.0,0.0,0.0,0.0,0.0,0.0,0.0,0.0,0.0,1.7127,1.7956,1.7786,1.6702,1.5834,1.4786,1.3427,1.2942,1.2266,1.1394,0.9343,0.0,0.0,0.0,0.0,0.0,0.0,0.0,0.0,0.0,0.0,0.0,0.0,0.0,0.0,0.0,0.0,0.0,0.0,0.0,0.0,0.0,0.0,0.0,0.0,0.0,0.0,0.0,0.0,0.0,0.0,0.0,0.0,0.0,0.0,0.0,0.0,0.0,0.0,0.0,0.0,0.0,0.0,0.0,0.0,0.0,0.0,0.0,0.0,0.0,0.0,0.0,0.0,0.0,0.0,0.0,0.0,0.0,0.0,0.0,0.0,0.6426,0.0,0.0,0.0,0.0,0.0,0.0,0.0,0.0,0.0,0.0,0.0,0.0,0.0,0.0,0.0,0.0,0.0,0.0,0.0,0.0,0.0,0.0,0.0,0.0,0.0,0.0,0.0,0.0,0.0,0.0,0.0,0.0,0.0,0.0,0.0,0.0,0.0,0.0,0.0,0.0,1.6876,1.7943,1.8203,1.7541,1.6618,1.5748,1.4832,1.3997,1.3306,1.2836,1.1309,0.0,0.0,0.0,0.0,0.0,0.0,0.0,0.0,0.0,0.0,0.0,0.0,0.0,0.0,0.0,0.0,0.0,0.0,0.0,0.0,0.0,0.0,0.0,0.0,0.0,0.0,0.0,0.0,0.0,0.0,0.0,0.0,0.0,0.0,0.0,0.0,0.0,0.0,0.0,0.0,0.0,0.0,0.0,0.0,0.0,0.0,0.0,0.0,0.0,0.0,0.0,0.0,0.0,1.0559,1.0403,1.0399,1.007,1.0022,1.0025,0.8582,0.7894,0.77,0.609,0.0,0.0,0.0,0.0,0.0,0.0,0.0,0.0,0.0,0.0,0.0,0.0,0.0,0.0,0.0,0.0,0.0,0.0,0.0,0.0,0.0,0.0,0.0,0.0,1.6643,1.6486,0.0,0.0,0.0,0.0,0.0,0.0,0.0,0.0,0.0,0.0,0.0,0.0,1.6649,1.7722,1.835,1.8404,1.7165,1.6312,1.6199,1.497,1.4072,1.374,1.3206,1.1859,0.0,0.0,0.0,0.0,0.0,0.0,0.0,0.0,0.0,0.0,0.0,0.0,0.0,0.0,0.0,0.0,0.0,0.0,0.0,0.0,0.0,0.0,0.0,0.0,0.0,0.0,0.0,0.0,0.0,0.0,0.0,0.0,1.9746,1.9168,0.0,0.0,0.0,0.0,0.0,0.0,0.0,0.0,0.0,0.0,0.0,0.0,0.0,1.611,1.4697,1.4973,1.499,1.4742,1.3468,1.2856,1.2783,1.1163,1.0487,1.0622,1.0252,0.0,0.7783,0.7549,0.0,0.0,0.0,0.0,0.0,0.0,0.0,0.0,0.0,0.0,0.0,0.0,0.0,0.0,0.0,0.0,0.0,0.0,0.0,0.0,0.0,0.0,1.9178,1.8966,1.8955,1.8851,0.0,1.5536,1.309,1.272,1.24,0.0,0.0,0.0,0.0,0.0,0.0,0.0,1.7199,1.7602,1.7809,1.8022,1.7695,1.741,1.7371,1.7205,1.6957,1.6639,1.5506,1.4469,1.3732,1.0219,0.0,0.0,0.0,0.0,0.0,0.0,0.0,0.0,0.0,0.0,0.0,0.0,0.0,0.0,0.0,0.0,0.0,0.0,0.0,0.0,0.0,0.0,0.0,0.0,0.0,0.0,0.0,0.0,0.0,2.2042,2.1393,1.9861,1.7513,1.6049,0.0,0.0,0.0,0.0,0.0,0.0,0.0,0.0,0.0,1.7931,1.8567,1.8282,1.6948,1.7109,1.6709,1.5699,1.5053,1.4227,1.3255,1.2461,1.1512,1.0595,1.0612,1.0058,0.9217,0.9137,0.8564,0.7837,0.0,0.0,0.0,0.0,0.934,0.935,0.9381,0.8997,0.0,1.0047,0.0,0.0,0.0,0.0,0.0,0.0,0.0,0.0,0.0,0.0,0.0,1.9383,1.9424,1.939,1.9199,1.7949,1.6368,0.0,1.362,1.2663,1.1913,0.0,0.0,0.0,0.0,1.6148,1.7216,1.7534,1.7635,1.7769,1.7662,1.7582,1.7582,1.7582,1.7528,1.7454,1.6711,1.5888,1.4928,1.2769,1.0523,0.0,0.0,0.0,0.0,0.0,0.0,0.0,0.0,0.0,0.0,0.0,0.0,0.0,0.0,0.0,0.0,0.0,0.0,0.0,0.0,0.0,0.0,0.0,0.0,0.0,0.0,0.0,0.0,2.462,2.3878,2.1795,2.0186,1.8777,0.0,0.0,0.0,0.0,0.0,0.0,1.9579,1.9586,1.9853,2.0434,2.0454,2.0028,1.9152,1.9158,1.8506,1.7211,1.6754,1.5913,1.4619,1.3713,1.251,1.1135,1.0806,1.0517,1.0273,1.0221,1.0125,0.9958,0.9585,0.9415,0.9388,0.9425,0.9439,0.9459,0.9612,0.9663,0.9874,1.1392,0.0,1.2565,1.3907,0.0,0.0,0.0,0.0,1.8282,1.8637,1.8878,1.9092,1.9319,1.9424,1.9424,1.9424,1.931,1.8588,0.0,1.5303,1.4126,1.3269,0.0,0.0,0.0,0.0,1.6927,1.7273,1.7501,1.7582,1.7582,1.7582,1.7582,1.7582,1.7515,1.7554,1.7582,1.736,1.6729,1.5734,1.4779,1.2872,0.9902,0.0,0.0,0.0,0.0,0.0,0.0,0.0,0.0,0.0,0.0,0.0,0.0,0.0,0.0,0.0,0.0,0.0,0.0,0.0,0.0,0.0,0.0,0.0,0.0,0.0,0.0,0.0,0.0,0.0,2.6778,2.5549,0.0,0.0,0.0,0.0,1.9492,1.941,1.9606,2.016,2.0187,2.0461,2.1049,2.1062,2.1012,2.0976,2.0982,2.0912,2.0849,1.9158,1.8314,1.8116,1.4814,1.3154,1.2849,1.1203,1.0419,1.028,1.0273,1.0097,0.9819,0.9659,0.951,0.9398,0.9544,0.9598,0.9618,0.9761,0.9812,1.0023,1.1508,1.2822,1.4048,1.5535,1.6048,0.0,0.0,1.8657,1.8945,1.9245,1.9332,1.941,1.9424,1.9424,1.9424,1.9424,1.8931,1.8517,0.0,1.8264,1.7967,1.706,0.0,1.7023,1.701,1.7094,1.7286,1.7522,1.7569,1.7582,1.7582,1.7582,1.7582,1.7582,1.738,1.734,1.7562,1.736,1.7148,1.7096,1.5586,1.4477,1.3848,0.9956,0.0,0.0,0.0,0.0,0.0,0.0,0.0,0.0,0.0,0.0,0.0,0.0,0.0,0.0,0.0,0.0,0.0,0.0,0.0,0.0,0.0,0.0,0.0,0.0,0.0,0.0,0.0,0.0,2.729,2.617,0.0,2.3843,2.3052,2.2349,2.1568,2.0867,2.0581,2.0782,2.0795,2.0895,2.1102,2.1109,2.1109,2.1109,2.1109,2.1109,2.1109,2.0456,1.961,1.8436,1.7052,1.5706,1.4427,1.2674,1.2324,1.2974,1.206,1.0988,0.9889,0.9802,0.971,0.9673,0.9727,0.9744,0.9751,0.9802,0.9822,1.0229,1.2848,1.5369,1.7514,1.8078,1.8218,1.833,1.8911,1.9132,1.9232,1.9339,1.9424,1.9377,1.9125,1.9085,1.9032,1.8844,1.8637,1.8437,1.8243,1.8043,1.7682,1.6987,1.7181,1.7353,1.6921,1.7188,1.7468,1.7569,1.7582,1.7508,1.7373,1.7353,1.728,1.7034,1.6921,1.6907,1.7014,1.6921,1.6867,1.6867,1.6169,1.5269,1.4229,1.2558,1.063,0.0,0.0,0.0,0.0,0.0,0.0,0.0,0.0,0.0,0.0,0.0,0.0,0.0,0.0,0.0,0.0,0.0,0.0,0.0,0.0,0.0,0.0,0.0,0.0,0.0,0.0,2.8457,2.8106,2.7656,2.6941,2.5835,2.5224,2.4346,2.312,2.2355,2.1727,2.1109,2.1109,2.1109,2.1109,2.1109,2.1109,2.1109,2.1109,2.1109,2.1109,2.1109,2.0474,1.9214,1.8459,1.7309,1.594,1.4151,1.384,1.4495,1.356,1.2525,1.1478,1.0883,1.06,1.06,1.06,1.06,1.0593,1.0541,1.1168,1.24,1.4455,1.6894,1.9072,1.9072,1.9138,1.9199,1.9098,1.9145,1.9192,1.9098,1.9072,1.9025,1.8824,1.8778,1.8724,1.8537,1.841,1.8283,1.8029,1.7883,1.7582,1.7088,1.7241,1.7268,1.678,1.7041,1.7248,1.7154,1.7228,1.7215,1.7072,1.7052,1.6921,1.6727,1.652,1.6493,1.6693,1.652,1.6453,1.6553,1.6279,1.5628,1.4555,1.3787,1.2253,0.9904,0.0,0.0,0.0,0.0,0.0,0.0,0.0,0.0,0.0,0.0,0.0,0.0,0.0,0.0,0.0,0.0,0.0,0.0,0.0,0.0,0.0,0.0,0.0,2.9646,2.9951,3.0068,2.9658,3.0371,3.0112,2.8079,2.8201,2.7091,2.3938,2.3636,2.2897,2.1172,2.1109,2.1109,2.1109,2.1109,2.1109,2.1109,2.1109,2.1109,2.1109,2.1096,2.0949,2.0613,1.8938,1.7887,1.7409,1.564,1.4791,1.4723,1.4723,1.4663,1.4545,1.2868,1.2273,1.2273,1.2273,1.2269,1.2239,1.1938,1.3902,1.6464,1.6162,1.7173,1.849,1.849,1.8684,1.8851,1.8571,1.8691,1.8844,1.8564,1.849,1.849,1.8477,1.8477,1.8477,1.8464,1.8237,1.7975,1.7975,1.7969,1.7869,1.7622,1.7387,1.7099,1.6747,1.6707,0.0,1.6375,1.6533,1.67,1.673,1.6723,1.6723,1.676,1.6236,1.6107,1.669,1.6194,1.6006,1.6246,1.5979,1.5565,1.5048,1.3591,1.2399,1.1543,0.0,0.0,0.0,0.0,0.0,0.0,0.0,0.0,0.0,0.0,0.0,0.0,0.0,0.0,0.0,0.0,0.0,0.0,0.0,0.0,0.0,2.9385,3.0029,3.0029,3.041,3.0654,3.0547,3.0742,3.0665,3.0112,2.9033,2.7572,2.5497,2.4232,2.2897,2.1172,2.1109,2.1109,2.1109,2.1109,2.1109,2.1109,2.1109,2.1109,2.1109,2.0895,2.0755,2.0661,1.9735,1.9275,1.9054,1.7215,1.7038,1.7994,1.6791,1.6315,1.6197,1.4599,1.3944,1.3944,1.3944,1.3843,1.3615,1.3289,1.4525,1.6174,1.6104,1.7173,1.849,1.849,1.8544,1.8591,1.851,1.8551,1.8591,1.851,1.849,1.8437,1.8223,1.8115,1.8055,1.7883,1.7769,1.7709,1.7709,1.7542,1.742,1.7333,1.7253,1.7099,1.6747,1.6707,0.0,1.66,1.6653,1.6837,1.7258,1.7304,1.7574,1.8249,1.8085,1.7804,1.7458,1.7272,1.6798,1.5993,1.5872,1.5752,1.5591,1.4021,1.3129,0.0,0.0,0.0,0.0,0.0,0.0,0.0,0.0,0.0,0.0,0.0,0.0,0.0,0.0,0.0,0.0,0.0,0.0,0.0,0.0,0.0,0.0,2.9922,3.0488,3.0488,3.0723,3.0889,3.0889,3.0889,3.0889,3.0889,3.002,2.8792,2.7134,2.5505,2.3869,2.2223,2.1481,2.1109,2.1109,2.1109,2.1109,2.1109,2.1109,2.1049,2.0922,2.0755,2.0548,2.0294,1.996,1.9733,0.0,1.8472,1.8525,1.9307,1.8402,1.7624,0.0,0.0,0.0,0.0,0.0,1.5718,1.6006,1.4912,1.5584,1.687,1.6746,1.7377,1.811,1.811,1.8203,1.8277,1.815,1.8203,1.827,1.8143,1.811,1.8063,1.7896,1.7856,1.7802,1.7622,1.7488,1.7454,1.7454,1.7168,0.0,1.6851,1.6831,1.673,1.6386,1.6339,1.6293,1.6172,1.6739,1.7255,1.7549,1.8048,1.8555,1.9109,1.8998,0.0,0.0,0.0,1.7972,1.7191,1.6561,0.0,0.0,0.0,0.0,0.0,0.0,0.0,0.0,1.1943,1.1637,0.0,0.0,0.0,0.0,0.0,0.0,0.0,0.0,0.0,0.0,0.0,0.0,0.0,0.0,0.0,0.0,3.0342,3.0889,3.0889,3.0889,3.0889,3.0889,3.0889,3.0889,3.0889,3.0889,3.0206,2.8536,2.6893,2.5322,2.3698,0.0,0.0,0.0,0.0,2.1109,2.1109,2.1076,2.0935,2.0675,2.0608,2.0307,1.98,1.9766,1.9613,1.9424,1.9424,1.9424,1.9424,1.939,1.8455,1.7183,1.7061,1.7009,1.695,1.6805,1.7622,1.8513,1.6612,0.0,0.0,1.7669,1.7582,1.7582,1.7582,1.7776,1.7936,1.7662,1.7782,1.7876,1.7655,1.7582,1.7582,1.7582,1.7582,1.7575,1.7542,1.738,1.7192,1.7159,1.686,1.6573,1.6319,1.6321,1.6172,1.5872,1.5784,1.5684,1.5478,1.6772,1.7716,1.7817,0.0,0.0,1.9839,1.9633,1.9563,1.9691,1.9326,1.9159,1.9159,1.7825,1.7144,1.7251,1.5979,1.5448,1.5784,1.5784,1.5784,1.5704,1.2849,1.2314,0.0,0.0,0.0,0.0,0.0,0.0,0.0,0.0,0.0,0.0,0.0,0.0,0.0,0.0,0.0,3.0332,3.0537,3.0889,3.0889,3.0889,3.0889,3.0889,3.0889,3.0889,3.0889,3.0889,3.0206,2.8536,2.6893,2.5322,2.3698,2.2034,2.1109,2.1109,2.1109,2.1109,2.1109,2.0882,2.0728,2.0668,0.0,0.0,1.9793,1.9559,1.9419,1.9424,1.9424,1.9424,1.941,1.9112,1.8695,1.8123,1.7338,1.6838,1.6742,1.7754,1.8141,1.8054,1.7469,1.745,1.7662,1.7602,1.7582,1.7582,1.7582,1.7622,0.0,1.7602,1.7622,1.7655,1.7595,1.7582,1.7582,1.7582,1.7582,1.7515,1.7333,1.7239,1.7132,1.684,1.6553,1.6339,1.6335,1.6321,1.6172,1.5872,1.5784,1.5758,1.5752,1.6861,1.7949,1.8607,1.9725,2.0876,2.1834,2.1888,2.1612,2.0998,2.0011,1.9435,1.9435,1.9142,1.8551,1.7633,1.7296,1.6736,1.5784,1.5784,1.5784,1.5778,1.5163,1.5024,0.0,0.0,0.0,0.0,0.0,0.0,0.0,0.0,0.0,0.0,0.0,3.4964,3.4075,0.0,3.3046,3.1866,3.1234,3.0889,3.0889,3.0889,3.0889,3.0889,3.0889,3.0889,3.0889,3.0889,3.0577,2.9717,2.8119,2.647,2.4901,2.3256,2.1971,2.1109,2.0969,2.0895,2.0895,2.0601,2.0381,2.0234,1.994,1.9726,1.9579,1.9432,1.9424,1.9424,1.9424,1.9279,1.9061,1.795,1.741,1.7254,1.6771,1.6966,1.7572,1.8033,1.8122,1.7949,1.7689,1.7582,1.7582,1.7582,1.7582,1.7582,1.7582,1.7582,1.7582,1.7582,1.7582,1.7582,1.7582,1.7582,1.7582,1.7582,1.7521,1.738,1.7233,1.6971,1.6717,1.652,1.6253,1.6052,1.6052,1.6052,1.5999,1.5852,1.5784,1.5784,1.5784,1.7444,1.8746,1.9159,2.0837,2.2144,2.2736,2.2779,2.264,2.2252,2.1632,2.1311,2.1311,2.0535,1.9538,1.8427,1.7697,1.6793,1.5611,1.5711,1.5784,1.5784,1.5784,1.5784,0.0,0.0,0.0,0.0,0.0,0.0,0.0,3.7962,3.8429,3.9382,3.8761,3.7791,3.6992,3.5862,3.4589,3.3286,3.2092,3.1218,3.0947,3.0889,3.0889,3.0889,3.0889,3.0889,3.0889,3.0889,3.0889,3.0889,2.9344,2.7683,2.6098,2.4409,2.274,2.1085,2.0742,2.0588,2.0588,2.0294,2.0034,1.98,1.974,1.9593,1.9424,1.9424,1.9424,1.9424,1.9305,1.9078,1.8619,1.7067,1.6432,1.6384,1.6384,1.7177,1.8297,1.8062,1.7787,1.7479,1.7231,1.7147,1.7147,1.7147,1.7364,1.7582,1.7582,1.7582,1.7582,1.7582,1.7582,1.7582,1.7582,1.7542,1.7502,1.7502,1.7326,1.7099,1.7045,1.6656,1.6301,1.6199,1.5992,1.5784,1.5784,1.5784,1.5784,1.5784,1.5784,1.5784,1.5784,1.7987,1.9497,1.9497,2.1676,2.3091,2.3091,2.3091,2.3091,2.3091,2.3023,2.3013,2.3091,2.1553,2.0193,1.9137,1.7816,1.6567,1.5398,1.5691,1.5784,1.5784,1.5784,1.5784,3.5118,3.573,3.6999,3.8594,3.8878,3.9479,0.0,4.1989,4.1297,4.1294,4.1215,4.0333,3.7875,3.7263,3.6244,3.3564,3.2964,3.2426,3.1054,3.0889,3.0889,3.0889,3.0889,3.0889,3.0889,3.0889,3.0889,3.0889,2.9344,2.7683,2.6098,2.4183,2.2414,2.0784,2.0434,2.0281,2.0281,1.9993,1.9833,1.98,1.9539,1.9457,1.9424,1.9424,1.9424,1.9352,1.9085,1.8657,1.8082,1.7886,1.7654,1.741,1.741,1.7516,1.7709,1.7902,1.7044,1.5672,1.5642,1.563,1.563,1.563,1.6552,1.7582,1.7582,1.7582,1.7582,1.7582,1.7582,1.7582,1.7582,1.744,1.7246,1.7246,1.6974,1.6687,1.6426,1.6368,1.6192,1.5925,1.5852,1.5784,1.5784,1.5784,1.5784,1.5784,1.5784,1.5784,1.5784,1.7987,1.9497,1.9497,2.1676,2.3091,2.3091,2.3091,2.3091,2.3091,2.275,2.2711,2.3081,2.1553,2.0193,1.9137,1.8109,1.6896,1.5398,1.5691,1.5784,1.5784,1.5784,1.5784,3.7561,3.8949,4.0523,4.2202,4.2875,4.3536,4.5115,4.4342,4.3415,4.3747,4.2641,4.1243,4.0109,3.8549,3.7079,3.5868,3.4225,3.2861,3.2264,3.1441,3.0889,3.0889,3.0889,3.0889,3.0889,3.0889,3.0889,3.0889,3.0025,2.883,2.7494,2.616,2.4819,2.3407,2.2846,2.2171,2.1242,2.0987,2.0445,1.9546,1.9426,1.9424,1.9424,1.9424,1.9272,1.9092,1.8798,1.843,1.7975,1.7849,1.7702,1.7582,1.7582,1.7582,1.7595,1.7729,1.6766,1.5417,1.5417,1.5417,1.5417,1.5417,1.6393,1.7582,1.7582,1.7582,1.7582,1.7582,1.7514,1.738,1.738,1.7159,1.7089,1.7781,1.7201,1.661,1.7203,1.6656,1.5979,1.5804,1.5784,1.5784,1.5784,1.5784,1.5954,1.6455,1.6081,1.5784,1.5784,1.7987,2.0042,2.1454,2.2292,2.273,2.273,2.2549,2.2412,2.2412,2.2246,2.2227,2.2402,2.0899,1.9567,1.8461,1.735,1.6138,1.489,1.5184,1.5324,1.5331,1.5498,1.5484,3.8985,4.106,4.3101,4.4909,4.6114,4.7017,4.77,4.672,4.5639,4.5769,4.4121,4.2412,4.1739,3.9943,3.8392,3.7624,3.5387,3.3575,3.3191,3.1815,3.0889,3.0889,3.0889,3.0889,3.0889,3.0889,3.0889,3.0889,3.0576,2.9747,2.8314,2.7548,2.6495,2.5075,2.4482,2.365,2.2506,2.1926,2.1088,1.9982,1.9591,1.9424,1.9424,1.9279,1.9085,1.8784,1.8497,1.8196,1.7849,1.7675,1.7582,1.7582,1.7582,1.7582,1.7582,1.7582,1.644,1.4877,1.5257,1.515,1.4877,1.5257,1.6393,1.7582,1.7582,1.7582,1.7582,1.7582,1.7427,1.7302,1.7603,1.717,1.6878,1.8089,1.7266,1.6387,1.728,1.6586,1.5784,1.5784,1.5784,1.592,1.6244,1.6339,1.6624,1.7561,1.7116,1.6668,1.6621,1.8609,2.0765,2.2708,2.2652,2.2471,2.2344,2.206,2.1885,2.1885,2.1777,2.1625,2.1432,1.9925,1.8619,1.7535,1.6407,1.5352,1.4522,1.4823,1.5008,1.5015,1.5177,1.5209,3.9064,4.164,4.4398,4.6645,4.8253,4.9485,5.0135,4.9449,4.8337,4.7121,4.6035,4.4549,4.207,4.1555,4.0616,3.793,3.6217,3.4736,3.3293,3.1815,3.0889,3.0889,3.0889,3.0889,0.0,3.0889,3.0889,3.0889,3.0879,2.9957,2.7935,2.7461,2.6373,2.4416,2.398,2.3782,2.3727,2.2315,2.1586,2.1529,2.009,1.9424,1.9417,1.9065,1.8778,1.8484,1.8135,1.7883,1.7595,1.7589,1.7582,1.7582,1.7582,1.7582,1.7582,1.7582,1.5796,1.3534,1.4936,1.4502,1.3588,1.4936,1.6393,1.7582,1.7582,1.7582,1.7582,1.7582,1.7427,1.7449,1.8651,1.7647,1.662,1.7856,1.6949,1.5845,1.5845,1.5838,1.5784,1.5784,1.5784,1.6197,1.7412,1.7638,1.8048,1.9252,1.9056,1.8799,1.8738,2.0207,2.1565,2.244,2.2519,2.2344,2.1934,2.1894,2.1885,2.1885,2.1484,2.0929,2.0271,1.87,1.7375,1.6387,1.5483,1.4847,1.4522,1.4823,1.5008,1.5008,1.5022,1.5015,4.146,4.4211,4.6952,4.9868,5.0818,5.112,5.1328,5.0071,4.8687,4.8254,4.6353,4.426,4.2628,4.1544,4.0398,3.8725,3.7474,3.6217,3.4792,3.3304,3.1988,3.1005,3.0889,0.0,0.0,0.0,0.0,3.0889,3.0342,2.9831,2.9422,2.8452,2.7757,2.7373,2.6984,2.6327,2.5325,2.4812,2.359,2.1586,2.009,1.9424,1.9417,1.9058,1.8764,1.8477,1.8176,1.7869,1.7582,1.7582,1.7582,1.7582,1.7582,1.7582,1.7582,1.7582,1.6393,1.477,1.5257,1.5097,1.477,1.5257,1.6393,1.7582,1.7582,1.7582,1.7542,1.74,1.7132,1.6908,1.7153,1.6607,1.6259,1.7526,1.6786,1.6237,1.7894,1.6976,1.6062,1.6897,1.7037,1.7178,1.7645,1.8365,1.9187,2.0147,1.947,1.9037,1.9531,2.0084,2.0866,2.1974,2.1836,2.157,2.1465,2.1182,2.1045,2.1045,2.0869,2.0366,1.9426,1.8896,1.7761,1.5944,1.56,1.5071,1.4229,1.4335,1.4382,1.4432,1.4583,1.4569,4.2493,4.5143,4.7674,5.0922,5.1818,5.1993,5.2383,5.0838,4.9376,4.9376,4.7072,4.4733,4.3525,4.2186,4.0812,3.9449,3.8116,3.6702,3.5183,3.3698,3.2287,3.1034,3.0889,3.0889,0.0,0.0,0.0,3.0889,3.0361,3.0019,2.9971,2.9199,2.873,2.8701,2.8437,2.7843,2.6888,2.6381,2.4599,2.1586,2.009,1.9312,1.9199,1.8905,1.8611,1.8317,1.8016,1.7769,1.7582,1.7582,1.7582,1.7582,1.7582,1.7582,1.7582,1.7582,1.6982,1.6174,1.6174,1.5849,1.547,1.6009,1.6823,1.7582,1.7582,1.7508,1.744,1.7253,1.6911,1.6605,1.6898,1.6382,1.6103,1.7412,1.7084,1.6936,1.8495,1.794,1.7343,1.818,1.8226,1.8278,1.868,1.9647,2.0499,2.0841,2.0173,1.9915,2.0578,2.0694,2.094,2.1578,2.1356,2.1132,2.1016,2.0732,2.0605,2.0605,2.0605,1.9923,1.843,1.8798,1.7779,1.5179,1.5496,1.5179,1.4088,1.4088,1.4088,1.4088,1.4282,1.4262,4.213,4.441,4.6472,4.97,5.11,5.1963,5.2957,5.1724,5.0265,5.0195,4.8065,4.5748,4.4366,4.3181,4.1766,4.0015,3.8091,3.6297,3.4786,3.3267,3.2024,3.1121,3.0947,0.0,0.0,0.0,0.0,3.0889,0.0,3.0459,2.9619,2.9587,2.9131,2.832,2.8291,2.8291,2.8291,2.6825,2.4646,2.1805,2.0242,1.9307,1.9025,1.866,1.831,1.7975,1.7716,1.7582,1.7582,1.7582,1.7582,1.7582,1.7582,1.7582,1.7582,1.7582,1.7582,1.7582,1.7582,1.6658,1.5743,1.7147,1.7582,1.7582,1.7582,1.7434,1.7199,1.7186,1.6764,1.6551,1.7676,1.688,1.6103,1.7412,1.7692,1.7731,1.787,1.8726,1.9542,1.9579,1.9253,1.935,2.0558,2.1377,2.1709,2.1259,2.1171,2.1348,2.1768,2.1816,2.166,2.12,2.1161,2.1025,2.0635,2.0605,2.0605,2.0605,2.0566,1.955,1.7383,1.839,1.7464,1.4166,1.522,1.522,1.4088,1.4088,1.4088,1.4088,1.4088,1.4088,4.2298,4.3209,4.3794,4.5892,4.7544,4.8792,4.906,4.915,4.8842,4.7477,4.566,4.3516,4.0946,4.0475,4.0047,3.8689,3.8755,0.0,3.6932,3.5414,3.405,3.268,3.1546,3.0889,3.0889,3.0889,0.0,0.0,3.0283,2.9805,2.9636,2.8965,2.8516,2.8301,2.8291,2.8291,2.8291,2.6825,2.5709,2.4922,2.2052,2.063,2.0543,1.8872,1.8062,1.7975,1.7716,1.7582,1.7582,1.7582,1.7582,1.7582,1.7582,1.7582,1.7582,1.7582,1.7582,1.7582,1.7582,1.7364,1.7094,1.747,1.7582,1.7582,1.7582,1.7434,1.7159,1.6881,1.6553,1.6316,1.6375,1.6069,1.6103,1.7412,1.7692,1.8187,1.9988,1.9898,1.9761,2.0666,2.0536,2.0539,2.1432,2.1475,2.1327,2.121,2.0947,2.0811,2.0928,2.0938,2.0899,2.0752,2.0732,2.0723,2.0615,2.0605,2.0605,2.0605,1.9844,1.8749,1.7374,1.839,1.7464,1.4166,1.5959,1.5951,1.4088,1.4088,1.4088,1.4088,1.4088,1.4088,4.2225,4.1864,4.125,4.2937,4.3681,4.4192,4.4986,4.5372,4.5187,4.3929,4.2479,4.1,3.9268,3.8937,3.8823,3.8451,3.8917,3.8834,3.7343,3.5872,3.4439,3.3216,3.1825,0.0,3.0889,3.0703,3.0586,0.0,3.0127,2.9766,2.9636,2.8935,2.8476,2.8301,2.8291,2.8291,2.8291,2.6649,2.5784,2.5775,2.3048,2.1347,2.0659,1.9456,1.854,1.7836,0.0,1.7582,1.7582,1.7582,1.7582,1.7582,1.7582,1.7582,1.7582,1.7582,1.7582,1.7582,1.7582,1.7582,1.7582,1.7582,1.7582,1.7555,1.7481,1.7239,1.6894,1.66,1.6306,1.6039,1.5872,1.5784,1.6103,1.7412,1.8095,1.9001,2.089,2.1168,2.1167,2.1488,2.1366,2.124,2.1325,2.1103,2.0937,2.0937,2.0723,2.0605,2.0605,2.0605,2.0605,2.0605,2.0605,2.0605,2.0605,2.0605,2.0605,2.0605,2.004,1.8997,1.7383,1.839,1.7464,1.4166,1.5752,1.5752,1.4088,1.4088,1.4088,1.4088,1.4088,1.4088,4.1825,4.0271,3.851,3.9861,3.9274,3.8851,4.0434,4.0679,4.0388,3.9799,3.8916,3.8174,3.7956,3.7501,3.7453,3.8372,3.8547,3.8234,3.7216,3.5603,3.4251,3.3465,3.194,3.0869,3.0801,3.043,3.0176,3.0117,3.0059,2.9873,2.9502,2.9072,2.8672,2.8301,2.8291,2.8262,2.8203,2.6558,2.5698,2.5581,2.3646,2.2034,2.0642,2.0445,1.9536,1.814,1.7943,0.0,1.7838,1.7687,1.7582,1.7582,1.7582,1.7582,1.7582,1.7582,1.7582,1.7582,1.7582,1.7582,1.7582,1.7582,1.7582,1.7528,1.7286,1.6991,1.6647,1.6359,1.6059,1.5784,1.5784,1.592,1.6386,1.7638,1.8864,2.0079,2.1293,2.2312,2.2779,2.2041,2.1836,2.1543,2.0752,2.0605,2.0605,2.0605,2.0605,2.0605,2.0605,2.0605,2.0605,2.0605,2.0605,2.0605,2.0605,2.0605,2.0605,2.0605,2.0489,1.9471,1.7383,1.827,1.7302,1.4166,1.5137,1.5179,1.4088,1.4088,1.4088,1.4088,1.4088,1.4088,4.0284,3.7808,3.4945,3.3938,3.3796,3.3953,3.3934,3.499,3.5941,3.5526,3.5289,3.4788,3.365,3.3738,3.4528,3.6237,3.6892,3.7652,3.8983,3.6855,3.5078,3.4958,3.254,3.0742,3.0351,3.0244,0.0,0.0,2.9346,2.9111,2.9033,2.8633,2.8369,2.8291,2.8291,2.8125,2.7836,2.7476,2.7097,2.6689,2.4884,2.3812,2.3528,2.2087,2.1251,2.0939,1.9782,0.0,1.9169,1.8042,1.7582,1.7582,1.7582,1.7582,1.7582,1.7582,1.7582,1.7582,1.7582,1.7582,1.7582,1.7582,1.7582,1.7528,1.7286,1.6991,1.6647,1.6359,1.6059,1.5784,1.5784,1.6574,1.7684,1.891,2.0124,2.1302,2.2545,2.2688,2.2471,2.1982,2.1592,2.1182,2.0693,2.0605,2.0605,2.0605,2.0605,2.0605,2.0605,2.0605,2.0605,2.0605,2.0605,2.0605,2.0605,2.0605,2.0605,2.0605,1.9766,1.8669,1.7334,1.7496,1.6486,1.413,1.5137,1.5179,1.4088,1.4088,1.4088,1.4088,1.4088,1.4088,3.922,3.6182,3.2959,3.1425,3.0192,2.911,2.8401,2.969,3.0908,3.0531,3.1235,3.175,3.1048,3.1565,3.2553,3.3968,3.5671,3.688,3.7037,3.6056,3.5013,3.4236,3.1983,3.0439,3.0215,2.9795,2.9443,2.9248,2.8828,2.8691,2.8906,2.8525,2.8291,2.8291,2.8291,2.8096,2.7718,2.7441,2.7119,2.668,2.5564,2.464,2.3962,2.2392,2.1296,2.059,1.9878,0.0,1.9627,1.9723,1.9317,1.8655,1.8655,1.8192,1.7582,1.7582,1.7582,1.7582,1.7582,1.7582,1.7582,1.7582,1.7582,1.7502,1.7054,1.682,1.6613,1.6166,1.5939,1.5784,1.5784,1.6244,1.7171,1.9039,2.0899,2.2347,2.2722,2.2656,2.2324,2.167,2.1337,2.1094,2.0683,2.0605,2.0605,2.0605,2.0605,2.0605,2.0605,2.0605,2.0605,2.0605,2.0605,2.0605,2.0605,2.0089,2.0001,2.0566,1.9599,1.8758,1.823,1.8189,1.7172,1.4977,1.5455,1.5179,1.4088,1.4088,1.4088,1.4088,1.4088,1.4088,3.8459,3.5268,3.1944,3.0468,2.7864,2.5349,2.4412,2.5068,2.5998,2.6375,2.757,2.8686,2.9157,2.9798,3.0621,3.188,3.3988,3.5236,3.4665,3.4667,3.4294,3.3237,3.1402,0.0,3.0068,2.9365,0.0,2.8789,2.8476,0.0,2.876,2.8467,2.8252,2.8164,2.8154,2.791,2.7454,2.7051,2.6509,2.5823,2.5438,2.4716,2.3633,2.2307,2.1245,2.0444,2.0187,0.0,0.0,2.1245,2.1041,2.0033,1.9731,1.8968,1.7989,1.7687,1.7582,1.7582,1.7582,1.7582,1.7569,1.7508,1.7488,1.7388,1.6867,1.666,1.65,1.5924,1.5784,1.5784,1.5784,1.6197,1.7203,1.967,2.1656,2.2867,2.2588,2.2363,2.1999,2.1327,2.1112,2.0977,2.0664,2.0605,2.0605,2.0605,2.0605,2.0605,2.0605,2.0605,2.0605,2.0605,2.0605,2.0527,2.0284,1.9481,1.9362,2.0206,1.9481,1.8997,1.8997,1.8997,1.806,1.6067,1.582,1.5296,1.4454,1.4208,1.4088,1.4088,1.4088,1.4088,3.8021,3.5268,3.1944,3.0468,2.7025,2.3798,2.3058,2.1947,2.191,2.4585,2.4953,2.5424,2.75,2.7599,2.8124,3.0305,3.089,3.1884,3.4251,3.3497,3.2762,3.3081,0.0,0.0,2.9668,2.9199,2.876,2.8379,2.831,0.0,2.835,2.831,2.8115,2.7787,2.7777,2.7334,2.6514,2.6465,2.5605,2.3954,2.3908,2.384,2.3633,2.2307,2.2307,2.3285,2.2055,0.0,0.0,2.1651,2.16,2.1397,2.0084,1.9524,1.9272,1.8042,1.7582,1.7582,1.7582,1.7582,1.7542,1.7326,1.7239,1.7179,1.6807,1.652,1.6246,1.5919,1.5784,1.5784,1.5784,1.7483,1.9761,2.2183,2.2669,2.2559,2.2519,2.1863,2.1288,2.121,2.0908,2.0654,2.0615,2.0605,2.0605,2.0605,2.0605,2.0605,2.0605,2.0605,2.0605,2.0605,2.0605,2.0206,1.9244,1.9076,1.9036,1.9155,1.9036,1.8997,1.8997,1.8997,1.843,1.7172,1.6191,1.5655,1.5538,1.4573,1.4088,1.4088,1.4088,1.4088,3.6834,3.4739,3.1944,3.0468,2.6783,2.3204,2.1789,2.0826,2.0841,2.2942,2.3865,2.4845,2.6613,2.6963,2.7324,2.8267,0.0,0.0,3.1117,3.1863,3.2114,3.1428,3.0455,2.9756,0.0,0.0,2.8476,2.8301,2.8291,0.0,2.8291,2.8291,2.8096,2.7728,2.7718,2.7307,2.6396,2.5538,2.4651,2.3683,2.2868,2.2517,2.2458,2.1049,2.0743,2.1202,2.0692,0.0,0.0,2.2567,2.2918,2.2868,2.2265,2.1049,1.9524,1.9013,1.8297,1.7582,1.7582,1.7468,1.7353,1.7239,1.6958,1.665,1.648,1.6359,1.6213,1.5912,1.5784,1.5784,1.5784,1.7662,1.9724,2.0719,2.1742,2.2441,2.2187,2.1619,2.1112,2.0889,2.0723,2.0605,2.0605,2.0605,2.0605,2.0605,2.0605,2.0605,2.0605,2.0605,2.0605,2.0605,2.0605,2.0167,1.9076,1.835,1.827,1.8957,1.835,1.859,1.9923,1.9962,1.9441,1.835,1.7212,1.6355,1.5696,1.4615,1.4088,1.4088,1.4088,1.4088,3.5183,3.3906,3.2056,3.1033,2.7314,2.3511,2.175,2.0674,2.0385,2.1482,2.2681,2.3973,2.5519,2.6359,2.6826,0.0,0.0,2.943,2.8834,3.0263,3.1055,3.0103,0.0,2.9375,0.0,2.8721,2.8291,2.8291,0.0,0.0,2.8291,2.8174,2.791,2.749,2.7471,2.706,2.6201,2.4829,2.3802,2.3076,2.1752,2.1092,2.1041,1.9627,1.922,1.9627,2.0033,0.0,0.0,2.3592,2.4304,2.4254,2.384,2.2265,2.0187,1.9731,1.876,1.7569,1.7482,1.7373,1.7172,1.6998,1.6656,1.6259,1.6166,1.6146,1.6099,1.5885,1.5784,1.5872,1.6244,1.7894,1.9588,1.9943,2.1195,2.2246,2.1953,2.1435,2.0947,2.0664,2.0605,2.0605,2.0605,2.0605,2.0605,2.0605,2.0605,2.0605,2.0605,2.0605,2.0605,2.0605,2.0323,1.9678,1.859,1.7738,1.7626,1.843,1.7738,1.8301,2.0518,2.0605,2.0079,1.9036,1.7868,1.6764,1.5696,1.4615,1.4088,1.4088,1.4088,1.4088,3.2997,3.2725,3.228,3.228,2.8795,2.497,2.3249,2.1465,2.0128,2.028,2.1091,2.2274,2.3985,2.5437,2.6396,2.6396,2.7161,0.0,2.8242,2.8662,2.9092,0.0,2.9189,2.8926,2.8926,2.8545,2.8291,2.8291,0.0,0.0,2.8291,2.79,2.7471,2.7031,2.7021,2.6611,2.5703,2.4362,2.3026,2.1702,2.0282,1.9627,1.9576,1.8251,1.8349,0.0,0.0,0.0,0.0,2.4559,2.5684,2.5538,2.4205,2.2868,2.1499,2.0135,1.876,1.7542,1.7306,1.7206,1.7105,1.6522,1.6328,1.6219,1.5925,1.5832,1.5784,1.5784,1.5784,1.6109,1.7365,1.8596,1.9807,2.098,2.1597,2.1894,2.1885,2.1241,2.0605,2.0605,2.0605,2.0605,2.0605,2.0605,2.0605,2.0605,2.0605,2.0605,2.0605,2.0605,2.0605,2.0605,1.9638,1.8559,1.7423,1.7302,1.7302,1.7334,1.7302,1.8301,2.0518,2.0605,2.0079,1.9036,1.7868,1.6764,1.5696,1.4615,1.4088,1.4088,1.4088,1.4088,3.0906,3.0856,3.0063,3.0063,2.7319,2.4499,2.3962,2.1726,2.0037,2.1056,2.1479,2.2139,2.3645,2.5013,2.6133,2.6719,2.7041,0.0,0.0,0.0,0.0,2.9551,2.9443,2.9248,0.0,0.0,2.8291,2.8291,0.0,0.0,2.8291,2.7891,2.7461,2.7021,2.6738,2.6309,2.5693,2.4353,2.3484,2.3026,2.0692,2.0084,2.099,1.9627,1.9723,0.0,0.0,0.0,0.0,2.3989,2.4864,2.5635,2.5226,2.3692,2.1651,2.1194,1.9478,1.7326,1.7233,1.6938,1.6569,1.6382,1.6139,1.5952,1.5811,1.5784,1.5784,1.5784,1.5784,1.5872,1.6292,1.7311,1.8365,1.8726,1.9365,2.0069,2.0897,2.038,2.0018,2.0857,2.0781,2.0605,2.0605,2.0605,2.0605,2.0605,2.0605,2.0605,2.0605,2.0605,2.0605,2.0605,2.0284,1.9353,1.7455,1.6642,1.6519,1.7253,1.7302,1.8301,2.0518,2.0605,2.0079,1.9036,1.7868,1.6764,1.5696,1.4615,1.4088,1.4088,1.4088,1.4088,2.8184,2.9019,2.8992,2.8992,2.7053,2.4955,2.4421,2.2681,2.1253,2.16,2.2106,2.2717,2.3534,2.4937,2.6103,2.6475,2.6943,0.0,0.0,0.0,2.9385,2.9551,0.0,0.0,0.0,2.8535,2.8291,0.0,0.0,0.0,2.8291,2.7744,2.7295,2.7021,2.6602,2.6182,2.5693,2.4353,2.3692,2.3683,2.1448,2.0837,2.1643,2.0786,2.0888,0.0,0.0,0.0,0.0,2.3484,2.4196,2.4913,2.4402,2.3088,2.1445,2.0942,1.9181,1.7018,1.6911,1.663,1.6301,1.6146,1.5979,1.5784,1.5784,1.5784,1.5784,1.5784,1.6157,1.6527,1.6527,1.7444,1.8365,1.8365,1.8848,1.9531,2.0275,2.0126,2.0061,2.0818,2.0752,2.0605,2.0605,2.0605,2.0605,2.0605,2.0605,2.0605,2.0605,2.0605,2.0605,2.0605,2.0245,1.9432,1.8069,1.7334,1.7245,1.7908,1.7948,1.8749,2.0527,2.0605,1.9883,1.839,1.7666,1.656,1.5095,1.4412,1.4088,1.4088,1.4088,1.4088,0.0,2.7154,2.8749,2.8749,2.753,2.6019,2.4698,2.4053,0.0,2.2106,2.2818,2.3701,2.3728,2.5154,2.623,2.583,2.6836,2.8137,0.0,2.9432,2.937,0.0,2.9439,0.0,2.9025,2.8589,2.8291,0.0,0.0,0.0,2.8252,2.7461,2.7002,2.6973,2.6562,2.6143,2.5693,2.4461,2.384,2.384,2.2466,2.1904,2.2005,2.1904,2.1904,0.0,0.0,0.0,0.0,2.3076,2.3583,2.3425,2.2181,2.1403,2.09,1.9706,1.816,1.6633,1.6464,1.6357,1.6192,1.5919,1.5784,1.5784,1.5784,1.5784,1.5825,1.592,1.6803,1.7738,1.7824,1.868,1.9497,1.9497,1.9702,1.9945,2.003,2.0295,2.0528,2.0615,2.0625,2.0605,2.0605,2.0605,2.0605,2.0605,2.0605,2.0605,2.0605,2.0605,2.0605,2.0605,1.9726,1.9116,1.9116,1.8957,1.8917,1.8997,1.8997,1.9481,2.0566,2.0605,1.9599,1.7455,1.7253,1.6165,1.4088,1.4088,1.4088,1.4088,1.4088,1.4088,2.4082,0.0,2.6457,2.6457,2.6143,2.5791,0.0,2.4517,2.3583,2.3276,2.3484,2.3782,2.4079,2.5107,2.6074,2.6621,2.6973,2.7496,2.8503,3.0367,0.0,3.3171,3.1971,3.0977,3.0529,2.916,2.8291,0.0,0.0,2.8154,2.7885,2.7305,2.6865,2.6543,2.6113,2.5791,2.5693,2.5382,2.5226,2.5226,2.389,2.3791,2.4716,2.3692,2.3791,0.0,0.0,0.0,2.3176,2.2466,2.2156,2.2131,2.1537,2.0634,1.9699,2.0125,1.8649,1.6513,1.7389,1.6923,1.5919,1.5852,1.5784,1.5784,1.5784,1.5784,1.6015,1.699,1.7458,1.7917,1.8818,1.9268,1.9497,1.9497,1.9284,1.9346,2.0312,2.0083,1.9944,2.0865,2.0801,2.0605,2.0605,2.0605,2.0605,2.0605,2.0605,2.0605,2.0605,2.0605,2.0605,2.0605,2.0362,2.0206,2.0206,1.8669,1.8069,1.8957,1.8997,1.9481,2.0566,2.0605,1.9962,1.8638,1.6919,1.5421,1.4088,1.4088,1.4088,1.4088,1.4088,1.4088,2.5295,2.5732,2.6035,2.6035,2.6035,2.6035,2.6035,2.531,2.4609,2.4609,2.4609,2.4862,2.5653,2.6427,2.726,2.831,2.9053,0.0,0.0,0.0,3.4066,3.4343,3.2642,3.1431,0.0,0.0,0.0,0.0,0.0,2.8105,2.7738,2.7246,2.6826,2.6396,2.5967,2.5693,2.5693,2.5693,2.5693,2.5684,2.4971,2.502,2.5684,2.4971,2.502,0.0,0.0,0.0,2.2667,2.1296,2.0648,2.0541,2.03,1.9933,1.9698,2.0337,1.9383,1.7928,1.8986,1.8632,1.7792,1.7792,1.7279,1.6662,1.6662,1.6662,1.6803,1.7505,1.8503,1.9497,2.0169,2.035,2.035,2.035,1.9839,1.9523,2.0222,2.0163,2.0134,2.0799,2.0732,2.0605,2.0605,2.0605,2.0605,2.0605,2.0605,2.0605,2.0605,2.0605,2.0605,2.0605,2.0605,2.0605,2.0605,1.9511,1.9067,1.9678,1.9717,2.0001,2.0566,2.0605,1.9835,1.827,1.6552,1.5179,1.4088,1.4088,1.4088,1.4088,1.4088,1.4088,2.7097,2.7362,2.7152,2.6903,2.6765,2.6705,2.6586,2.6143,2.5693,2.5693,2.5868,2.6382,2.7587,2.829,2.9074,3.0253,3.1671,0.0,3.4091,3.5311,3.5775,3.5032,3.2906,0.0,3.1838,0.0,0.0,0.0,0.0,2.8018,2.764,2.7158,2.6728,2.6309,2.5937,2.5693,2.5693,2.5693,2.5693,2.5693,2.5693,2.5693,2.5693,2.5693,2.5693,2.5586,0.0,0.0,2.1592,1.9928,1.9089,1.8889,1.8894,1.9228,1.987,2.0495,2.0204,1.9625,2.0331,2.0381,2.0102,2.0052,1.8964,1.7692,1.7692,1.7824,1.7956,1.7956,1.9579,2.1337,2.1525,2.1569,2.1569,2.1569,2.096,2.0361,2.0307,2.0517,2.0683,2.0615,2.0605,2.0605,2.0605,2.0605,2.0605,2.0605,2.0605,2.0605,2.0605,2.0605,2.0605,2.0605,2.0605,2.0605,2.0605,2.0605,2.0605,2.0605,2.0605,2.0605,2.0605,2.0605,1.955,1.7334,1.6396,1.5338,1.4088,1.4088,1.4088,1.4088,1.4088,1.4088,2.6934,2.8897,3.0563,2.9283,2.8492,2.7983,2.7502,2.6526,2.5693,2.5693,2.6572,2.7592,2.8596,2.9428,3.0273,3.1304,3.2387,3.3834,0.0,0.0,3.7308,3.7441,0.0,3.3176,3.2328,0.0,0.0,0.0,0.0,2.7578,2.7139,2.6719,2.6289,2.5801,2.5723,2.5693,2.5693,2.5693,2.5693,2.5693,2.5693,2.5693,2.5693,2.5693,2.5693,0.0,0.0,2.1904,2.1474,1.8723,1.7541,1.7548,1.8054,1.83,1.8609,2.0526,2.049,1.9505,1.9666,1.9865,2.0022,1.9716,1.8727,1.7692,1.7692,1.8411,1.9222,1.9222,2.0215,2.1525,2.2536,2.2818,2.2818,2.2818,2.2452,2.1999,2.1694,2.1353,2.1016,2.0674,2.0605,2.0605,2.0605,2.0605,2.0605,2.0605,2.0605,2.0605,2.0605,2.0605,2.0605,2.0605,2.0605,2.0605,2.0605,2.0605,2.0605,2.0605,2.0605,2.0605,2.0605,2.0605,1.955,1.7334,1.7131,1.6083,1.4088,1.4088,1.4088,1.4088,1.4088,1.4088,2.7603,2.9622,3.1495,3.177,3.1235,3.0466,2.9958,2.916,2.8481,2.8179,2.8602,2.9346,3.0451,3.1225,3.2441,3.4723,0.0,3.6293,3.7717,3.7829,3.7836,0.0,0.0,3.4152,0.0,0.0,0.0,0.0,0.0,0.0,2.6709,2.6494,2.6182,2.5703,2.5693,2.5693,2.5693,2.5693,2.5693,2.5693,2.5693,2.5693,2.5693,2.5693,2.5605,2.5237,0.0,2.1996,2.2141,1.8651,1.795,1.9018,1.9056,1.9404,2.0033,2.1651,2.2221,2.2108,2.1889,2.1944,2.2062,2.188,2.0849,1.9633,1.9633,2.0034,2.0486,2.0486,2.1346,2.2403,2.296,2.3091,2.3091,2.3091,2.2646,2.2119,2.1924,2.1357,2.081,2.0644,2.0605,2.0605,2.0605,2.0605,2.0605,2.0605,2.0605,2.0605,2.0605,2.0605,2.0605,2.0605,2.0605,2.0605,2.0605,2.0605,2.0605,2.0605,2.0605,2.0605,2.0605,2.004,1.8957,1.7334,1.6723,1.567,1.4088,1.4088,1.4088,1.4088,1.4088,1.4088,2.7965,3.0108,3.2095,3.3227,3.2857,3.2214,3.2153,3.1482,3.0746,3.0658,3.0803,3.1297,3.2142,3.3082,3.4588,3.7191,3.7839,3.8165,3.8605,3.8278,3.7952,3.7826,3.6295,3.4666,0.0,0.0,0.0,0.0,0.0,0.0,2.6426,2.6299,2.6084,2.5703,2.5693,2.5693,2.5693,2.5693,2.5693,2.5693,2.5693,2.5693,2.5684,2.5577,2.5391,2.4974,2.2814,2.2235,2.2606,1.9231,1.8852,2.0404,2.0275,2.0828,2.1845,2.2765,2.3569,2.4209,2.3789,2.3711,2.3769,2.3672,2.257,2.1293,2.1293,2.1293,2.1293,2.1293,2.2164,2.3091,2.3091,2.3091,2.3091,2.3091,2.2578,2.2002,2.1904,2.1279,2.0693,2.0625,2.0605,2.0605,2.0605,2.0605,2.0605,2.0605,2.0605,2.0605,2.0605,2.0605,2.0605,2.0605,2.0605,2.0605,2.0605,2.0605,2.0605,2.0605,2.0605,2.0605,2.0605,1.9559,1.847,1.7334,1.6232,1.5179,1.4088,1.4088,1.4088,1.4088,1.4088,1.4088,2.7343,3.0505,3.3496,3.2536,3.1808,3.167,3.322,3.1865,3.0532,3.1555,3.2657,3.3339,3.2933,3.4666,3.6225,3.6458,3.7337,3.8027,3.8065,0.0,3.7814,3.7312,3.6014,0.0,0.0,0.0,0.0,0.0,0.0,0.0,2.6396,2.6006,2.5713,2.5693,2.5693,2.5693,2.5693,2.5693,2.5693,2.5693,2.5693,2.5693,2.5674,2.5303,2.5145,2.4992,2.3134,2.2393,2.2283,2.0484,1.9808,2.0025,2.0849,2.1917,2.3003,2.3047,2.3437,2.3769,2.3286,2.3457,2.3721,2.3276,2.229,2.1293,2.1293,2.1293,2.1293,2.1293,2.2164,2.3091,2.3091,2.3091,2.3091,2.3091,2.275,2.2353,2.1973,2.1523,2.1064,2.0683,2.0605,2.0605,2.0605,2.0605,2.0605,2.0605,2.0605,2.0605,2.0605,2.0605,2.0605,2.0605,2.0605,2.0605,2.0605,2.0605,2.0605,2.0605,2.0605,2.0605,2.0605,1.9559,1.847,1.7334,1.6232,1.5179,1.4088,1.4088,1.4088,1.4088,1.4088,1.4088,2.8043,3.0501,3.283,3.2767,3.2592,3.2714,3.404,3.4174,3.4002,3.3677,3.4572,0.0,0.0,0.0,3.6772,3.6468,3.7287,3.8002,3.8002,3.8002,3.7801,3.7249,0.0,0.0,0.0,0.0,0.0,0.0,0.0,0.0,2.6045,2.5781,2.5693,2.5693,2.5693,2.5693,2.5693,2.5693,2.5693,2.5693,2.5693,2.5693,2.5674,2.5273,2.4922,2.4555,2.3054,2.2749,2.3118,2.0831,2.0873,2.2327,2.2377,2.2262,2.1987,2.1987,2.1634,2.1102,2.0907,2.1005,2.1238,2.1811,2.1658,2.1436,2.2164,2.2403,2.2403,2.2403,2.2775,2.3091,2.3091,2.3091,2.3091,2.3091,2.2617,2.208,2.1924,2.1328,2.0762,2.0635,2.0605,2.0605,2.0605,2.0605,2.0605,2.0605,2.0605,2.0605,2.0605,2.0605,2.0605,2.0605,2.0605,2.0605,2.0605,2.0605,2.0605,2.0605,2.0605,2.0605,2.0605,1.8877,1.7738,1.7302,1.5587,1.4496,1.4088,1.4088,1.4088,1.4088,1.4088,1.4088,2.8527,3.0379,3.2089,3.2667,3.2943,3.337,3.4474,3.5316,3.5805,3.5554,3.5818,3.5881,3.5082,0.0,0.0,0.0,3.7023,3.7626,3.7274,3.7224,3.7023,3.6471,0.0,0.0,0.0,0.0,0.0,0.0,0.0,0.0,0.0,2.5693,2.5693,2.5693,2.5693,2.5693,2.5693,2.5693,2.5693,2.5693,2.5693,2.5693,2.5664,2.5127,2.4697,2.4348,2.3139,2.3013,2.344,2.1662,2.1944,2.351,2.2792,2.2262,2.18,2.1025,2.044,2.0034,1.9625,1.9497,1.9716,2.089,2.1293,2.1525,2.2721,2.3091,2.3091,2.3091,2.3091,2.3091,2.3091,2.3091,2.3091,2.3091,2.25,2.1885,2.1885,2.1231,2.0605,2.0605,2.0605,2.0605,2.0605,2.0605,2.0605,2.0605,2.0605,2.0605,2.0605,2.0605,2.0605,2.0605,2.0605,2.0605,2.0605,2.0605,2.0605,2.0605,2.0605,2.0605,2.0605,1.847,1.7302,1.7302,1.5186,1.4088,1.4088,1.4088,1.4088,1.4088,1.4088,1.4088,2.8622,3.011,3.1537,3.2077,3.2654,3.3382,3.4474,3.4738,3.5203,3.6895,3.6307,3.5495,3.5529,3.6028,0.0,3.5617,3.6445,3.6772,3.5646,3.5495,3.5295,0.0,0.0,0.0,0.0,0.0,0.0,0.0,0.0,0.0,0.0,2.5693,2.5693,2.5693,2.5693,2.5693,2.5693,2.5693,2.5693,2.5693,2.5693,2.5693,2.5664,2.4824,2.4414,2.4365,2.3471,2.3091,2.3091,2.3091,2.3091,2.3003,2.18,2.2031,2.2775,2.0404,2.026,2.1114,1.9898,1.9488,1.967,2.089,2.1293,2.1525,2.2721,2.3091,2.3091,2.3091,2.3091,2.3091,2.3091,2.3091,2.3091,2.3091,2.249,2.1885,2.1875,2.1222,2.0605,2.0605,2.0605,2.0605,2.0605,2.0605,2.0605,2.0605,2.0605,2.0605,2.0605,2.0605,2.0605,2.0605,2.0605,2.0605,2.0605,2.0605,2.0605,2.0605,2.0605,2.0605,2.0605,1.847,1.7302,1.7302,1.5186,1.4088,1.4088,1.4088,1.4088,1.4088,1.4088,1.4088,2.9331,3.0717,3.2209,3.32,3.3849,3.4622,3.6191,3.6197,0.0,0.0,3.7534,3.6878,3.7257,3.7762,0.0,3.5787,3.6124,3.6187,3.5093,3.4919,0.0,0.0,0.0,0.0,0.0,0.0,0.0,0.0,0.0,0.0,0.0,2.5693,2.5693,2.5693,2.5693,2.5693,2.5693,2.5693,2.5693,2.5693,2.5693,2.5693,2.5664,2.4824,2.4414,2.4365,2.3471,2.3091,2.3091,2.3091,2.3276,2.352,2.2836,2.2459,2.218,2.1131,1.9898,1.8818,1.9314,1.8956,1.8588,2.0612,2.1293,2.1525,2.2721,2.3091,2.3091,2.3091,2.3091,2.3091,2.3091,2.3091,2.3023,2.2773,2.2285,2.1807,2.1494,2.0977,2.0605,2.0605,2.0605,2.0605,2.0605,2.0605,2.0605,2.0605,2.0605,2.0605,2.0605,2.0605,2.0605,2.0605,2.0605,2.0605,2.0605,2.0605,2.0605,2.0605,2.0605,2.0605,2.0605,1.847,1.7302,1.7302,1.5186,1.4088,1.4088,1.4088,1.4088,1.4088,1.4088,1.4088,3.1642,3.277,3.3882,3.5587,3.6027,3.6472,3.7983,3.7702,0.0,0.0,3.8242,3.8036,3.8378,3.8476,0.0,3.6678,3.6739,3.6644,3.5787,3.5631,0.0,0.0,0.0,0.0,0.0,0.0,0.0,0.0,0.0,0.0,0.0,2.5693,2.5693,2.5693,2.5693,2.5693,2.5693,2.5693,2.5693,2.5693,2.5557,2.5566,2.5664,2.4824,2.4326,2.4131,2.3393,2.3091,2.311,2.3286,2.3555,2.3734,2.3133,2.2921,2.2787,2.1586,2.039,1.945,1.9665,1.916,1.8726,2.0657,2.1293,2.1525,2.2721,2.3091,2.3091,2.3091,2.3091,2.3091,2.3091,2.3091,2.2984,2.2617,2.2197,2.1768,2.1288,2.0879,2.0605,2.0605,2.0605,2.0605,2.0605,2.0605,2.0605,2.0605,2.0605,2.0605,2.0605,2.0605,2.0605,2.0605,2.0605,2.0605,2.0605,2.0605,2.0605,2.0605,2.0605,2.0605,2.0605,1.8917,1.7738,1.7302,1.5587,1.4531,1.4088,1.4088,1.4088,1.4088,1.4088,1.4088,3.4483,3.5346,3.5951,3.8464,3.8797,3.8741,3.9611,3.9057,3.8357,3.8411,0.0,3.9004,3.9131,3.8589,3.8076,3.7938,3.7883,3.7689,3.7096,0.0,0.0,0.0,0.0,0.0,0.0,0.0,0.0,0.0,0.0,0.0,0.0,2.5693,2.5674,2.5625,2.5664,2.5693,2.5693,2.5693,2.5664,0.0,2.5303,2.5283,2.5479,2.4727,2.4131,2.3711,2.331,2.3091,2.312,2.3564,2.3779,2.3787,2.2954,2.3373,2.4175,2.1846,2.143,2.1832,2.0737,2.0038,1.9852,2.1069,2.148,2.1667,2.2775,2.3091,2.3091,2.3091,2.3091,2.3091,2.3091,2.3091,2.2984,2.2617,2.2197,2.1768,2.1288,2.0879,2.0605,2.0605,2.0605,2.0605,2.0605,2.0605,2.0605,2.0605,2.0605,2.0605,2.0605,2.0605,2.0605,2.0605,2.0605,2.0605,2.0605,2.0605,2.0605,2.0605,2.0605,2.0605,2.0605,1.9559,1.847,1.7334,1.6232,1.5179,1.4088,1.4088,1.4088,1.4088,1.4088,1.4088,3.3012,3.43,3.5697,3.8956,4.0347,4.0573,3.9365,3.962,4.0223,4.0746,4.0092,3.9742,4.071,4.0312,3.9414,3.8035,3.7833,3.7505,0.0,0.0,0.0,0.0,0.0,0.0,0.0,0.0,0.0,0.0,0.0,0.0,2.6119,2.5819,2.5576,2.5225,2.5557,2.5693,2.5693,2.5693,2.5557,0.0,2.5469,2.5107,2.4199,2.4014,2.3682,2.3227,2.314,2.3091,2.3101,2.3198,2.3627,2.4183,2.332,2.3796,2.4758,2.3174,2.237,2.2025,2.2337,2.1785,2.1114,2.2306,2.2721,2.2765,2.3003,2.3091,2.3091,2.3091,2.3091,2.3091,2.3091,2.3091,2.2984,2.2617,2.2197,2.1768,2.1288,2.0879,2.0605,2.0605,2.0605,2.0605,2.0605,2.0605,2.0605,2.0605,2.0605,2.0605,2.0605,2.0605,2.0605,2.0605,2.0605,2.0605,2.0605,2.0605,2.0605,2.0605,2.0605,2.0605,2.0605,1.9559,1.847,1.7334,1.6232,1.5179,1.4088,1.4088,1.4088,1.4088,1.4088,1.4088,3.2808,3.4969,3.7128,4.0354,4.1317,4.124,4.0317,4.0307,4.0686,4.137,4.0686,4.0165,4.083,4.0367,3.9616,3.8716,3.8319,0.0,0.0,0.0,0.0,0.0,0.0,0.0,0.0,0.0,0.0,0.0,0.0,2.7962,2.6204,2.5951,2.5545,2.4812,2.498,2.506,2.506,2.506,2.5098,2.5116,2.4893,2.4336,2.3477,2.3477,2.3467,2.3437,2.3188,2.3091,2.311,2.3315,2.3711,2.4092,2.3803,2.416,2.4668,2.4004,2.3345,2.2919,2.3303,2.2894,2.2262,2.2906,2.3091,2.3091,2.3091,2.3091,2.3091,2.3091,2.3091,2.3091,2.3091,2.3091,2.3042,2.2818,2.2334,2.1768,2.1288,2.0879,2.0605,2.0605,2.0605,2.0605,2.0605,2.0605,2.0605,2.0605,2.0605,2.0605,2.0605,2.0605,2.0605,2.0605,2.0605,2.0605,2.0605,2.0605,2.0605,2.0605,2.0605,2.0605,2.0605,1.9559,1.847,1.7334,1.6764,1.567,1.4088,1.4088,1.4088,1.4088,1.4088,1.4088,3.198,3.5413,3.8375,4.1013,4.1266,0.0,4.094,4.0531,4.0316,4.0913,4.0606,4.0299,4.0588,3.9862,3.9281,3.9444,3.8767,0.0,0.0,0.0,0.0,0.0,0.0,0.0,0.0,0.0,0.0,0.0,0.0,2.8012,2.6252,2.612,2.5542,2.4307,2.4375,2.4453,2.4531,2.4531,2.4668,2.4988,2.4082,2.3564,2.3315,2.3237,2.3408,2.3662,2.3247,2.3091,2.312,2.3525,2.3721,2.3818,2.4092,2.4287,2.4394,2.4248,2.4023,2.3779,2.3701,2.3437,2.3091,2.3091,2.3091,2.3091,2.3091,2.3091,2.3091,2.3091,2.3091,2.3091,2.3091,2.3091,2.3091,2.3091,2.2549,2.1894,2.1492,2.1113,2.0811,2.0732,2.0654,2.0605,2.0605,2.0605,2.0605,2.0605,2.0605,2.0605,2.0605,2.0605,2.0605,2.0605,2.0605,2.0605,2.0605,2.0605,2.0605,2.0605,2.0605,2.0605,2.0605,1.9559,1.847,1.7334,1.7131,1.6041,1.4088,1.4088,1.4088,1.4088,1.4088,1.4088,2.7834,3.2895,3.7111,3.8429,3.8695,3.8702,0.0,0.0,3.9124,0.0,3.9619,3.9962,4.1264,3.9905,3.8792,3.9521,0.0,0.0,0.0,0.0,0.0,0.0,0.0,0.0,0.0,0.0,0.0,0.0,2.9141,2.8086,2.6529,2.6246,2.5409,2.3932,2.4228,2.46,2.498,2.5028,2.4814,2.4492,2.3588,2.3539,2.4228,2.3867,2.3525,2.3179,2.312,2.3091,2.3101,2.3159,2.3447,2.376,2.3393,2.376,2.4326,2.3539,2.3516,2.374,2.3315,2.314,2.3091,2.3091,2.3091,2.3091,2.3091,2.3091,2.3091,2.3091,2.3091,2.3091,2.3091,2.3091,2.3091,2.3091,2.273,2.2412,2.2353,2.2012,2.1602,2.1221,2.083,2.0605,2.0605,2.0605,2.0605,2.0605,2.0605,2.0605,2.0605,2.0605,2.0605,2.0605,2.0605,2.0605,2.0605,2.0605,2.0605,2.0605,2.0605,2.0605,2.0605,1.9559,1.847,1.7334,1.6396,1.5304,1.4088,1.4088,1.4088,1.4088,1.4088,1.4088,2.6521,3.1198,3.4632,0.0,3.6839,3.7144,3.7316,3.7338,3.754,3.8329,3.8201,3.8483,4.0194,3.9438,3.8811,3.9612,0.0,0.0,0.0,0.0,0.0,0.0,0.0,0.0,0.0,0.0,0.0,0.0,2.9549,2.8783,2.7464,2.6719,2.5701,2.4398,2.3895,2.3789,2.3984,2.3984,2.3896,2.3656,2.3564,2.3574,2.3656,2.3506,2.3539,2.3793,2.3603,2.3506,2.3486,2.3198,2.3208,2.3408,2.3169,2.3325,2.3608,2.3237,2.3218,2.3398,2.3159,2.3091,2.3091,2.3091,2.3091,2.3091,2.3091,2.3091,2.3091,2.3091,2.3091,2.3091,2.3091,2.3091,2.3091,2.3091,2.2955,2.2818,2.2818,2.2158,2.1465,2.1229,2.1074,2.0937,2.0937,2.0732,2.0605,2.0605,2.0605,2.0605,2.0605,2.0605,2.0605,2.0605,2.0605,2.0605,2.0605,2.0605,2.0605,2.0605,2.0605,2.0605,2.0605,1.8948,1.7827,1.7302,1.6232,1.5179,1.4088,1.4088,1.4088,1.4088,1.4088,1.4088,2.4777,0.0,3.0848,3.3022,3.3916,3.4497,0.0,0.0,3.572,0.0,3.6942,3.7062,3.8637,3.8618,3.8684,3.969,0.0,0.0,0.0,0.0,0.0,0.0,0.0,0.0,0.0,0.0,0.0,0.0,2.9934,2.9314,2.8176,2.7075,2.5975,2.483,2.3671,2.3149,2.3257,2.3257,2.3257,2.3257,2.3525,2.3457,2.3101,2.3208,2.3608,2.4228,2.3809,2.3691,2.375,2.3276,2.3091,2.3091,2.3091,2.3091,2.3091,2.3091,2.3091,2.3091,2.3091,2.3091,2.3091,2.3091,2.3091,2.3091,2.3091,2.3091,2.3091,2.3091,2.3091,2.3091,2.3091,2.3091,2.3091,2.3091,2.3091,2.3091,2.3091,2.2262,2.1522,2.1522,2.1434,2.1327,2.121,2.0957,2.0742,2.0625,2.0605,2.0605,2.0605,2.0605,2.0605,2.0605,2.0605,2.0605,2.0605,2.0605,2.0605,2.0605,2.0605,2.0605,2.0605,1.847,1.7302,1.7302,1.5992,1.4894,1.4088,1.4088,1.4088,1.4088,1.4088,1.4088,2.1159,2.3493,0.0,2.7809,2.8817,2.9857,0.0,0.0,3.3608,3.5813,3.6099,3.6207,3.7005,3.7427,3.8198,0.0,0.0,0.0,0.0,0.0,0.0,0.0,0.0,0.0,0.0,0.0,0.0,0.0,3.0317,2.9314,2.8176,2.7075,2.5975,2.483,2.3671,2.3296,2.375,2.375,2.375,2.375,2.3359,2.312,2.311,2.3564,2.3779,2.3799,2.3315,2.3408,2.375,2.3276,2.3091,2.3091,2.3091,2.3091,2.3091,2.3091,2.3091,2.3091,2.3091,2.3091,2.3091,2.3091,2.3091,2.3091,2.3091,2.3091,2.3091,2.3091,2.3091,2.3091,2.3091,2.3091,2.3091,2.3091,2.3091,2.3091,2.3091,2.273,2.2451,2.2451,2.2119,2.1719,2.1268,2.1181,2.1055,2.0664,2.0605,2.0605,2.0605,2.0605,2.0605,2.0605,2.0605,2.0605,2.0605,2.0605,2.0605,2.0605,2.0605,2.0605,2.0605,1.847,1.7302,1.7302,1.5269,1.4166,1.4088,1.4088,1.4088,1.4088,1.4088,1.4088,1.7847,0.0,0.0,2.4846,2.6383,2.7822,2.9767,3.0416,3.0953,3.2164,3.2586,3.3309,3.5082,3.6685,3.8086,0.0,0.0,0.0,0.0,0.0,0.0,0.0,0.0,0.0,0.0,0.0,0.0,0.0,0.0,2.9624,2.9197,2.8108,2.7035,2.5933,2.4798,2.3914,2.3369,2.3369,2.3369,2.3369,2.3169,2.3091,2.3101,2.3257,2.3525,2.3769,2.3286,2.3389,2.375,2.3276,2.3091,2.3091,2.3091,2.3091,2.3091,2.3091,2.3091,2.3091,2.3091,2.3091,2.3091,2.3091,2.3091,2.3091,2.3091,2.3091,2.3091,2.3091,2.3091,2.3091,2.3091,2.3091,2.3091,2.3091,2.3091,2.3091,2.3091,2.2974,2.2789,2.2568,2.2393,2.2148,2.1728,2.1416,2.1044,2.0674,2.0605,2.0605,2.0605,2.0605,2.0605,2.0605,2.0605,2.0605,2.0605,2.0605,2.0605,2.0605,2.0605,2.0605,2.0605,1.847,1.7302,1.7302,1.5186,1.4088,1.4088,1.4088,1.4447,1.5095,1.4412,1.4454,1.5769,0.0,0.0,0.0,2.3477,2.5023,2.655,0.0,2.8498,2.8986,2.9808,3.0989,3.2791,3.4894,3.6894,0.0,0.0,0.0,0.0,0.0,0.0,0.0,0.0,0.0,0.0,0.0,0.0,0.0,0.0,0.0,2.983,2.8727,2.7429,2.5975,2.484,2.3887,2.3091,2.3091,2.3091,2.3091,2.3091,2.3091,2.3091,2.3091,2.3257,2.3555,2.3218,2.3389,2.375,2.3276,2.3091,2.3091,2.3091,2.3091,2.3091,2.3091,2.3091,2.3091,2.3091,2.3091,2.3091,2.3091,2.3091,2.3091,2.3091,2.3091,2.3091,2.3091,2.3091,2.3091,2.3091,2.3091,2.3091,2.3091,2.3091,2.3091,2.3091,2.3091,2.3013,2.273,2.2682,2.2549,2.1982,2.1641,2.125,2.0693,2.0605,2.0605,2.0605,2.0605,2.0605,2.0605,2.0605,2.0605,2.0605,2.0605,2.0605,2.0605,2.0605,2.0605,2.0605,1.847,1.7302,1.7302,1.5186,1.4088,1.4088,1.4454,1.5019,1.5696,1.4977,1.4817,0.0,0.0,0.0,0.0,0.0,0.0,2.2641,0.0,2.619,2.6449,2.7953,2.9433,3.0099,3.1988,3.4575,0.0,0.0,0.0,0.0,0.0,0.0,0.0,0.0,0.0,0.0,0.0,0.0,0.0,3.1742,3.0796,2.9869,2.8727,2.7105,2.4914,2.3757,2.3135,2.3091,2.3091,2.3091,2.3091,2.3091,2.3091,2.3091,2.3091,2.3091,2.3091,2.3091,2.3379,2.374,2.3276,2.3091,2.3091,2.3091,2.3091,2.3091,2.3091,2.3091,2.3091,2.3091,2.3091,2.3091,2.3091,2.3091,2.3091,2.3091,2.3091,2.3091,2.3091,2.3091,2.3091,2.3091,2.3091,2.3091,2.3091,2.3091,2.3091,2.3091,2.3091,2.3091,2.3091,2.3091,2.2828,2.2031,2.1885,2.1582,2.0732,2.0605,2.0605,2.0605,2.0605,2.0605,2.0605,2.0605,2.0605,2.0605,2.0605,2.0605,2.0605,2.0605,2.0605,2.0557,1.847,1.7302,1.7253,1.5186,1.4088,1.4088,1.5179,1.5737,1.5737,1.5737,1.5179,1.42,0.0,0.0,0.0,0.0,0.0,0.0,0.0,2.194,2.1919,2.3683,2.5427,2.6201,2.9183,3.2012,0.0,0.0,0.0,0.0,0.0,0.0,0.0,0.0,0.0,0.0,0.0,0.0,0.0,3.1742,3.0796,2.9869,2.8727,2.7481,2.6047,2.4925,2.392,2.3091,2.3091,2.3091,2.3091,2.3091,2.3091,2.3091,2.3091,2.3091,2.3091,2.3091,2.3169,2.3266,2.314,2.3091,2.3091,2.3091,2.3091,2.3091,2.3091,2.3091,2.3091,2.3091,2.3091,2.3091,2.3091,2.3091,2.3091,2.3091,2.3091,2.3091,2.3091,2.3091,2.3091,2.3091,2.3091,2.3091,2.3091,2.3091,2.3091,2.3091,2.3091,2.3091,2.3091,2.3091,2.2828,2.2031,2.1885,2.1582,2.0732,2.0605,2.0605,2.0605,2.0605,2.0605,2.0605,2.0605,2.0605,2.0605,2.0605,2.0605,2.0605,2.0605,2.0245,1.9481,1.8069,1.6927,1.615,1.4817,1.4088,1.4088,1.5179,1.6108,1.6846,1.6846,1.5876,0.0,0.0,0.0,0.0,0.0,0.0,1.7789,1.906,0.0,0.0,2.1079,2.2712,2.3993,2.6349,2.8683,0.0,0.0,0.0,0.0,0.0,0.0,0.0,0.0,0.0,0.0,3.5885,3.4555,3.3276,3.2321,3.1193,2.9869,2.8727,2.7804,2.7197,2.5619,2.4457,2.3844,2.3343,2.3091,2.3091,2.3091,2.3091,2.3091,2.3091,2.3091,2.3091,2.3091,2.3091,2.3091,2.3091,2.3091,2.3091,2.3091,2.3091,2.3091,2.3091,2.3091,2.3091,2.3091,2.3091,2.3091,2.3091,2.3091,2.3091,2.3091,2.3091,2.3091,2.3091,2.3091,2.3091,2.3091,2.3091,2.3091,2.3091,2.3091,2.3091,2.3091,2.3091,2.3091,2.3091,2.2955,2.2666,2.2002,2.1738,2.1377,2.0713,2.0605,2.0605,2.0605,2.0605,2.0605,2.0605,2.0605,2.0605,2.0605,2.0605,2.0605,2.0605,2.0605,2.0323,1.9678,1.8149,1.7009,1.6396,1.4859,1.4538,1.5428,1.6075,1.6683,1.7302,1.7302,1.6165,0.0,0.0,0.0,0.0,0.0,0.0,1.596,1.7552,1.8867,0.0,1.9408,2.0686,2.2406,2.3464,0.0,0.0,0.0,0.0,0.0,0.0,0.0,0.0,0.0,0.0,3.7978,3.7114,3.5916,3.4269,3.3087,3.1659,2.9895,2.8858,2.8215,2.8096,2.6191,2.5041,2.4787,2.38,2.3222,2.3091,2.3091,2.3091,2.3091,2.3091,2.3091,2.3091,2.3091,2.3091,2.3091,2.3091,2.3091,2.3091,2.3091,2.3091,2.3091,2.3091,2.3091,2.3091,2.3091,2.3091,2.3091,2.3091,2.3091,2.3091,2.3091,2.3091,2.3091,2.3091,2.3091,2.3091,2.3091,2.3091,2.3091,2.3091,2.3091,2.3091,2.3091,2.3091,2.3081,2.3033,2.2721,2.2363,2.1894,2.1494,2.1044,2.0674,2.0605,2.0605,2.0605,2.0605,2.0605,2.0605,2.0605,2.0605,2.0605,2.0605,2.0605,2.0605,2.0605,2.0566,2.045,1.8541,1.7374,1.7139,1.5144,1.5228,1.7496,1.7374,1.7302,1.7302,1.7302,1.6165,0.0,0.0,0.0,0.0,0.0,0.0,1.4492,1.503,1.5543,0.0,1.6717,1.773,1.8322,2.0585,0.0,0.0,0.0,0.0,0.0,0.0,0.0,0.0,0.0,0.0,3.869,3.7408,3.6152,3.5058,3.2807,3.0983,2.9869,2.9585,2.9067,2.8136,2.7671,2.6603,2.483,2.4585,2.4006,2.3091,2.3091,2.3091,2.3091,2.3091,2.3091,2.3091,2.3091,2.3091,2.3091,2.3091,2.3091,2.3091,2.3091,2.3091,2.3091,2.3091,2.3091,2.3091,2.3091,2.3091,2.3091,2.3091,2.3091,2.3091,2.3091,2.3091,2.3091,2.3091,2.3091,2.3091,2.3091,2.3091,2.3091,2.3091,2.3091,2.3091,2.3091,2.3091,2.2994,2.2705,2.2568,2.2266,2.1453,2.1249,2.1044,2.0674,2.0605,2.0605,2.0605,2.0605,2.0605,2.0605,2.0605,2.0605,2.0605,2.0605,2.0605,2.0605,2.0605,2.0196,1.9362,1.8917,1.7819,1.6067,1.4734,1.5594,1.8678,1.7747,1.7302,1.7302,1.7302,1.6165,0.0,0.0,0.0,1.6601,0.0,0.0,0.0,1.4636,1.4863,1.5304,1.5766,1.6316,1.7041,0.0,0.0,0.0,0.0,0.0,0.0,0.0,0.0,0.0,0.0,0.0,3.8724,3.8059,3.6912,3.5211,3.3437,3.1843,3.057,3.0037,2.9534,2.8976,2.8386,2.755,2.6438,2.5368,2.45,2.392,2.3387,2.3091,2.3091,2.3091,2.3091,2.3091,2.3091,2.3091,2.3091,2.3091,2.3091,2.3091,2.3091,2.3091,2.3091,2.3091,2.3091,2.3091,2.3091,2.3091,2.3091,2.3091,2.3091,2.3091,2.3091,2.3091,2.3091,2.3091,2.3091,2.3091,2.3091,2.3091,2.3091,2.3091,2.3091,2.3042,2.2828,2.2779,2.2594,2.196,2.1834,2.1697,2.1268,2.1045,2.082,2.0635,2.0605,2.0605,2.0605,2.0605,2.0605,2.0605,2.0605,2.0605,2.0605,2.0605,2.0605,2.0605,2.0605,2.0362,1.9805,1.9283,1.798,1.5737,1.5711,1.6527,1.8149,1.7585,1.7302,1.7302,1.7302,1.6165,0.0,0.0,0.0,0.0,0.0,1.6113,0.0,0.0,0.0,1.5398,0.0,0.0,0.0,0.0,0.0,0.0,0.0,0.0,0.0,0.0,0.0,0.0,0.0,0.0,0.0,3.8286,3.7387,3.534,3.3965,3.2686,3.1477,3.0381,2.9792,2.9792,2.8897,2.8307,2.8096,2.6315,2.5326,2.5126,2.3963,2.343,2.342,2.3222,2.3091,2.3091,2.3091,2.3091,2.3091,2.3091,2.3091,2.3091,2.3091,2.3091,2.3091,2.3091,2.3091,2.3091,2.3091,2.3091,2.3091,2.3091,2.3091,2.3091,2.3091,2.3091,2.3091,2.3091,2.3091,2.3091,2.3091,2.3091,2.3091,2.3091,2.3091,2.2984,2.2607,2.251,2.2285,2.1473,2.1317,2.1268,2.1093,2.0879,2.0732,2.0732,2.0801,2.083,2.0742,2.0732,2.0703,2.0615,2.0605,2.0605,2.0605,2.0605,2.0605,2.0605,2.0605,2.0605,2.0605,1.9559,1.8261,1.6667,1.6887,1.7293,1.794,1.7293,1.709,1.7302,1.709,1.5959,0.0,0.0,0.0,0.0,1.8,0.0,0.0,0.0,1.4202,1.4275,0.0,0.0,0.0,0.0,0.0,0.0,0.0,0.0,0.0,0.0,0.0,0.0,0.0,0.0,0.0,3.7064,3.6552,3.5925,3.3382,3.1896,3.2084,3.0637,2.9792,2.9792,2.9663,2.9106,2.8124,2.7844,2.7238,2.6307,2.5168,2.4628,2.4585,2.3551,2.3091,2.3091,2.3091,2.3091,2.3091,2.3091,2.3091,2.3091,2.3091,2.3091,2.3091,2.3091,2.3091,2.3091,2.3091,2.3091,2.3091,2.3091,2.3091,2.3091,2.3091,2.3091,2.3091,2.3091,2.3091,2.3091,2.3091,2.3091,2.3091,2.3091,2.3091,2.2984,2.2607,2.251,2.2373,2.1904,2.1816,2.1562,2.0811,2.0928,2.1112,2.1112,2.1484,2.1592,2.1171,2.1112,2.1006,2.0644,2.0605,2.0605,2.0605,2.0605,2.0605,2.0605,2.0605,2.0605,2.0605,1.9559,1.9313,2.0031,1.7317,1.7326,2.0235,1.7317,1.6355,1.7302,1.6314,1.522,0.0,0.0,0.0,0.0,0.0,0.0,1.6186,0.0,1.4852,0.0,0.0,0.0,0.0,0.0,0.0,0.0,0.0,0.0,0.0,0.0,0.0,0.0,0.0,0.0,0.0,0.0,0.0,0.0,3.5046,3.3976,3.3492,3.2303,3.1227,3.0281,3.0269,2.9897,2.9106,2.8426,2.7884,2.74,2.6295,2.542,2.4787,2.4296,2.3714,2.3091,2.3091,2.3091,2.3091,2.3091,2.3091,2.3091,2.3091,2.3091,2.3091,2.3091,2.3091,2.3091,2.3091,2.3091,2.3091,2.3091,2.3551,2.3963,2.3299,2.3551,2.3963,2.3309,2.3091,2.3091,2.3091,2.3091,2.3091,2.3091,2.2906,2.2656,2.2236,2.2148,2.2021,2.1592,2.1709,2.1768,2.1437,2.1484,2.1611,2.1611,2.1553,2.1405,2.122,2.1006,2.0771,2.0625,2.0605,2.0605,2.0605,2.0605,2.0605,2.0605,2.0605,2.0605,2.0605,2.0167,1.9844,1.9678,1.8939,1.8899,1.9687,1.7617,1.6846,1.7253,1.6191,1.5137,2.3467,0.0,0.0,0.0,0.0,0.0,0.0,0.0,0.0,0.0,0.0,0.0,0.0,0.0,0.0,0.0,0.0,0.0,0.0,0.0,0.0,0.0,0.0,0.0,0.0,0.0,0.0,0.0,0.0,3.4196,3.4244,3.3012,3.1874,3.0834,3.0545,3.0269,3.0018,2.9049,2.8557,2.8557,2.7168,2.6058,2.5252,2.4628,2.3877,2.3091,2.3091,2.3091,2.3091,2.3091,2.3091,2.3091,2.3091,2.3091,2.3091,2.3091,2.3091,2.3091,2.3091,2.3091,2.3091,2.3091,2.3671,2.4168,2.3343,2.3671,2.4168,2.3343,2.3091,2.3091,2.3091,2.3091,2.3091,2.3091,2.2779,2.2402,2.1982,2.1885,2.1787,2.1475,2.1768,2.21,2.2207,2.2139,2.206,2.206,2.1885,2.1629,2.1405,2.1133,2.0869,2.0635,2.0605,2.0605,2.0605,2.0605,2.0605,2.0605,2.0605,2.0605,2.0605,2.0605,2.0235,1.9441,1.9923,1.9766,1.8997,1.7577,1.6846,1.6846,1.5745,1.4852,0.0,0.0,0.0,2.2155,0.0,0.0,0.0,0.0,1.7024,0.0,0.0,0.0,0.0,0.0,0.0,0.0,0.0,0.0,0.0,0.0,0.0,0.0,0.0,0.0,0.0,0.0,0.0,0.0,0.0,0.0,3.3674,3.1803,3.0899,3.1348,3.0369,3.0068,3.0583,3.0016,2.9753,2.9702,2.7545,2.6472,2.6359,2.4135,2.3135,2.3091,2.3091,2.3091,2.3091,2.3091,2.3091,2.3091,2.3091,2.3091,2.3091,2.3091,2.3091,2.3091,2.3091,2.3091,2.3091,2.3091,2.3135,2.3135,2.3091,2.3135,2.3135,2.3091,2.3091,2.3091,2.3091,2.3091,2.3091,2.3091,2.2779,2.2402,2.1982,2.1885,2.1885,2.1865,2.2207,2.2617,2.2984,2.2721,2.249,2.249,2.2779,2.274,2.1973,2.1855,2.1554,2.0693,2.0605,2.0605,2.0605,2.0605,2.0605,2.0605,2.0605,2.0605,2.0605,2.0605,2.0566,2.0566,1.9559,1.9036,1.8997,1.6797,1.5737,1.5745,1.4657,1.4124,0.0,0.0,2.3896,2.2617,0.0,0.0,0.0,0.0,0.0,0.0,0.0,0.0,0.0,0.0,0.0,0.0,0.0,0.0,0.0,0.0,0.0,0.0,0.0,0.0,0.0,0.0,0.0,0.0,2.9492,0.0,0.0,3.323,3.2888,3.1938,3.1587,3.1135,3.062,3.0432,3.0156,2.9792,2.904,2.7919,2.6483,2.5683,2.452,2.3091,2.3091,2.3091,2.3091,2.3091,2.3091,2.3091,2.3091,2.3091,2.3091,2.3091,2.3091,2.3091,2.3091,2.3091,2.3091,2.3091,2.3594,2.4092,2.3343,2.3637,2.4092,2.3299,2.3091,2.3091,2.3091,2.3091,2.3091,2.3091,2.2779,2.2471,2.2334,2.2305,2.2305,2.2305,2.2637,2.2925,2.3071,2.3594,2.3783,2.3006,2.2812,2.2617,2.2334,2.206,2.1768,2.1475,2.1182,2.1006,2.1006,2.0732,2.0605,2.0605,2.0605,2.0605,2.0605,2.0605,2.0605,2.0605,2.0245,1.9726,1.8997,1.7496,1.6396,1.5655,1.4615,1.4088,2.6292,2.5744,0.0,2.3481,2.3114,0.0,2.0834,0.0,0.0,0.0,0.0,0.0,0.0,0.0,0.0,0.0,0.0,0.0,0.0,1.3995,0.0,0.0,0.0,0.0,0.0,0.0,1.9921,2.4635,0.0,0.0,0.0,0.0,3.3399,3.2571,3.2127,3.1687,3.1185,3.0984,3.062,3.008,2.965,2.843,2.6483,2.6099,2.4893,2.3091,2.3091,2.3091,2.3091,2.3091,2.3091,2.3135,2.3551,2.3474,2.3091,2.3091,2.3091,2.3091,2.3091,2.3091,2.3091,2.3091,2.3594,2.4049,2.3299,2.3594,2.4039,2.3299,2.3091,2.3091,2.3091,2.3091,2.3091,2.3091,2.3104,2.3114,2.3114,2.3398,2.368,2.368,2.4008,2.4307,2.4307,2.4925,2.4999,2.3887,2.3815,2.3865,2.3711,2.3433,2.3074,2.2523,2.2201,2.1879,2.1465,2.1201,2.0967,2.081,2.0801,2.0732,2.0615,2.0605,2.0605,2.0605,2.0605,1.9883,1.839,1.7666,1.6568,1.5095,1.4412,1.4088]}]]